     2              OBSERVATION DATA    GPS                 RINEX VERSION / TYPE
teqc 1997Jun30 19970702                                     PGM / RUN BY / DATE
                                                            COMMENT
Original Marker Name: HMCP                                  COMMENT
Campaign Name: HMC San Gabriel Valley 1993-1996             COMMENT
4-Character Station Name: HMCP                              COMMENT
6-Character Antenna Code: DMRCHT                            COMMENT
Vertical Measurement Point: BPA                             COMMENT
Vertical Offset to Rinex Ref. Point: 0.0000                 COMMENT
Radial Measurement Point: RRP                               COMMENT
Radial Offset to Rinex Ref. Point: 0.0000                   COMMENT
Antenna Height from Field Measurement: 0.0000 m             COMMENT
Additional Antenna Identification Info.:                    COMMENT
Turborogue and Ashtech Choke Ring                           COMMENT
Original XYZ: -2458615.3581 -4680493.3967 3556457.0966      COMMENT
New XYZ position is based on association with SCEC monument COMMENT
E1D0R2C7+0011. Position of that monument is believed to be  COMMENT
valid to within 1 m horizontally; vertical accuracy         COMMENT
should be no worse than 3-times this value.                 COMMENT
                                                            COMMENT
Revised Rinex header created by UCSD GPS archive for        COMMENT
GSAC on 13-Apr-1999 (1999:103) 17:17:19 GMT                 COMMENT
For assistance contact dagnew@ucsd.edu or hjohnson@ucsd.edu COMMENT
                                                            COMMENT
HMC PHYSICS                                                 MARKER NAME
MGB HARVEY MUDD COLLEGE                                     OBSERVER / AGENCY
262 TURBOROGUE SNR-8000 95.03.08                            REC # / TYPE / VERS
260 DORNE-MARGOL. TYPE T                                    ANT # / TYPE
 -2458598.0000 -4680494.0000  3556451.0000                  APPROX POSITION XYZ
        0.0000        0.0000        0.0000                  ANTENNA: DELTA H/E/N
     1     1     0                                          WAVELENGTH FACT L1/2
     5    L1    L2    C1    P2    P1                        # / TYPES OF OBSERV
     0                                                      INTERVAL
  1996     2    22     0    29   30.000000                  TIME OF FIRST OBS
  1996     2    22    23    59   30.000000                  TIME OF LAST OBS
     0                                                      # OF SATELLITES
                                                            END OF HEADER
 96  2 22  0 29 30.0000000  0  7G24G 4G 9G 7G12G 2G26
        -0.71554        -0.34354  23648033.5604   23648034.7234
        -0.24954         0.60654  21457834.0244   21457833.8274
        -0.53354        -0.32554  21915765.5924   21915765.2304
        -1.16254        -0.86454  20750827.7454   20750827.9854
         0.27814         0.07514  21186805.641    21186804.430
        -0.07454         0.19054  22052081.1594   22052081.9274
        -0.59654        -0.46454  23835687.3084   23835687.5674
 96  2 22  0 30  0.0000000  0  8G 5G24G 4G 9G 7G12G 2G26
        -0.67154         0.10454  24983260.2144   24983259.1834
   -106955.87544    -83341.94444  23627681.3174   23627683.2714
    -69067.83344    -53818.26144  21444690.7834   21444690.8724
    -66334.25444    -51688.92944  21903142.7754   21903142.7024
     43531.46344     33920.66244  20759112.2324   20759112.2234
     38579.128 4     30061.506 4  21194146.973    21194145.765
     45189.42244     35212.77544  22060680.5754   22060681.5144
     64943.19744     50605.08844  23848046.6684   23848045.8414
 96  2 22  0 30 30.0000000  0  8G 5G24G 4G 9G 7G12G 2G26
    -80959.63744    -63084.73844  24967853.5704   24967858.7044
   -213703.63944   -166521.93444  23607367.2694   23607369.3774
   -137604.01444   -107223.04544  21431648.7564   21431648.2314
   -132146.27144   -102971.00544  21890619.1254   21890618.8804
     87443.53844     68137.86344  20767468.2074   20767468.2154
     77677.760 4     60527.966 4  21201587.245    21201586.049
     90749.64944     70714.23744  22069350.8744   22069351.3504
    130173.97444    101434.24444  23860458.9264   23860458.3994
 96  2 22  0 31  0.0000000  0  8G 5G24G 4G 9G 7G12G 2G26
   -161631.82744   -125946.12844  24952503.3004   24952507.8144
   -320025.17144   -249369.80544  23587135.8654   23587138.0924
   -205371.23144   -160028.63744  21418753.0444   21418752.6194
   -197243.91144   -153696.40744  21878231.7524   21878231.2974
    131958.54544    102824.88144  20775939.5784   20775939.5774
    117518.733 4     91572.875 4  21209168.822    21209167.556
    136899.56944    106675.19444  22078132.5024   22078132.7364
    195911.18944    152658.03344  23872966.7514   23872967.3414
 96  2 22  0 31 30.0000000  0  8G 5G24G 4G 9G 7G12G 2G26
   -242281.18044   -188789.71344  24937155.2914   24937157.3824
   -426197.84344   -332101.69944  23566931.3094   23566932.4764
   -272640.50744   -212446.22744  21405951.2944   21405951.4894
   -261918.76144   -204092.38044  21865924.5024   21865923.6294
    176801.38444    137767.35544  20784472.5234   20784472.5824
    157815.901 4    122973.257 4  21216836.956    21216835.616
    183337.11144    142860.29244  22086969.6464   22086970.6984
    261879.65844    204062.02844  23885520.6694   23885523.2424
 96  2 22  0 32  0.0000000  0  8G 5G24G 4G 9G 7G12G 2G26
   -322996.10544   -251684.47644  24921796.9934   24921801.5204
   -532299.90044   -414778.59744  23546741.0914   23546743.4624
   -339492.61344   -264538.74944  21393230.7724   21393230.2224
   -326261.11544   -254229.26544  21853680.6394   21853680.0234
    221870.64644    172886.26344  20793049.2454   20793049.2304
    198476.374 4    154656.736 4  21224574.492    21224573.225
    229954.49144    179185.51444  22095840.6834   22095841.4224
    328000.55344    255584.76444  23898103.1584   23898104.5624
 96  2 22  0 32 30.0000000  0  8G 5G24G 4G 9G 7G12G 2G26
   -403764.12644   -314620.50344  24906425.9504   24906428.6514
   -638323.59544   -497394.42244  23526565.0954   23526566.2434
   -405914.94244   -316296.38544  21380590.8404   21380590.5984
   -390261.59744   -304099.75344  21841501.5334   21841501.6134
    267169.85844    208184.35444  20801669.3554   20801669.5444
    239502.641 4    186625.252 4  21232381.600    21232380.216
    276755.48544    215653.80844  22104746.5094   22104747.0354
    394294.59944    307242.43244  23910718.5934   23910719.8794
 96  2 22  0 33  0.0000000  0  8G 5G24G 4G 9G 7G12G 2G26
   -484586.35144   -377598.78744  24891046.7644   24891050.1704
   -744263.33844   -579944.84044  23506405.5654   23506408.4834
   -471907.34944   -367719.01744  21368033.0224   21368032.7584
   -453885.44544   -353676.76144  21829394.1104   21829394.0134
    312689.08244    243653.88444  20810331.1534   20810331.3774
    280895.123 4    218879.127 4  21240258.231    21240256.907
    323746.52244    252270.18744  22113688.8254   22113688.9374
    460775.84744    359045.97144  23923369.9124   23923370.4794
 96  2 22  0 33 30.0000000  0  8G 5G24G 4G 9G 7G12G 2G26
   -565486.71044   -440638.00444  24875652.6604   24875653.8524
   -850132.93444   -662440.57344  23486258.8204   23486260.2814
   -537497.53344   -418828.22444  21355551.2104   21355551.1684
   -517126.97844   -402955.86344  21817359.7094   21817359.1514
    358397.59744    279270.91444  20819029.5464   20819029.6244
    322636.131 4    251404.584 4  21248201.262    21248200.252
    370899.08644    289012.43244  22122661.7464   22122662.1594
    527424.32144    410979.85144  23936052.1654   23936052.7424
 96  2 22  0 34  0.0000000  0  8G 5G24G 4G 9G 7G12G 2G26
   -646457.51044   -503732.18544  24860242.5624   24860245.8874
   -955919.49744   -744871.59844  23466128.2884   23466131.3654
   -602671.35844   -469612.99844  21343148.7954   21343148.6664
   -579952.73344   -451910.98644  21805404.5424   21805404.0994
    404305.96044    315043.67844  20827765.5774   20827765.6574
    364750.749 4    284221.165 4  21256215.381    21256214.178
    418246.92244    325906.83544  22131670.9174   22131671.2234
    594248.68644    463050.77344  23948768.2684   23948768.6804
 96  2 22  0 34 30.0000000  0  8G 5G24G 4G 9G 7G12G 2G26
   -727498.40744   -566880.89844  24844820.0584   24844829.2424
  -1061620.47144   -827235.92844  23446014.0444   23446015.3744
   -667421.16344   -520067.36344  21330827.9734   21330828.0604
   -642347.83844   -500530.54344  21793531.1294   21793530.3434
    450419.73244    350976.49644  20836540.5184   20836540.6004
    407246.458 4    317334.698 4  21264302.097    21264300.865
    465813.82944    362971.94644  22140723.4734   22140723.4214
    661237.61344    515249.89844  23961516.9654   23961517.9544
 96  2 22  0 35  0.0000000  0  8G 5G24G 4G 9G 7G12G 2G26
   -808578.42744   -630060.08244  24829393.6454   24829395.8924
  -1167189.39844   -909497.39044  23425924.7254   23425926.3264
   -731698.61444   -570153.65944  21318595.7784   21318595.4154
   -704278.59344   -548788.26044  21781745.8844   21781745.3194
    496778.92144    387100.54244  20845362.2794   20845362.4944
    450166.497 4    350778.877 4  21272469.470    21272468.333
    513640.41544    400239.41144  22149824.7154   22149824.6704
    728421.44244    567600.90044  23974302.7204   23974303.4634
 96  2 22  0 35 30.0000000  0  8G 5G24G 4G 9G 7G12G 2G26
   -889700.58744   -693272.14144  24813957.1474   24813962.4904
  -1272636.47144   -991663.88944  23405858.7284   23405860.6704
   -795501.12544   -619869.87344  21306454.7674   21306454.3194
   -765775.90244   -596708.23144  21770042.8584   21770042.4404
    543386.50744    423418.14844  20854231.6724   20854231.6474
    493499.142 4    384544.570 4  21280715.454    21280714.119
    561719.30144    437703.46844  22158973.2884   22158973.8844
    795775.57244    620084.63744  23987119.0774   23987119.8144
 96  2 22  0 36  0.0000000  0  8G 5G24G 4G 9G 7G12G 2G26
   -970870.50544   -756521.45544  24798510.2514   24798513.6434
  -1377968.57944  -1073740.83044  23385814.3324   23385816.9314
   -858816.68244   -669206.64044  21294406.3414   21294406.0434
   -826859.69744   -644305.98344  21758419.2534   21758418.8854
    590236.59444    459924.71444  20863146.5994   20863146.9174
    537232.084 4    418622.183 4  21289037.465    21289036.342
    610056.88244    475369.10644  22168171.8664   22168172.6254
    863280.10344    672685.57044  23999963.8514   23999962.2544
 96  2 22  0 36 30.0000000  0  8G 5G24G 4G 9G 7G12G 2G26
  -1052073.39844   -819796.46544  24783058.8214   24783060.5674
  -1483164.97844  -1155712.03444  23365797.1224   23365798.1454
   -921621.29244   -718145.26744  21282455.0044   21282454.7174
   -887525.54244   -691578.05744  21746874.7324   21746874.7424
    637335.28844    496624.99244  20872108.9344   20872109.2204
    581373.528 4    453018.110 4  21297437.367    21297436.183
    658660.88544    513242.33944  22177421.5384   22177421.4244
    930948.04744    725413.83644  24012839.5404   24012841.1704
 96  2 22  0 37  0.0000000  0  8G 5G24G 4G 9G 7G12G 2G26
  -1133311.94544   -883099.26944  24767599.9254   24767598.4974
  -1588228.28644  -1237579.50144  23345804.1104   23345805.8134
   -983917.50744   -766687.74544  21270600.4274   21270600.0504
   -947780.92644   -738530.29344  21735409.0814   21735409.0074
    684663.69144    533504.27144  20881115.7054   20881115.8074
    625909.666 4    487721.587 4  21305912.369    21305910.873
    707506.05544    551303.48644  22186715.5674   22186716.6004
    998771.49544    778263.23244  24025745.3394   24025747.6624
 96  2 22  0 37 30.0000000  0  8G 5G24G 4G 9G 7G12G 2G26
  -1214583.35044   -946427.64744  24752133.4764   24752132.4094
  -1693157.97044  -1319342.85744  23325835.8524   23325837.5064
  -1045711.93544   -814839.21644  21258841.3354   21258841.1094
  -1007623.88844   -785161.16644  21724021.1934   21724020.6984
    732209.47944    570552.93744  20890163.2864   20890163.5844
    670832.675 4    522726.523 4  21314460.869    21314459.780
    756583.44544    589545.59444  22196054.5444   22196055.3394
   1066737.86744    831223.99244  24038680.8454   24038681.4464
 96  2 22  0 38  0.0000000  0  8G 5G24G 4G 9G 7G12G 2G26
  -1295894.91844  -1009787.27044  24736660.9234   24736663.4174
  -1797952.53144  -1401000.92044  23305895.0674   23305896.0854
  -1107014.72244   -862607.59444  21247175.4304   21247175.0174
  -1067051.02544   -831468.02644  21712712.3554   21712711.7614
    779962.36244    607762.96944  20899250.1624   20899250.5484
    716144.698 4    558034.588 4  21323083.502    21323082.261
    805887.83144    627964.58144  22205437.4094   22205437.8564
   1134842.43644    884292.50344  24051640.0864   24051642.1524
 96  2 22  0 38 30.0000000  0  8G 5G24G 4G 9G 7G12G 2G26
  -1377230.03944  -1073165.26544  24721183.1884   24721187.0814
  -1902585.39444  -1482532.99644  23285984.2504   23285985.8404
  -1167825.69744   -909992.74144  21235603.8244   21235603.3204
  -1126031.86244   -877427.10344  21701488.7824   21701488.1854
    827949.36244    645155.42744  20908382.0294   20908382.4054
    761871.005 4    593665.469 4  21331784.893    21331783.606
    855439.62844    666576.35944  22214866.9204   22214867.2414
   1203107.90244    937486.33844  24064630.3034   24064630.7374
 96  2 22  0 39  0.0000000  0  8G 5G24G 4G 9G 7G12G 2G26
  -1458603.75944  -1136573.31544  24705699.0644   24705701.1264
  -2007050.98744  -1563934.72544  23266105.1314   23266107.1174
  -1228153.68744   -957001.53844  21224123.8594   21224123.2934
  -1184565.80544   -923037.96244  21690350.0754   21690348.9994
    876168.84344    682729.04644  20917558.1254   20917558.3314
    808009.399 4    629617.454 4  21340564.791    21340563.705
    905242.47344    705383.76144  22224344.0144   22224344.4704
   1271529.19144    990801.63944  24077651.4274   24077650.3934
 96  2 22  0 39 30.0000000  0  8G 5G24G 4G 9G 7G12G 2G26
  -1540039.97144  -1200030.09344  24690202.6694   24690203.1064
  -2111363.29344  -1645217.01144  23246254.7514   23246256.3174
  -1288014.57844  -1003646.35844  21212732.4504   21212732.0174
  -1242674.60044   -968317.53644  21679291.9964   21679291.5304
    924617.11444    720480.94844  20926777.2314   20926777.3814
    854550.790 4    665883.465 4  21349421.168    21349420.081
    955293.09144    744384.24044  22233868.6314   22233868.5494
   1340096.40744   1044230.62444  24090698.9134   24090700.0514
 96  2 22  0 40  0.0000000  0  8G 5G24G 4G 9G 7G12G 2G26
  -1621560.73144  -1263552.61144  24674688.4874   24674687.9034
  -2215534.50644  -1726389.37044  23226431.4334   23226432.4624
  -1347425.57644  -1049940.61544  21201426.7194   21201426.4114
  -1300361.24344  -1013268.16344  21668315.4464   21668315.0014
    973293.14744    758410.32444  20936040.0674   20936040.1944
    901483.428 4    702454.343 4  21358352.292    21358351.077
   1005584.34944    783572.22744  22243438.7204   22243439.1224
   1408809.34344   1097773.14044  24103775.1814   24103775.9374
 96  2 22  0 40 30.0000000  0  8G 5G24G 4G 9G 7G12G 2G26
  -1703142.22244  -1327122.46944  24659163.5624   24659165.3244
  -2319541.79744  -1807434.00744  23206639.7584   23206640.9804
  -1406359.37644  -1095863.03644  21190212.2854   21190211.7754
  -1357600.60844  -1057870.25644  21657423.0544   21657422.9264
   1022216.74444    796532.60244  20945349.4734   20945349.8524
    948821.172 4    739340.884 4  21367360.348    21367359.184
   1056130.55544    822958.87044  22253057.2294   22253057.8574
   1477699.18444   1151453.50844  24116885.0644   24116884.0974
 96  2 22  0 41  0.0000000  0  8G 5G24G 4G 9G 7G12G 2G26
  -1784772.77544  -1390730.59144  24643629.4844   24643628.3574
  -2423392.65344  -1888356.73244  23186877.5624   23186879.3044
  -1464797.62644  -1141399.30744  21179091.5484   21179091.2324
  -1414408.58344  -1102136.19944  21646612.4264   21646612.0784
   1071381.37944    834842.70444  20954705.3504   20954705.6934
    996557.984 4    776538.385 4  21376444.371    21376443.208
   1106919.02744    862534.28844  22262721.8184   22262722.6014
   1546768.19144   1205273.48044  24130027.8694   24130027.6454
 96  2 22  0 41 30.0000000  0  8G 5G24G 4G 9G 7G12G 2G26
  -1866433.98544  -1454362.51744  24628090.5004   24628092.5204
  -2527105.67044  -1969172.05544  23167140.8474   23167142.3054
  -1522750.56644  -1186557.41644  21168063.7434   21168063.4614
  -1470778.25644  -1146060.61344  21635885.9264   21635885.4074
   1120781.08544    873335.98544  20964106.0034   20964106.0254
   1044689.236 4    814043.243 4  21385603.483    21385602.333
   1157939.41544    902290.41044  22272430.6184   22272431.6874
   1615996.24944   1259217.42044  24143201.9884   24143203.3984
 96  2 22  0 42  0.0000000  0  8G 5G24G 4G 9G 7G12G 2G26
  -1948106.55444  -1518003.36244  24612547.6754   24612548.9814
  -2630681.13544  -2049880.17744  23147431.7964   23147433.5584
  -1580219.03344  -1231338.01644  21157127.8474   21157127.3294
  -1526691.04144  -1189629.00744  21625245.5514   21625245.4284
   1170405.01244    912003.98744  20973549.1864   20973549.1224
   1093215.491 4    851855.897 4  21394837.746    21394836.409
   1209188.45044    942224.70344  22282182.8144   22282183.4464
   1685375.25644   1313278.97544  24156404.3514   24156405.2224
 96  2 22  0 42 30.0000000  0  8G 5G24G 4G 9G 7G12G 2G26
  -2029777.20944  -1581642.67144  24597004.1594   24597005.7924
  -2734107.26044  -2130471.93744  23127749.9794   23127751.6324
  -1637184.38644  -1275726.57844  21146287.6234   21146287.0714
  -1582154.84844  -1232847.54144  21614691.2534   21614690.9584
   1220237.83444    950834.76444  20983031.9154   20983031.8704
   1142139.610 4    889978.577 4  21404147.766    21404146.499
   1260672.20644    982341.90144  22291980.2164   22291981.0064
   1754874.97644   1367434.56944  24169629.3204   24169629.8844
 96  2 22  0 43  0.0000000  0  8G 5G24G 4G 9G 7G12G 2G26
  -2111449.90644  -1645283.59744  24581462.7794   24581465.4254
  -2837379.06744  -2210943.48244  23108098.1504   23108099.3604
  -1693653.54144  -1319728.49144  21135541.8544   21135541.6124
  -1637164.61644  -1275712.29244  21604223.9564   21604223.3764
   1270262.90544    989815.34244  20992551.5814   20992551.7304
   1191462.222 4    928411.768 4  21413533.287    21413532.224
   1312396.11844   1022646.24744  22301822.3554   22301823.0494
   1824461.06944   1421657.47344  24182869.3714   24182871.5254
 96  2 22  0 43 30.0000000  0  8G 5G24G 4G 9G 7G12G 2G26
  -2193138.08044  -1708936.65444  24565919.3874   24565922.7644
  -2940486.34944  -2291286.83144  23088478.3474   23088479.7284
  -1749634.36844  -1363349.88944  21124889.0184   21124888.7174
  -1691704.05544  -1318210.54644  21593845.2534   21593844.8034
   1320471.30744   1028938.77444  21002105.9644   21002105.9144
   1241185.364 4    967157.059 4  21422995.450    21422994.402
   1364369.51244   1063144.97744  22311712.9284   22311712.4764
   1894125.21744   1475941.16844  24196126.0794   24196129.2504
 96  2 22  0 44  0.0000000  0  8G 5G24G 4G 9G 7G12G 2G26
  -2274860.18544  -1772616.15144  24550368.0414   24550369.9804
  -3043408.80844  -2371486.13444  23068892.2424   23068892.9134
  -1805113.14444  -1406580.08044  21114331.7624   21114331.4534
  -1745796.20344  -1360360.24444  21583551.4014   21583551.3264
   1370861.18844   1068203.62644  21011694.9744   21011694.7214
   1291307.116 4   1006212.957 4  21432533.458    21432532.217
   1416590.20744   1103836.41444  22321649.4004   22321649.9144
   1963877.36244   1530293.45844  24209399.8274   24209401.3974
 96  2 22  0 44 30.0000000  0  8G 5G24G 4G 9G 7G12G 2G26
  -2356619.58644  -1836324.76944  24534809.7094   24534809.3124
  -3146125.20244  -2451524.85844  23049346.2594   23049347.4144
  -1860080.54444  -1449411.79544  21103871.3194   21103870.9374
  -1799441.87444  -1402162.05044  21573343.0314   21573342.2774
   1421441.09044   1107616.52644  21021319.5784   21021319.6674
   1341831.150 4   1045582.323 4  21442147.788    21442146.559
   1469069.06544   1144729.02344  22331636.3494   22331637.4654
   2033725.78544   1584720.79844  24222692.5454   24222692.7144
 96  2 22  0 45  0.0000000  0  8G 5G24G 4G 9G 7G12G 2G26
  -2438424.86344  -1900069.05844  24519242.5984   24519242.5544
  -3248647.53544  -2531412.36744  23029835.9024   23029837.5254
  -1914550.81844  -1491856.13744  21093506.7224   21093506.1464
  -1852636.36144  -1443612.29444  21563220.4364   21563219.9794
   1472216.50544   1147181.79744  21030982.2054   21030982.0824
   1392752.313 4   1085261.142 4  21451837.672    21451836.652
   1521791.18744   1185811.19844  22341669.2174   22341669.7944
   2103695.54944   1639242.68544  24236007.8554   24236005.9944
 96  2 22  0 45 30.0000000  0  8G 5G24G 4G 9G 7G12G 2G26
  -2520284.12844  -1963855.34744  24503666.4044   24503666.2254
  -3350994.01544  -2611162.85444  23010360.7584   23010362.4124
  -1968531.03544  -1533918.62244  21083234.6974   21083233.8274
  -1905403.76844  -1484729.73044  21553178.9424   21553179.0944
   1523186.39544   1186898.60944  21040681.3984   21040681.3924
   1444056.453 4   1125238.385 4  21461600.520    21461599.364
   1574745.52044   1227074.29644  22351746.3254   22351746.7444
   2173801.41844   1693870.61644  24249348.3144   24249348.4774
 96  2 22  0 46  0.0000000  0  8G 5G24G 4G 9G 7G12G 2G26
  -2602213.33144  -2027696.29844  24488075.8624   24488074.2924
  -3453186.55244  -2690793.37944  22990914.0454   22990915.7164
  -2022036.65944  -1575611.29344  21073052.5634   21073051.9624
  -1957760.86844  -1525527.45744  21543215.9444   21543215.7874
   1574339.34244   1226758.05344  21050415.5294   21050415.3674
   1495722.558 4   1165497.677 4  21471432.488    21471431.136
   1627903.94544   1268496.42544  22361861.6404   22361863.0504
   2244017.08344   1748584.09844  24262710.4534   24262708.1324
 96  2 22  0 46 30.0000000  0  8G 5G24G 4G 9G 7G12G 2G26
  -2684178.38844  -2091565.07844  24472476.5454   24472478.7444
  -3555211.79244  -2770293.53244  22971499.1194   22971500.4384
  -2075043.13544  -1616915.01944  21062965.8724   21062965.4244
  -2009661.55544  -1565969.53944  21533339.6414   21533339.3194
   1625707.70444   1266785.34844  21060190.5014   21060190.6414
   1547780.915 4   1206062.617 4  21481338.781    21481337.490
   1681291.54044   1310097.13944  22372020.8004   22372022.6864
   2314367.89944   1803402.88944  24276097.1634   24276095.3954
 96  2 22  0 47  0.0000000  0  8G 5G24G 4G 9G 7G12G 2G26
  -2766188.71244  -2155469.22244  24456871.4874   24456870.7194
  -3657087.58844  -2849677.23744  22952112.3954   22952114.0684
  -2127557.34844  -1657835.17044  21052972.7984   21052972.1854
  -2061118.04944  -1606065.49244  21523547.9134   21523547.4614
   1677291.64844   1306980.62944  21070006.3834   21070006.4234
   1600225.597 4   1246928.597 4  21491318.597    21491317.353
   1734892.73944   1351864.29044  22382220.9664   22382221.6294
   2384837.49344   1858314.26744  24289506.3934   24289507.1644
 96  2 22  0 47 30.0000000  0  8G 5G24G 4G 9G 7G12G 2G26
  -2848236.92844  -2219402.80344  24441257.3284   24441259.4794
  -3758795.10044  -2928929.80244  22932758.1694   22932759.6764
  -2179569.89244  -1698364.40844  21043074.7684   21043074.3944
  -2112120.34444  -1645807.52544  21513842.3144   21513841.8534
   1729093.53344   1347345.74044  21079864.2864   21079864.0464
   1653065.709 4   1288102.703 4  21501373.965    21501372.620
   1788709.60244   1393799.49844  22392462.0124   22392462.3764
   2455412.30744   1913307.59744  24302935.2304   24302935.8134
 96  2 22  0 48  0.0000000  0  8G 5G24G 4G 9G 7G12G 2G26
  -2930329.12444  -2283370.68744  24425635.5584   24425634.1114
  -3860318.03344  -3008038.56544  22913439.2194   22913440.7974
  -2231072.80344  -1738496.53144  21033274.3014   21033273.8354
  -2162654.27444  -1685184.60744  21504225.8064   21504225.3424
   1781110.38944   1387878.36244  21089762.5794   21089762.3334
   1706306.009 4   1329588.645 4  21511505.124    21511503.935
   1842739.87544   1435900.98644  22402744.2084   22402744.3534
   2526079.92044   1968373.26044  24316382.6544   24316385.8734
 96  2 22  0 48 30.0000000  0  8G 5G24G 4G 9G 7G12G 2G26
  -3012441.01744  -2347353.93744  24410009.4374   24410008.9834
  -3961629.68144  -3086982.66944  22894160.4534   22894161.7894
  -2282041.54144  -1778212.41844  21023574.8794   21023574.3264
  -2212701.89144  -1724182.74244  21494702.1644   21494701.8284
   1833342.83044   1428578.96344  21099701.9864   21099702.0714
   1759962.375 4   1371398.795 4  21521715.723    21521714.338
   1897017.13944   1478194.94144  22413073.1144   22413073.2404
   2596849.86644   2023518.57644  24329849.2784   24329851.6874
 96  2 22  0 49  0.0000000  0  8G 5G24G 4G 9G 7G12G 2G26
  -3094586.53244  -2411363.33944  24394378.6624   24394376.8304
  -4062724.24144  -3165757.62244  22874922.9024   22874923.4814
  -2332472.16444  -1817508.98844  21013978.3454   21013977.9824
  -2262268.77144  -1762806.27444  21485270.0304   21485269.5644
   1885761.49544   1469424.67644  21109677.3224   21109677.1614
   1814020.425 4   1413521.941 4  21532002.464    21532001.142
   1951553.14844   1520690.51444  22423450.7304   22423451.4454
   2667691.27044   2078719.61644  24343330.8074   24343334.4364
 96  2 22  0 49 30.0000000  0  8G 5G24G 4G 9G 7G12G 2G26
  -3176755.79944  -2475391.24344  24378743.0824   24378743.9784
  -4163584.62444  -3244350.07844  22855729.7884   22855731.4844
  -2382341.30744  -1856368.04244  21004488.6044   21004488.0114
  -2311338.44044  -1801042.37744  21475932.5144   21475931.9944
   1938354.55044   1510406.28144  21119685.2694   21119685.0354
   1868485.967 4   1455962.610 4  21542367.024    21542365.691
   2006379.31244   1563412.19244  22433883.9614   22433883.8794
   2738610.79244   2133981.58244  24356828.6134   24356827.1234
 96  2 22  0 50  0.0000000  0  8G 5G24G 4G 9G 7G12G 2G26
  -3258937.97144  -2539429.25944  24363103.2664   24363104.8484
  -4264216.99644  -3322764.85844  22836579.2384   22836580.7424
  -2431630.93744  -1894775.53044  20995108.9864   20995108.3944
  -2359908.30444  -1838889.01744  21466690.1914   21466689.6684
   1991126.66944   1551527.41444  21129727.7524   21129727.6794
   1923365.263 4   1498725.685 4  21552810.204    21552808.967
   2061519.28944   1606378.40544  22444376.4084   22444376.4834
   2809611.75044   2189306.96844  24370341.0684   24370338.2124
 96  2 22  0 50 30.0000000  0  8G 5G24G 4G 9G 7G12G 2G26
  -3341157.17044  -2603496.14044  24347456.8134   24347456.7634
  -4364657.96844  -3401030.50744  22817466.1634   22817467.8974
  -2480364.90144  -1932750.02744  20985835.0014   20985834.4074
  -2408008.31044  -1876369.53344  21457536.5994   21457536.3054
   2044058.79044   1592773.22544  21139800.2864   21139800.1544
   1978629.076 4   1541788.386 4  21563326.349    21563325.273
   2116948.76744   1649570.20544  22454924.6324   22454924.3134
   2880661.52144   2244670.42244  24383861.8204   24383857.4304
 96  2 22  0 51  0.0000000  0  8G 5G24G 4G 9G 7G12G 2G26
  -3423422.60944  -2667599.04744  24331803.5004   24331802.8504
  -4464903.91044  -3479144.16944  22798390.0024   22798391.2474
  -2528544.17844  -1970292.30244  20976666.8724   20976666.3174
  -2455637.26844  -1913482.99844  21448472.8874   21448472.5154
   2097172.41544   1634160.46044  21149906.9434   21149907.3524
   2034283.328 4   1585155.326 4  21573917.156    21573915.938
   2172652.14644   1692975.33344  22465524.1904   22465524.8424
   2951779.97644   2300087.42044  24397394.9614   24397391.5874
 96  2 22  0 51 30.0000000  0  8G 5G24G 4G 9G 7G12G 2G26
  -3505742.76144  -2731744.51744  24316137.5384   24316138.0744
  -4564976.39344  -3557122.68444  22779346.5624   22779347.8734
  -2576198.53744  -2007425.55044  20967598.3924   20967598.0894
  -2502807.01344  -1950238.64044  21439496.8684   21439496.7904
   2150466.52044   1675688.33944  21160048.6224   21160048.7804
   2090315.396 4   1628816.666 4  21584579.748    21584578.452
   2228589.70444   1736563.05844  22476168.8204   22476169.4904
   3022967.84144   2355558.49044  24410941.2164   24410940.6794
 96  2 22  0 52  0.0000000  0  8G 5G24G 4G 9G 7G12G 2G26
  -3588100.29644  -2795919.17044  24300465.8584   24300467.8294
  -4664855.50044  -3634950.51344  22760340.3464   22760341.8394
  -2623319.25744  -2044142.97544  20958632.1244   20958631.5944
  -2549491.28044  -1986615.98844  21430612.7514   21430612.4494
   2203964.54444   1717375.11644  21170228.7464   21170229.0194
   2146739.882 4   1672783.790 4  21595317.039    21595315.752
   2284756.89944   1780329.69444  22486857.0614   22486857.6134
   3094239.97244   2411095.19744  24424501.4204   24424500.2654
 96  2 22  0 52 30.0000000  0  8G 5G24G 4G 9G 7G12G 2G26
  -3670487.03944  -2860116.53644  24284788.1274   24284789.4214
  -4764504.55144  -3712599.07544  22741377.4564   22741378.9024
  -2669903.76644  -2080442.57944  20949767.0934   20949766.6674
  -2595661.71544  -2022592.94144  21421827.4154   21421826.6614
   2257679.52144   1759230.94844  21180450.5204   21180450.8364
   2203567.914 4   1717065.362 4  21606130.921    21606129.682
   2341150.93844   1824273.09844  22497588.3184   22497588.8934
   3165618.92444   2466715.13544  24438081.0224   24438086.5824
 96  2 22  0 53  0.0000000  0  8G 5G24G 4G 9G 7G12G 2G26
  -3752894.36244  -2924329.94944  24269106.2324   24269107.8194
  -4863922.00844  -3790067.18544  22722459.4664   22722461.0454
  -2715963.07844  -2116332.93244  20941002.8324   20941002.2204
  -2641313.86644  -2058166.04044  21413140.3984   21413139.3874
   2311590.93044   1801239.84444  21190709.6254   21190709.7914
   2260797.914 4   1761660.155 4  21617021.440    21617020.130
   2397761.66744   1868385.34144  22508360.9584   22508361.1334
   3237100.46644   2522414.98444  24451684.2394   24451691.2844
 96  2 22  0 53 30.0000000  0  8G 5G24G 4G 9G 7G12G 2G26
  -3835298.97344  -2988541.27544  24253425.6054   24253426.6004
  -4963103.04744  -3867351.06844  22703586.6124   22703588.2174
  -2761485.55044  -2151804.97044  20932340.1084   20932339.2544
  -2686433.40444  -2093324.11644  21404554.1794   21404553.6944
   2365694.25444   1843398.28744  21201005.2504   21201005.4074
   2318438.678 4   1806575.020 4  21627990.247    21627988.762
   2454613.27644   1912685.28144  22519180.0644   22519180.6994
   3308684.93544   2578195.02444  24465309.2064   24465311.0784
 96  2 22  0 54  0.0000000  0  8G 5G24G 4G 9G 7G12G 2G26
  -3917695.45044  -3052746.24844  24237744.5314   24237746.5824
  -5062032.43844  -3944438.85844  22684760.2574   22684761.4294
  -2806460.43744  -2186850.31844  20923781.4054   20923780.8954
  -2731027.93644  -2128073.09444  21396068.1014   21396067.7764
   2419985.89644   1885703.47144  21211336.1844   21211336.1844
   2376492.593 4   1851811.825 4  21639037.507    21639036.231
   2511707.25744   1957174.09244  22530044.2244   22530045.1374
   3380367.99644   2634051.91744  24478951.8894   24478952.6374
 96  2 22  0 54 30.0000000  0  8G 5G24G 4G 9G 7G12G 2G26
  -4000100.41844  -3116957.85044  24222064.2454   24222067.0744
  -5160724.68844  -4021341.86244  22665979.7894   22665980.7734
  -2850905.69444  -2221482.96744  20915323.6094   20915323.2484
  -2775134.08244  -2162441.51144  21387674.8474   21387674.6354
   2474442.25744   1928137.01244  21221699.0524   21221699.1554
   2434944.389 4   1897358.664 4  21650160.487    21650159.142
   2569029.27644   2001840.61444  22540952.3014   22540952.2454
   3452125.77244   2689967.06544  24492608.2904   24492607.8774
 96  2 22  0 55  0.0000000  0  8G 5G24G 4G 9G 7G12G 2G26
  -4082496.79244  -3181162.72744  24206385.5634   24206386.9794
  -5259171.17844  -4098053.36844  22647245.6754   22647246.4044
  -2894800.05944  -2255686.35044  20906970.8584   20906970.2564
  -2818755.05044  -2196431.86844  21379374.4844   21379373.8974
   2529061.88144   1970697.77244  21232092.7824   21232092.9874
   2493803.630 4   1943222.994 4  21661360.983    21661359.754
   2626607.08044   2046706.42144  22551909.2544   22551909.5914
   3523950.35144   2745934.25944  24506275.6614   24506275.5764
 96  2 22  0 55 30.0000000  0  8G 5G24G 4G 9G 7G12G 2G26
  -4164893.96344  -3245368.25944  24190704.9864   24190705.5974
  -5357355.66144  -4174560.71444  22628561.3904   22628562.7934
  -2938133.50344  -2289452.65344  20898724.8884   20898724.5024
  -2861901.69844  -2230052.61744  21371163.6294   21371163.1404
   2583845.00444   2013385.92544  21242517.6824   21242517.6084
   2553063.448 4   1989399.461 4  21672637.901    21672636.642
   2684450.62844   2091779.30944  22562916.2054   22562917.2494
   3595830.60844   2801944.82744  24519953.4654   24519952.7724
 96  2 22  0 56  0.0000000  0  8G 5G24G 4G 9G 7G12G 2G26
  -4247283.61444  -3309567.93344  24175027.2594   24175027.9604
  -5455258.92344  -4250848.91544  22609931.1304   22609932.7914
  -2980896.43544  -2322774.40344  20890587.1164   20890586.7834
  -2904566.70544  -2263298.05944  21363044.8694   21363044.2434
   2638802.84644   2056210.22344  21252975.8814   21252975.7214
   2612728.783 4   2035891.916 4  21683991.875    21683990.576
   2742561.14044   2137060.22644  22573974.8844   22573975.4014
   3667763.97244   2857996.82744  24533640.1514   24533638.5484
 96  2 22  0 56 30.0000000  0  8G 5G24G 4G 9G 7G12G 2G26
  -4329688.78644  -3373779.74044  24159345.7044   24159345.9674
  -5552896.21744  -4326929.88544  22591351.8074   22591352.6134
  -3023108.99244  -2355667.25844  20882554.6904   20882554.2564
  -2946754.53044  -2296171.72944  21355016.4074   21355016.1024
   2693927.62244   2099164.60544  21263466.0104   21263465.8984
   2672781.253 4   2082686.036 4  21695419.388    21695418.201
   2800941.66544   2182551.52744  22585083.1634   22585083.8334
   3739740.67944   2914082.60544  24547335.8994   24547333.9714
 96  2 22  0 57  0.0000000  0  8G 5G24G 4G 9G 7G12G 2G26
  -4412125.77344  -3438016.29944  24143657.8114   24143660.9764
  -5650286.43344  -4402818.34044  22572818.8994   22572819.7684
  -3064782.69344  -2388140.26644  20874623.9574   20874623.5794
  -2988469.25644  -2328676.69044  21347078.4484   21347078.0044
   2749214.18644   2142245.04944  21273986.2474   21273986.2384
   2733200.905 4   2129766.277 4  21706916.790    21706915.521
   2859583.22644   2228246.23244  22596242.2524   22596243.5234
   3811751.23044   2970194.69844  24561036.6894   24561039.8684
 96  2 22  0 57 30.0000000  0  8G 5G24G 4G 9G 7G12G 2G26
  -4494606.87044  -3502287.24944  24127962.5164   24127963.1714
  -5747448.73244  -4478529.18344  22554329.3904   22554330.7604
  -3105933.91744  -2420206.14244  20866793.3904   20866792.7944
  -3029712.53544  -2360814.30144  21339229.8294   21339229.5214
   2804664.60444   2185453.17144  21284538.2414   21284538.4894
   2793979.698 4   2177126.359 4  21718482.775    21718481.330
   2918471.30044   2274133.01744  22607448.6714   22607449.8964
   3883794.69844   3026332.38344  24574745.1004   24574748.9274
 96  2 22  0 58  0.0000000  0  8G 5G24G 4G 9G 7G12G 2G26
  -4577138.45744  -3566597.51544  24112258.1784   24112256.2724
  -5844399.72744  -4554075.36844  22535880.5754   22535881.4264
  -3146568.95644  -2451869.79444  20859060.8444   20859060.2464
  -3070478.63944  -2392580.08744  21331472.1194   21331472.2264
   2860285.99844   2228794.51844  21295122.5774   21295122.5814
   2855119.591 4   2224767.821 4  21730117.439    21730115.997
   2977601.50044   2320208.48544  22618699.9014   22618701.1354
   3955871.15944   3082495.79444  24588465.1664   24588467.9724
 96  2 22  0 58 30.0000000  0  8G 5G24G 4G 9G 7G12G 2G26
  -4659746.22944  -3630967.18644  24096538.2214   24096535.6064
  -5941163.98344  -4629476.04844  22517466.8224   22517468.0514
  -3186699.08544  -2483140.00844  20851424.4234   20851423.8484
  -3110779.89344  -2423983.64744  21323804.1284   21323803.5714
   2916058.44744   2272253.57144  21305735.6534   21305735.8524
   2916605.564 4   2272678.956 4  21741817.770    21741816.271
   3036959.20244   2366461.22444  22629995.8844   22629997.5134
   4027958.74144   3138667.90644  24602184.7954   24602185.3074
 96  2 22  0 59  0.0000000  0  8G 5G24G 4G 9G 7G12G 2G26
  -4742403.42044  -3695375.33944  24080809.4154   24080809.5754
  -6037732.00744  -4704723.82144  22499090.5634   22499091.6894
  -3226285.99244  -2513986.93544  20843891.0544   20843890.4954
  -3150588.29344  -2455003.17444  21316228.5434   21316227.9134
   2971995.08844   2315840.56444  21316380.3864   21316380.7344
   2978463.868 4   2320880.219 4  21753588.906    21753587.666
   3096562.42944   2412905.28044  22641338.7254   22641339.3734
   4100065.01644   3194854.59944  24615907.0444   24615907.1314
 96  2 22  0 59 30.0000000  0  8G 5G24G 4G 9G 7G12G 2G26
  -4825105.37644  -3759818.41244  24065073.0334   24065070.0034
  -6134092.75544  -4779810.07544  22480753.4304   22480754.8954
  -3265325.40644  -2544407.24444  20836462.1254   20836461.2414
  -3189891.02044  -2485628.66744  21308749.5204   21308749.1194
   3028084.54244   2359546.63344  21327054.0194   21327053.7044
   3040697.212 4   2369373.719 4  21765431.657    21765430.390
   3156406.47844   2459536.99944  22652726.3214   22652726.6714
   4172172.55444   3251042.26844  24629628.0624   24629630.1974
 96  2 22  1  0  0.0000000  0  8G 5G24G 4G 9G 7G12G 2G26
  -4907846.55644  -3824292.03244  24049327.4164   24049327.0914
  -6230226.15244  -4854719.16144  22462459.7154   22462460.7984
  -3303807.45644  -2574393.24244  20829139.2834   20829138.4834
  -3228673.64144  -2515848.87944  21301369.2244   21301368.8684
   3084319.96844   2403366.44244  21337755.0514   21337755.3584
   3103306.630 4   2418160.264 4  21777345.857    21777344.753
   3216481.75744   2506348.88444  22664158.4154   22664158.8094
   4244280.89144   3307230.57344  24643349.8084   24643350.9564
 96  2 22  1  0 30.0000000  0  8G 5G24G 4G 9G 7G12G 2G26
  -4990593.72444  -3888770.30244  24033580.8044   24033579.1894
  -6326102.49344  -4929427.94744  22444215.3364   22444215.9544
  -3341698.86044  -2603918.99444  20821928.8634   20821928.1764
  -3266913.49744  -2545646.16144  21294091.6644   21294091.5214
   3140711.00644   2447307.50944  21348485.7354   21348486.0574
   3166312.896 4   2467256.045 4  21789335.343    21789334.343
   3276807.49944   2553355.94244  22675637.8794   22675639.4044
   4316412.32844   3363436.89844  24657071.4994   24657075.2234
 96  2 22  1  1  0.0000000  0  8G 5G24G 4G 9G 7G12G 2G26
  -5073329.86944  -3953239.97044  24017837.4004   24017835.5474
  -6421685.62544  -5003908.27544  22426026.4064   22426026.8924
  -3378997.49144  -2632982.84544  20814831.1134   20814830.3114
  -3304602.88344  -2575014.50644  21286920.0944   21286919.7344
   3197258.70444   2491370.65544  21359246.6374   21359246.5924
   3229723.516 4   2516666.905 4  21801402.187    21801400.798
   3337394.80944   2600566.79544  22687167.7954   22687167.8884
   4388574.82444   3419667.39844  24670802.1784
 96  2 22  1  1 30.0000000  0  8G 5G24G 4G 9G 7G12G 2G26
  -5156067.52944  -4017710.83544  24002091.8924   24002089.2554
  -6516970.37844  -5078156.08944  22407894.3144   22407895.7824
  -3415727.85944  -2661603.89644  20807841.3834   20807840.7394
  -3341751.90644  -2603961.78544  21279850.9394   21279850.4834
   3253945.71144   2535542.35144  21370033.8554   21370033.6084
   3293524.930 4   2566382.279 4  21813543.288    21813541.659
   3398224.54644   2647966.56544  22698743.1644   22698743.5034
   4460759.98344   3475915.53344  24684540.6424
 96  2 22  1  2  0.0000000  0  8G 5G24G 4G 9G 7G12G 2G26
  -5238813.75344  -4082188.34844  23986345.5774   23986344.0204
  -6611957.87044  -5152172.27344  22389818.6964   22389819.3424
  -3451885.84444  -2689778.93244  20800960.5734   20800960.0184
  -3378371.52844  -2632496.54844  21272883.0984   21272882.3724
   3310782.18944   2579830.52544  21380849.5234   21380849.2194
   3357720.582 4   2616404.853 4  21825759.276    21825757.701
   3459301.59344   2695559.05944  22710365.6414   22710366.1374
   4532988.50544   3532197.47744  24698286.5984   24698285.7594
 96  2 22  1  2 30.0000000  0  8G 5G24G 4G 9G 7G12G 2G26
  -5321557.94444  -4146664.22844  23970599.2684   23970599.7294
  -6706645.64944  -5225954.92344  22371800.4154   22371801.6894
  -3487459.25344  -2717498.45344  20794191.4354   20794190.7524
  -3414460.52344  -2660617.82144  21266015.4204   21266014.8254
   3367784.05144   2624247.56544  21391696.4384   21391696.1114
   3422320.634 4   2666742.540 4  21838052.306    21838050.872
   3520650.77644   2743363.58744  22722040.0964   22722040.7254
   4605271.21344   3588521.63144  24712042.8824   24712042.6174
 96  2 22  1  3  0.0000000  0  8G 5G24G 4G 9G 7G12G 2G26
  -5404307.59944  -4211144.37444  23954852.1964   23954852.4254
  -6801033.66344  -5299503.98944  22353839.4674   22353840.1034
  -3522461.34444  -2744772.79044  20787530.6334   20787529.6364
  -3450014.72044  -2688322.38844  21259249.2614   21259248.6754
   3424949.56644   2668792.12744  21402574.4864   21402574.5614
   3487322.207 4   2717393.100 4  21850421.651    21850420.302
   3582268.33344   2791377.25344  22733765.3534   22733765.6934
   4677608.80544   3644888.58844  24725808.5554   24725811.0074
 96  2 22  1  3 30.0000000  0  8G 5G24G 4G 9G 7G12G 2G26
  -5487070.19744  -4275634.64844  23939102.8474   23939104.4924
  -6895150.17744  -5372841.49944  22335928.6204   22335929.2424
  -3556889.22244  -2771599.69044  20780979.4764   20780978.8644
  -3485047.66544  -2715620.77244  21252582.3074   21252582.1394
   3482280.33244   2713465.46244  21413484.5564   21413484.4324
   3552713.604 4   2768347.423 4  21862865.289    21862863.955
   3644138.62244   2839587.84544  22745538.9274   22745540.0944
   4749994.63244   3701293.11144  24739583.7844   24739585.8314
 96  2 22  1  4  0.0000000  0  8G 5G24G 4G 9G 7G12G 2G26
  -5569843.44444  -4340133.22144  23923350.9194   23923352.5024
  -6989002.77944  -5445973.35744  22318068.9124   22318069.7024
  -3590743.17644  -2797979.37844  20774537.1084   20774536.4034
  -3519583.14344  -2742531.52244  21246010.3854   21246010.0284
   3539777.89444   2758268.76544  21424426.1404   21424425.8484
   3618485.196 4   2819598.004 4  21875381.128    21875379.812
   3706257.84644   2887992.42744  22757360.2184   22757360.7684
   4822406.42144   3757717.84244  24753363.4024   24753366.0074
 96  2 22  1  4 30.0000000  0  8G 5G24G 4G 9G 7G12G 2G26
  -5652608.09944  -4404625.07544  23907601.3524   23907600.6954
  -7082576.97344  -5518888.28044  22300262.6684   22300264.1994
  -3624021.74444  -2823910.71344  20768204.5554   20768203.7514
  -3553600.55744  -2769038.58444  21239537.5724   21239537.2634
   3597441.88644   2803201.76244  21435399.0414   21435398.7854
   3684642.718 4   2871149.306 4  21887970.593    21887969.082
   3768634.81044   2936597.82444  22769229.6364   22769231.6514
   4894830.81044   3814152.41144  24767143.4044   24767144.5024
 96  2 22  1  5  0.0000000  0  8G 5G24G 4G 9G 7G12G 2G26
  -5735383.01844  -4469124.95244  23891850.5664   23891851.6764
  -7175873.37444  -5591586.73944  22282508.9054   22282509.7054
  -3656743.19144  -2849407.92644  20761977.6404   20761977.1024
  -3587104.57644  -2795145.60444  21233161.8584   21233161.2334
   3655254.12044   2848250.26744  21446400.1244   21446400.0734
   3751172.958 4   2922991.037 4  21900630.849    21900629.448
   3831256.06144   2985393.59044  22781146.5064   22781146.7964
   4967235.94944   3870571.96344  24780917.7074   24780921.1054
 96  2 22  1  5 30.0000000  0  8G 5G24G 4G 9G 7G12G 2G26
  -5818162.52244  -4533628.39044  23876097.7654   23876098.4984
  -7268880.03244  -5664059.43344  22264810.6244   22264811.2584
  -3688892.47744  -2874459.30444  20755859.7094   20755859.0814
  -3620088.30344  -2820847.19344  21226885.4674   21226884.8304
   3713219.34244   2893417.98544  21457430.7444   21457430.6934
   3818078.853 4   2975125.487 4  21913362.570    21913361.202
   3894126.03544   3034383.15444  22793110.2964   22793110.4704
   5039606.58344   3926964.55844  24794690.6374
 96  2 22  1  6  0.0000000  0  8G 5G24G 4G 9G 7G12G 2G26
  -5900940.02544  -4598130.25744  23860345.9564   23860346.8674
  -7361587.36544  -5736298.88144  22247168.5784   22247169.3914
  -3720464.23944  -2899060.65844  20749851.7854   20749851.1304
  -3652532.62944  -2846128.47644  21220711.6874   21220710.9714
   3771332.27544   2938700.80544  21468488.7904   21468489.1014
   3885369.333 4   3027559.612 4  21926167.552    21926166.206
   3957260.71344   3083578.98644  22805124.0854   22805124.8264
   5111954.14444   3983339.32044  24808461.0164
 96  2 22  1  6 30.0000000  0  8G 5G24G 4G 9G 7G12G 2G26
  -5983722.50344  -4662635.99344  23844593.1214   23844594.2744
  -7453984.52644  -5808296.63844  22229586.2514   22229586.7214
  -3751450.73244  -2923205.95944  20743955.2664   20743954.6204
  -3684414.94644  -2870971.83144  21214644.4304   21214643.8834
   3829584.78044   2984092.37644  21479574.1734   21479574.5204
   3953045.713 4   3080294.440 4  21939045.982    21939044.501
   4020661.98744   3132982.55544  22817189.3014   22817189.9254
   5184292.84544   4039707.13844  24822228.5544   24822228.0674
 96  2 22  1  7  0.0000000  0  8G 5G24G 4G 9G 7G12G 2G26
  -6066529.67344  -4727161.01244  23828835.3764   23828834.9434
  -7546089.52344  -5880066.73744  22212059.1294   22212059.3054
  -3781855.27344  -2946897.79244  20738169.4004   20738168.8374
  -3715761.33044  -2895397.57844  21208679.2574   21208678.9504
   3887957.20144   3029577.39244  21490682.1274   21490681.7654
   4021087.748 4   3133314.191 4  21951993.940    21951992.475
   4084304.34644   3182573.97944  22829299.7354   22829300.4914
   5256606.37744   4096055.34944  24835989.1874   24835988.3384
 96  2 22  1  7 30.0000000  0  8G 5G24G 4G 9G 7G12G 2G26
  -6149355.71744  -4791700.70844  23813074.1864   23813075.4674
  -7637917.21444  -5951620.74644  22194584.7494   22194585.2594
  -3811674.36344  -2970133.42844  20732495.0434   20732494.4574
  -3746584.39744  -2919415.54544  21202813.9884   21202813.5494
   3946447.23244   3075154.05344  21501812.5774   21501812.1774
   4089486.763 4   3186612.110 4  21965009.658    21965008.296
   4148176.78044   3232344.71744  22841454.6454   22841455.8104
   5328898.66844   4152386.99344  24849745.9084   24849744.8874
 96  2 22  1  8  0.0000000  0  8G 5G24G 4G 9G 7G12G 2G26
  -6232180.85444  -4856239.72344  23797313.0164   23797313.9054
  -7729446.96744  -6022942.60044  22177167.6224   22177168.3474
  -3840897.47344  -2992904.65944  20726934.0264   20726933.3644
  -3776868.88144  -2943013.84044  21197051.1444   21197050.5454
   4005077.99344   3120840.37044  21512969.3864   21512969.6554
   4158258.687 4   3240200.608 4  21978096.608    21978095.320
   4212304.53944   3282314.38144  22853657.2054   22853657.5294
   5401191.67644   4208719.14044  24863501.6034   24863503.3064
 96  2 22  1  8 30.0000000  0  8G 5G24G 4G 9G 7G12G 2G26
  -6315007.56744  -4920779.93844  23781551.6104   23781552.5014
  -7820664.18744  -6094020.91744  22159809.1884   22159809.6534
  -3869530.91944  -3015216.41644  20721485.5894   20721484.9814
  -3806613.67144  -2966191.58844  21191390.6554   21191390.0674
   4063850.14744   3166636.85944  21524153.1904   21524152.8254
   4227401.826 4   3294078.370 4  21991254.137    21991252.994
   4276684.52744   3332480.59544  22865909.2524   22865910.6384
   5473463.51144   4265034.78744  24877251.0554   24877258.4584
 96  2 22  1  9  0.0000000  0  8G 5G24G 4G 9G 7G12G 2G26
  -6397810.14844  -4985301.35444  23765793.7154   23765795.1524
  -7911554.38544  -6164844.42144  22142513.5324   22142514.0524
  -3897571.38444  -3037066.11044  20716149.5244   20716148.6204
  -3835810.05344  -2988942.01144  21185834.9554   21185834.1904
   4122785.02544   3212560.14844  21535368.0914   21535367.7874
   4296935.341 4   3348260.316 4  22004486.022    22004484.649
   4341341.31644   3382862.48644  22878212.4194   22878213.0524
   5545722.21744                  24891000.4374
 96  2 22  1  9 30.0000000  0  8G 5G24G 4G 9G 7G12G 2G26
  -6480583.88044  -5049800.31044  23750042.8434   23750042.3254
  -8002115.02844  -6235411.11644  22125280.2234   22125280.8004
  -3925031.31644  -3058463.43944  20710924.1764   20710923.3544
  -3864453.93344  -3011261.91444  21180384.1824   21180383.7394
   4181885.71944   3258612.63744  21546614.8164   21546614.6644
   4366862.579 4   3402749.065 4  22017792.673    22017791.402
   4406288.51244   3433470.68744  22890570.8474   22890571.6544
   5617977.72444                  24904754.2074
 96  2 22  1 10  0.0000000  0  8G 5G24G 4G 9G 7G12G 2G26
  -6563368.53844  -5114307.82644  23734288.8524   23734290.2464
  -8092363.65944  -6305734.68644  22108106.5104   22108107.2084
  -3951954.18244  -3079442.27444  20705800.7924   20705800.2424
  -3892566.83044  -3033168.06744  21175034.5814   21175033.7764
   4241116.43944   3304766.45244  21557885.8974   21557885.5774
   4437154.184 4   3457521.738 4  22031168.716    22031167.349
   4471499.87644   3484284.72144  22902980.8424   22902981.0844
   5690200.80944   4433920.93144  24918500.0634   24918492.4154
 96  2 22  1 10 30.0000000  0  8G 5G24G 4G 9G 7G12G 2G26
  -6646183.01744  -5178838.56744  23718529.6974   23718530.2164
  -8182317.69144  -6375828.70844  22090988.5804   22090989.2204
  -3978352.31344  -3100012.22844  20700777.4234   20700776.9054
  -3920163.34144  -3054671.83644  21169782.9264   21169782.5184
   4300462.64644   3351010.24644  21569179.1354   21569179.1734
   4507797.006 4   3512568.080 4  22044611.599    22044610.361
   4536953.14644   3535287.25844  22915436.0844   22915436.8584
   5762386.63944   4490169.66544  24932236.7194   24932234.5584
 96  2 22  1 11  0.0000000  0  8G 5G24G 4G 9G 7G12G 2G26
  -6729017.70544  -5243385.04344  23702767.4804   23702768.2934
  -8271981.56244  -6445696.63044  22073926.4524   22073926.8394
  -4004203.73944  -3120156.17244  20695858.0614   20695857.4134
  -3947239.16744  -3075769.88144  21164630.8794   21164630.2314
   4359938.00044   3397354.67044  21580496.6434   21580497.0234
   4578799.071 4   3567894.354 4  22058122.819    22058121.556
   4602659.27944   3586486.82644  22927939.8884   22927940.2734
   5834562.32444   4546410.44344  24945970.3564   24945967.9974
 96  2 22  1 11 30.0000000  0  8G 5G24G 4G 9G 7G12G 2G26
  -6811867.38944  -5307943.18344  23687001.8974   23687001.7264
  -8361337.75144  -6515324.80344  22056922.0574   22056922.5564
  -4029481.12744  -3139852.82044  20691047.9814   20691047.2044
  -3973784.73044  -3096454.73344  21159579.3314   21159578.7264
   4419547.15244   3443803.35944  21591840.6514   21591840.0524
   4650163.693 4   3623503.138 4  22071702.994    22071701.827
   4668613.34844   3637879.57944  22940490.1004   22940490.9994
   5906729.56644                  24959700.4774
 96  2 22  1 12  0.0000000  0  8G 5G24G 4G 9G 7G12G 2G26
  -6894740.01644  -5372519.22244  23671232.2244   23671232.0854
  -8450388.60044  -6584715.03944  22039976.6044   22039977.3614
  -4054171.92444  -3159092.38344  20686349.2204   20686348.5154
  -3999800.89844  -3116727.06544  21154628.4794   21154627.9174
   4479288.36044   3490354.96344  21603208.7624   21603208.3654
   4721884.186 4   3679389.222 4  22085350.938    22085349.923
   4734803.54244   3689456.34944  22953086.1814   22953086.7954
   5978866.40844   4658857.29744  24973425.1534   24973425.9014
 96  2 22  1 12 30.0000000  0  8G 5G24G 4G 9G 7G12G 2G26
  -6977620.15444  -5437101.12144  23655460.5334   23655459.9524
  -8539133.49744  -6653866.88244  22023089.0114   22023089.8464
  -4078247.82044  -3177852.80344  20681767.7604   20681767.0824
  -4025291.97944  -3136590.24144  21149777.3534   21149776.7904
   4539155.31944   3537004.54544  21614600.8894   21614600.6624
   4793962.262 4   3735553.946 4  22099067.001    22099065.753
   4801235.35844   3741221.38344  22965727.2524   22965728.2674
   6050957.25444   4715032.50944  24987144.1754   24987144.4994
 96  2 22  1 13  0.0000000  0  8G 5G24G 4G 9G 7G12G 2G26
  -7060486.45644  -5501672.24144  23639690.3444   23639691.5804
  -8627545.11444  -6722759.02744  22006264.6844   22006265.8784
  -4101687.29144  -3196117.30944  20677307.1704   20677306.5814
  -4050248.06344  -3156036.53844  21145028.5804   21145028.2274
   4599139.58344   3583745.53244  21626015.5164   21626014.9444
   4866408.513 4   3792005.554 4  22112853.144    22112851.807
   4867920.57644   3793183.88144  22978416.6654   22978417.0854
   6122995.99044                  25000856.4954
 96  2 22  1 13 30.0000000  0  8G 5G24G 4G 9G 7G12G 2G26
  -7143342.91444  -5566235.70544  23623923.1704   23623923.7644
  -8715618.15644  -6791387.33944  21989504.8744   21989505.7144
  -4124518.39144  -3213907.75844  20672962.5444   20672962.0224
  -4074673.57944  -3175069.40644  21140380.5584   21140379.7864
   4659219.33544   3630560.92244  21637448.2074   21637448.1714
   4939208.083 4   3848732.480 4  22126706.546    22126705.076
   4934831.86644   3845322.52544  22991149.8084   22991151.1214
   6194950.98344   4827233.54644  25014550.5224   25014546.0014
 96  2 22  1 14  0.0000000  0  8G 5G24G 4G 9G 7G12G 2G26
  -7226184.67444  -5630787.68044  23608160.0214   23608161.3094
  -8803355.15144  -6859753.80144  21972809.6514   21972810.4744
  -4146746.61944  -3231228.43844  20668732.9224   20668732.3214
  -4098554.02544  -3193677.54444  21135836.4064   21135835.8764
   4719396.70244   3677452.37544  21648900.0024   21648899.7264
   5012367.138 4   3905739.522 4  22140628.221    22140626.779
   5001986.29244   3897650.64344  23003929.6734   23003930.7804
   6266838.47344   4883249.81544  25028230.0844   25028227.0094
 96  2 22  1 14 30.0000000  0  8G 5G24G 4G 9G 7G12G 2G26
  -7309010.81244  -5695327.47444  23592397.8904   23592399.1454
  -8890753.90944  -6927856.70644  21956177.5664   21956178.3504
  -4168385.89644  -3248090.19844  20664615.0454   20664614.1344
  -4121887.34244  -3211859.34444  21131396.0434   21131395.4764
   4779659.41644   3724410.34044  21660367.3794   21660367.1474
   5085882.589 4   3963024.276 4  22154617.889    22154616.401
   5069381.07544   3950166.04244  23016753.3264   23016754.9804
   6338669.05244   4939221.69744  25041898.0904
 96  2 22  1 15  0.0000000  0  8G 5G24G 4G 9G 7G12G 2G26
  -7391811.19244  -5759847.20444  23576641.1544   23576639.8134
  -8977809.01544  -6995691.82944  21939611.3744   21939611.7714
  -4189434.09844  -3264491.37544  20660609.6744   20660609.1384
  -4144646.68844  -3229593.89544  21127065.3214   21127064.8874
   4840043.05444   3771462.53744  21671857.6074   21671858.0564
   5159772.009 4   4020600.434 4  22168678.559    22168677.120
   5137024.09644   4002874.87444  23029626.3934   23029626.7304
   6410477.74144                  25055557.5704
 96  2 22  1 15 30.0000000  0  8G 5G24G 4G 9G 7G12G 2G26
  -7474582.23544  -5824344.09044  23560890.7954   23560890.0004
  -9064535.15944  -7063270.62944  21923108.6934   21923109.0524
  -4209891.62644  -3280432.28644  20656716.7744   20656716.0344
  -4166822.38544  -3246873.65144  21122845.4334   21122844.9654
   4900570.74544   3818626.98344  21683375.8734   21683375.8954
   5234035.092 4   4078467.758 4  22182810.312    22182809.096
   5204931.96644   4055790.09044  23042547.8424   23042548.6264
   6482273.39444   5051121.12944  25069221.2024   25069224.8294
 96  2 22  1 16  0.0000000  0  8G 5G24G 4G 9G 7G12G 2G26
  -7557343.74644  -5888833.55444  23545142.3864   23545141.9224
  -9150953.84444  -7130609.84544  21906663.3084   21906663.8004
  -4229766.87444  -3295919.47244  20652934.6904   20652933.8994
  -4188438.18744  -3263717.13344  21118732.1114   21118731.5414
   4961233.75044   3865896.86244  21694919.5934   21694919.1564
   5308655.240 4   4136613.317 4  22197010.138    22197008.755
   5273109.89944   4108915.74444  23055521.3424   23055522.5094
   6554036.45544   5107040.36044  25082880.8694   25082882.9944
 96  2 22  1 16 30.0000000  0  8G 5G24G 4G 9G 7G12G 2G26
  -7640075.86244  -5953300.06344  23529399.0464   23529400.2624
  -9237035.64244  -7197686.54244  21890282.3574   21890282.9124
  -4249039.03044  -3310936.71344  20649267.3964   20649266.7494
  -4209485.58244  -3280117.69544  21114726.7624   21114726.3164
   5022055.68344   3913290.58344  21706493.5364   21706493.5984
   5383647.679 4   4195048.965 4  22211280.693    22211279.318
   5341565.24744   4162257.54744  23068548.9454   23068549.6764
   6625769.00444   5162935.76944  25096532.7984   25096533.6944
 96  2 22  1 17  0.0000000  0  8G 5G24G 4G 9G 7G12G 2G26
  -7722804.52944  -6017763.89144  23513656.2614   23513656.9414
  -9322804.55744  -7264519.44644  21873960.9914   21873961.6454
  -4267736.73644  -3325506.33644  20645709.1994   20645708.4454
  -4229993.50944  -3296097.89644  21110824.0794   21110823.5664
   5083014.19044   3960790.73644  21718093.7764   21718093.6194
   5458983.864 4   4253752.470 4  22225616.517    22225615.311
   5410266.18944   4215790.70344  23081622.5054   23081623.5994
   6697431.75744   5218776.86544  25110170.5354   25110170.1654
 96  2 22  1 17 30.0000000  0  8G 5G24G 4G 9G 7G12G 2G26
  -7805526.33844  -6082222.38144  23497914.9364   23497913.5174
  -9408230.53744  -7331085.11144  21857704.8514   21857705.6704
  -4285869.09844  -3339635.42544  20642258.4554   20642257.7324
  -4249958.02844  -3311654.66144  21107024.8974   21107024.2784
   5144083.30944   4008377.06744  21729715.0154   21729714.5524
   5534663.733 4   4312723.783 4  22240018.049    22240016.611
   5479212.73244   4269515.27244  23094742.2094   23094742.7804
   6769009.08244   5274551.42244  25123788.5854
 96  2 22  1 18  0.0000000  0  7G 5G24G 4G 9G 7G12G 2
  -7888253.13044  -6146684.81244  23482172.8014   23482172.2364
  -9493308.49644  -7397379.59944  21841515.1144   21841516.1814
  -4303441.20144  -3353327.94944  20638914.8554   20638914.1844
  -4269387.33844  -3326794.38344  21103327.7484   21103327.0524
   5205239.95144   4056031.60244  21741352.6704   21741352.4374
   5610683.424 4   4371959.892 4  22254484.183    22254482.593
   5548383.30844   4323414.41144  23107905.2564   23107906.8694
 96  2 22  1 18 30.0000000  0  7G 5G24G 4G 9G 7G12G 2
  -7970965.96644  -6211136.34744  23466432.7354   23466432.4724
  -9578021.27744  -7463389.53044  21825395.0044   21825395.4984
  -4320433.94944  -3366569.02944  20635680.9834   20635680.3694
  -4288256.17344  -3341497.36644  21099736.6724   21099736.7014
   5266490.21444   4103759.08344  21753008.2784   21753008.5824
   5687063.362 4   4431476.715 4  22269018.717    22269017.198
   5617789.18644   4377496.89244  23121113.0334   23121112.9884
 96  2 22  1 19  0.0000000  0  8G 5G24G 4G 9G 7G12G 2G26
  -8053661.30144  -6275574.18344  23450694.5954   23450697.1724
  -9662367.87244  -7529114.12444  21809343.6134   21809344.2604
  -4336841.37344  -3379354.01444  20632558.8804   20632557.9614
  -4306550.65844  -3355752.79844  21096255.5664   21096255.2124
   5327819.41144   4151548.07444  21764678.2174   21764679.3854
   5763809.306 4   4491278.736 4  22283623.075    22283621.579
   5687448.58944   4431776.92444  23134368.7984   23134369.3724
         0.12154         0.75654  25164571.1464   25164570.0334
 96  2 22  1 19 30.0000000  0  8G 5G24G 4G 9G 7G12G 2G26
  -8136340.17444  -6339999.20844  23434961.9704   23434963.4264
  -9746335.34544  -7594543.30744  21793365.5484   21793366.1104
  -4352648.71744  -3391671.40344  20629550.9164   20629550.2854
  -4324271.64744  -3369561.35844  21092883.6594   21092883.1504
   5389236.00644   4199405.16744  21776365.8294   21776366.0224
   5840922.678 4   4551367.062 4  22298297.312    22298295.880
   5757380.89044   4486269.61444  23147676.0474   23147676.5254
     71331.65644     55583.77644  25178145.5434   25178142.4564
 96  2 22  1 20  0.0000000  0  8G 5G24G 4G 9G 7G12G 2G26
  -8219054.78444  -6404452.12644  23419222.1024   23419221.0904
  -9829988.17744  -7659727.30944  21777446.8164   21777447.2534
  -4367890.94844  -3403548.44244  20626650.5204   20626649.6554
  -4341481.31844  -3382971.48744  21089608.8494   21089608.3974
   5450709.14944   4247306.32144  21788063.7464   21788063.2284
   5918343.804 4   4611695.201 4  22313029.932    22313028.811
   5827535.72544   4540935.69444  23161025.7174   23161026.5014
    142550.59744    111079.05644  25191697.3704   25191696.4764
 96  2 22  1 20 30.0000000  0  8G 5G24G 4G 9G 7G12G 2G26
  -8301772.89944  -6468907.77844  23403481.4144   23403479.7684
  -9913286.50544  -7724635.07344  21761595.7134   21761596.1694
  -4382541.78044  -3414964.65644  20623862.2954   20623861.2894
  -4358149.22544  -3395959.46244  21086437.0654   21086436.3534
   5512278.27644   4295282.26344  21799779.9184   21799780.0584
   5996096.691 4   4672281.856 4  22327825.829    22327824.691
   5897937.13744   4595793.93244  23174422.7444   23174423.1804
    213673.24544    166499.29244  25205230.2564   25205230.5004
 96  2 22  1 21  0.0000000  0  8G 5G24G 4G 9G 7G12G 2G26
  -8384452.22344  -6533333.11644  23387746.7764   23387747.8784
  -9996178.59444  -7789226.29044  21745821.5344   21745822.0554
  -4396551.06244  -3425880.95844  20621196.5294   20621195.5374
  -4374237.85944  -3408496.05644  21083375.1334   21083374.5424
   5574004.28444   4343380.45344  21811525.7934   21811525.6254
   6074217.158 4   4733154.938 4  22342691.805    22342690.434
   5968618.95744   4650870.66744  23187874.1774   23187874.4784
    284726.04144                  25218744.8274
 96  2 22  1 21 30.0000000  0  8G 5G24G 4G 9G 7G12G 2G26
  -8467088.84444  -6597725.32244  23372022.5284   23372023.7224
 -10078664.59644  -7853501.07444  21730125.3214   21730126.1654
  -4409926.41744  -3436303.29444  20618651.1424   20618650.3474
  -4389759.22044  -3420590.61644  21080421.9264   21080421.1764
   5635904.85544   4391614.66244  21823305.3664   21823305.4234
   6152697.810 4   4794308.681 4  22357626.175    22357624.652
   6039566.75844   4706154.66044  23201374.1754   23201374.3474
    355692.87544    277163.01544  25232251.6734   25232250.1714
 96  2 22  1 22  0.0000000  0  8G 5G24G 4G 9G 7G12G 2G26
  -8549674.95444  -6662078.06644  23356307.5204   23356307.0424
 -10160747.47144  -7917461.73244  21714505.5314   21714506.4824
  -4422678.53244  -3446239.99244  20616224.5644   20616223.8754
  -4404707.54644  -3432238.65844  21077577.1314   21077576.6634
   5697967.22944   4439974.95144  21835114.9814   21835115.2334
   6231538.319 4   4855742.838 4  22372629.015    22372627.692
   6110771.55044   4761638.92844  23214923.5484   23214923.9414
    426576.50844    332396.75944  25245743.4974   25245744.6354
 96  2 22  1 22 30.0000000  0  8G 5G24G 4G 9G 7G12G 2G26
  -8632285.17644  -6726449.60044  23340587.6204   23340587.3584
 -10242516.31244  -7981177.68544  21698945.2254   21698945.9114
  -4434896.73444  -3455760.64944  20613899.5104   20613898.9914
  -4419167.22344  -3443505.93444  21074825.5344   21074824.9544
   5760098.74144   4488389.11844  21846938.2894   21846938.3144
   6310658.655 4   4917395.043 4  22387685.074    22387683.680
   6182152.77444   4817260.65644  23228507.8984   23228508.7564
    497299.48044    387505.54344  25259203.6144   25259200.6624
 96  2 22  1 23  0.0000000  0  8G 5G24G 4G 9G 7G12G 2G26
  -8714866.70544  -6790798.79844  23324872.1014   23324872.4134
 -10323930.79944  -8044617.51944  21683452.6764   21683453.5544
  -4446529.61444  -3464825.21644  20611685.5854   20611685.0494
  -4433085.51544  -3454351.35344  21072176.8044   21072176.2684
   5822341.57644   4536890.03244  21858783.2464   21858783.2854
   6390109.527 4   4979304.804 4  22402804.071    22402802.634
   6253774.56144   4873069.81444  23242136.5114   23242139.4204
    567911.56544    442527.95944  25272641.6064   25272636.2534
 96  2 22  1 23 30.0000000  0  8G 5G24G 4G 9G 7G12G 2G26
  -8797397.14244  -6855108.17544  23309167.3484   23309166.5914
 -10404966.52944  -8107762.21244  21668031.8314   21668032.8344
  -4457562.62144  -3473422.34644  20609586.4444   20609585.6664
  -4446438.36744  -3464756.16744  21069635.9274   21069635.5464
   5884700.30944   4585481.25344  21870649.7334   21870649.3814
   6469914.649 4   5041490.600 4  22417990.483    22417989.130
   6325666.97144   4929089.88344  23255816.9614   23255817.7254
    638429.75944    497477.23344  25286058.9844   25286060.1764
 96  2 22  1 24  0.0000000  0  8G 5G24G 4G 9G 7G12G 2G26
  -8879883.85144  -6919383.47844  23293470.9314   23293470.6144
 -10485620.41144  -8170609.36844  21652684.0784   21652684.9954
  -4467995.99644  -3481552.23244  20607600.8424   20607599.8634
  -4459224.25144  -3474719.19044  21067203.0134   21067202.2984
   5947160.87444   4634151.82944  21882534.9974   21882535.4504
   6550068.522 4   5103948.147 4  22433243.241    22433241.666
   6397826.61344   4985318.17444  23269549.7744   23269550.4874
    708854.34344    552353.52244  25299456.0694
 96  2 22  1 24 30.0000000  0  8G 5G24G 4G 9G 7G12G 2G26
  -8962333.85344  -6983630.17744  23277780.7044   23277781.1124
 -10565891.51044  -8233158.24244  21637408.9004   21637409.4594
  -4477828.41944  -3489213.84344  20605730.0854   20605729.0694
  -4471442.71844  -3484240.06544  21064877.8444   21064877.1944
   6009724.46444   4682902.67544  21894440.7124   21894441.1754
   6630566.577 4   5166673.895 4  22448561.502    22448559.987
   6470249.40444   5041751.50144  23283330.7654   23283331.0724
    779180.24844                  25312836.7034
 96  2 22  1 25  0.0000000  0  8G 5G24G 4G 9G 7G12G 2G26
  -9044736.26744  -7047839.79344  23262099.6054   23262100.1314
 -10645733.81144  -8295372.99844  21622215.9354   21622216.5574
  -4487040.80944  -3496392.30644  20603976.7684   20603975.9084
  -4483057.06744  -3493290.20544  21062667.5664   21062667.0944
   6072410.12444   4731748.64944  21906369.6634   21906370.0584
   6711432.443 4   5229686.245 4  22463949.695    22463948.309
   6542963.99044   5098412.22544  23297168.0444   23297170.1214
    849432.66844    661894.87344  25326211.5274   25326212.2374
 96  2 22  1 25 30.0000000  0  8G 5G24G 4G 9G 7G12G 2G26
  -9127136.11644  -7112047.42544  23246419.7334   23246419.2804
 -10725183.38344  -8357281.72744  21607097.5984   21607097.9464
  -4495688.87444  -3503131.04144  20602331.3444   20602330.2374
  -4494108.23844  -3501901.49544  21060564.8014   21060564.2464
   6135170.15744   4780652.56344  21918312.2204   21918312.5454
   6792619.009 4   5292948.496 4  22479399.177    22479397.479
   6615922.18644   5155262.76244  23311051.0774   23311051.6634
    919566.42844    716544.53944  25339559.4484   25339557.6624
 96  2 22  1 26  0.0000000  0  8G 5G24G 4G 9G 7G12G 2G26
  -9209533.97044  -7176253.51344  23230740.0284   23230739.1134
 -10804264.79844  -8418903.58744  21592048.2864   21592048.7954
  -4503783.41544  -3509438.45544  20600790.5904   20600789.7464
  -4504603.56544  -3510079.67144  21058567.5624   21058567.0694
   6197993.23944   4829605.61044  21930267.4434   21930267.1054
   6874112.872 4   5356450.197 4  22494906.923    22494905.268
   6689105.88644   5212289.01044  23324977.9074   23324979.7764
    989566.73444    771090.25144  25352881.2494
 96  2 22  1 26 30.0000000  0  8G 5G24G 4G 9G 7G12G 2G26
  -9291918.41744  -7240449.16844  23215062.6024   23215062.5024
 -10882980.44744  -8480240.42844  21577069.2874   21577069.8654
  -4511301.51044  -3515296.69344  20599360.0944   20599359.1194
  -4514530.94944  -3517815.28644  21056678.2694   21056677.9494
   6260888.22244   4878614.69944  21942236.0174   21942235.7324
   6955927.971 4   5420202.209 4  22510475.949    22510474.372
   6762527.02644   5269500.27344  23338949.4034   23338949.8614
   1059445.23844                  25366177.9364
 96  2 22  1 27  0.0000000  0  7G 5G24G 4G 9G 7G12G 2
  -9374271.04844  -7304619.98744  23199391.3254   23199391.7094
 -10961320.83444  -8541284.85944  21562161.4584   21562161.7794
  -4518225.77444  -3520692.20544  20598042.4844   20598041.5324
  -4523880.65244  -3525100.77044  21054899.3814   21054898.8714
   6323867.39644   4927689.38444  21954220.2774   21954219.8334
   7038080.153 4   5484216.886 4  22526109.028    22526107.411
   6836199.67344   5326907.51344  23352968.8504   23352970.6474
 96  2 22  1 27 30.0000000  0  7G 5G24G 4G 9G 7G12G 2
  -9456589.03444  -7368763.83244  23183726.9134   23183726.6064
 -11039303.11044  -8602050.24144  21547321.6564   21547322.1504
  -4524548.38444  -3525618.89844  20596839.2794   20596838.4574
  -4532663.78244  -3531944.76344  21053227.9594   21053227.3524
   6386926.15944   4976826.08644  21966220.1484   21966219.6054
   7120563.041 4   5548489.254 4  22541805.005    22541803.326
   6910106.63444   5384497.33944  23367032.2604   23367033.6984
 96  2 22  1 28  0.0000000  0  7G 5G24G 4G 9G 7G12G 2
  -9538891.15944  -7432895.33444  23168065.9754   23168065.0084
 -11116935.57844  -8662543.04944  21532548.8044   21532549.2474
  -4530267.90644  -3530075.65144  20595750.8984   20595749.9394
  -4540898.57344  -3538361.48044  21051660.9204   21051660.3434
   6450048.29444   5026012.17344  21978231.7994   21978231.5204
   7203356.889 4   5613003.932 4  22557560.112    22557558.607
   6984223.97644   5442251.10344  23381136.6444   23381137.8344
 96  2 22  1 28 30.0000000  0  8G 5G24G 4G 9G 7G12G 2G26
  -9621156.87344  -7496998.47644  23152410.2804   23152410.3514
 -11194143.21744  -8722704.82444  21517856.7814   21517857.5114
  -4535346.60844  -3534033.06344  20594784.5284   20594783.3594
  -4548543.53944  -3544318.59044  21050206.0714   21050205.7374
   6513277.26844   5075281.51344  21990264.4094   21990263.3874
   7286503.570 4   5677793.547 4  22573382.314    22573380.919
   7058596.60544   5500203.78944  23395288.9924   23395289.4044
        -0.61254        -0.81954  25419174.0414
 96  2 22  1 29  0.0000000  0  8G 5G24G 4G 9G 7G12G 2G26
  -9703382.88144  -7561070.65544  23136764.1864   23136764.5334
 -11270901.71344  -8782516.60944  21503249.9984   21503250.5564
  -4539798.53744  -3537502.08544  20593937.0494   20593936.4224
  -4555597.21544  -3549814.95844  21048863.6754   21048863.4334
   6576616.58844   5124636.84644  22002317.1034   22002316.6494
   7369999.144 4   5742855.024 4  22589271.119    22589269.554
   7133234.35744   5558363.08344  23409491.7134   23409493.6394
     69427.64944     54099.17444  25432385.4424
 96  2 22  1 29 30.0000000  0  8G 5G24G 4G 9G 7G12G 2G26
  -9785582.84144  -7625122.53544  23121121.6424   23121121.8404
 -11347219.00544  -8841984.60244  21488727.1674   21488727.5524
  -4543640.55244  -3540495.84744  20593206.1504   20593205.3004
  -4562072.40444  -3554860.55744  21047631.4964   21047631.1144
   6640053.01444   5174067.82844  22014388.2574   22014388.3234
   7453818.239 4   5808168.597 4  22605221.379    22605219.795
   7208116.67144   5616712.92844  23423742.5664   23423743.0724
    138756.96044                  25445579.1464
 96  2 22  1 30  0.0000000  0  7G 5G24G 4G 9G 7G12G 2
  -9867735.55444  -7689137.60144  23105488.5034   23105487.5034
 -11423073.68544  -8901092.11044  21474292.8044   21474293.4124
  -4546871.51444  -3543013.46944  20592591.2234   20592590.4074
  -4567962.63444  -3559450.34844  21046510.5074   21046509.9494
   6703600.10344   5223585.05044  22026480.7294   22026481.0944
   7537967.808 4   5873739.686 4  22621234.537    22621232.805
   7283258.06544   5675264.64844  23438041.0334   23438041.0114
 96  2 22  1 30 30.0000000  0  7G 5G24G 4G 9G 7G12G 2
  -9949845.64044  -7753119.46944  23089863.0354   23089862.4044
 -11498500.60744  -8959866.30944  21459939.3174   21459940.2164
  -4549521.68844  -3545078.52544  20592087.0554   20592086.1874
  -4573299.90944  -3563609.26344  21045495.3704   21045494.7484
   6767236.60444   5273171.94744  22038590.4104   22038589.9594
   7622427.794 4   5939552.652 4  22637306.742    22637305.124
   7358643.26344   5734006.32344  23452385.9554   23452386.6394
 96  2 22  1 31  0.0000000  0  7G 5G24G 4G 9G 7G12G 2
 -10031896.99444  -7817055.55444  23074249.0704   23074249.0634
 -11573529.69044  -9018330.49544  21445661.7324   21445662.4984
  -4551590.42144  -3546690.51444  20591693.2454   20591692.4704
  -4578088.63744  -3567340.74144  21044583.9964   21044583.4674
   6830958.09944   5322825.06644  22050715.9534   22050716.0004
   7707187.430 4   6005599.117 4  22653435.973    22653434.447
   7434265.66544   5792932.88044  23466776.5944   23466778.0964
 96  2 22  1 31 30.0000000  0  7G 5G24G 4G 9G 7G12G 2
 -10113853.68944  -7880917.87144  23058653.1884   23058653.4654
 -11648145.27344  -9076472.47444  21431462.8544   21431463.4084
  -4553041.35244  -3547821.09544  20591417.1824   20591416.2394
  -4582292.66744  -3570616.60444  21043784.0844   21043783.5254
   6894783.73444   5372559.32844  22062862.3344   22062862.0474
   7792277.239 4   6071902.856 4  22669628.237    22669626.447
   7510145.59844   5852060.08744  23481216.0954   23481217.6954
 96  2 22  1 32  0.0000000  0  7G 5G24G 4G 9G 7G12G 2
 -10195732.52144  -7944719.49544  23043072.4064   23043072.1584
 -11722367.43144  -9134307.88644  21417338.5984   21417339.1554
  -4553898.84844  -3548489.26444  20591253.7294   20591253.0544
  -4585936.16544  -3573455.69244  21043090.3464   21043089.8974
   6958682.57844   5422350.64144  22075021.6124   22075021.2164
   7877682.967 4   6138452.767 4  22685880.359    22685878.571
   7586271.87044   5911379.27944  23495702.5994   23495704.2984
 96  2 22  1 32 30.0000000  0  7G 5G24G 4G 9G 7G12G 2
 -10277544.82144  -8008469.27744  23027504.0334   23027503.0214
 -11796202.35544  -9191841.56444  21403288.3944   21403289.1644
  -4554160.49344  -3548693.12944  20591204.0424   20591203.2934
  -4589010.06644  -3575850.94044  21042505.3804   21042504.8904
   7022655.23144   5472199.46844  22087195.7104   22087194.8144
   7963403.983 4   6205248.358 4  22702192.345    22702190.839
   7662649.27944   5970894.12144  23510236.8044   23510237.3354
 96  2 22  1 33  0.0000000  0  7G 5G24G 4G 9G 7G12G 2
 -10359318.59644  -8072189.04244  23011943.0104   23011942.6024
 -11869654.14144  -9249076.68644  21389310.7804   21389311.5284
  -4553834.13344  -3548438.81044  20591266.3184   20591265.1554
  -4591511.83644  -3577800.36944  21042029.4724   21042029.0504
   7086685.37844   5522093.09944  22099379.7884   22099379.2064
   8049426.703 4   6272279.044 4  22718561.879    22718560.249
   7739261.19744   6030591.71744  23524815.7554   23524817.0784
 96  2 22  1 33 30.0000000  0  7G 5G24G 4G 9G 7G12G 2
 -10441063.93144  -8135886.66844  22996387.2394   22996386.2104
 -11942716.53944  -9306008.39244  21375407.6284   21375407.9634
  -4552925.63544  -3547730.87444  20591439.1734   20591438.1794
  -4593457.67144  -3579316.60644  21041659.3764   21041658.7754
   7150760.79244   5572021.98944  22111572.5744   22111572.5544
   8135746.445 4   6339541.167 4  22734987.931    22734986.232
   7816096.62444   6090463.47244  23539436.9634   23539437.2894
 96  2 22  1 34  0.0000000  0  7G 5G24G 4G 9G 7G12G 2
 -10522777.31744  -8199559.39244  22980837.7324   22980837.6234
 -12015367.17444  -9362619.24144  21361582.8454   21361583.4504
  -4551426.75444  -3546562.90144  20591724.3674   20591723.3104
  -4594846.21944  -3580398.59244  21041395.0244   21041394.4874
   7214903.70044   5622003.47644  22123778.3174   22123778.9044
   8222370.374 4   6407040.326 4  22751472.036    22751470.424
   7893162.27644   6150514.63644  23554102.2924   23554101.7944
 96  2 22  1 34 30.0000000  0  7G 5G24G 4G 9G 7G12G 2
 -10604462.06444  -8263209.78644  22965292.9024   22965293.2794
 -12087591.91944  -9418898.23544  21347838.5844   21347839.2684
  -4549324.06144  -3544924.42544  20592124.5134   20592123.7654
  -4595665.58644  -3581037.05944  21041239.1654   21041238.7144
   7279137.41844   5672055.71444  22136001.6904   22136001.9834
   8309306.728 4   6474782.928 4  22768015.420    22768013.833
   7970464.13844   6210749.84844  23568812.6904   23568813.7574
 96  2 22  1 35  0.0000000  0  7G 5G24G 4G 9G 7G12G 2
 -10686112.81344  -8326833.68844  22949755.2794   22949755.3744
 -12159378.92144  -9474836.12244  21334177.8434   21334178.5164
  -4546615.48044  -3542813.82244  20592639.8944   20592638.8634
  -4595921.87544  -3581236.76244  21041190.3384   21041189.4084
   7343461.22644   5722178.15644  22148242.4894   22148242.5954
   8396560.827 4   6542773.126 4  22784619.196    22784617.747
   8048001.85344   6271168.83144  23583566.5474   23583567.4874
 96  2 22  1 35 30.0000000  0  7G 5G24G 4G 9G 7G12G 2
 -10767714.46344  -8390419.34144  22934227.1544   22934226.7284
 -12230724.77944  -9530430.26944  21320601.0844   21320601.6624
  -4543309.23644  -3540237.51244  20593268.9564   20593268.0874
  -4595610.43244  -3580994.08244  21041249.5814   21041249.0864
   7407882.58744   5772376.61944  22160501.4604   22160501.1044
   8484134.896 4   6611012.652 4  22801284.102    22801282.810
   8125788.44244   6331781.75444  23598369.1964   23598370.9554
 96  2 22  1 36  0.0000000  0  7G 5G24G 4G 9G 7G12G 2
 -10849269.27244  -8453968.51544  22918707.7514   22918706.9434
 -12301628.18644  -9585679.64644  21307108.7844   21307109.2914
  -4539413.81444  -3537202.10244  20594010.2524   20594009.3024
  -4594724.70144  -3580303.89744  21041418.0014   21041417.4454
   7472404.43844   5822653.38844  22172779.3084   22172778.8014
   8572027.067 4   6679500.048 4  22818009.454    22818008.078
   8203833.67044   6392596.21144  23613221.0844   23613222.6674
 96  2 22  1 36 30.0000000  0  7G 5G24G 4G 9G 7G12G 2
 -10930772.01644  -8517477.11244  22903198.5304   22903198.8374
 -12372100.02544  -9640592.73844  21293698.6674   21293699.2954
  -4534934.16844  -3533711.45044  20594862.7204   20594861.8764
  -4593267.32144  -3579168.27544  21041695.2134   21041694.7724
   7537011.86244   5872996.84744  22185074.2214   22185073.9044
   8660230.980 4   6748230.363 4  22834794.112    22834792.519
   8282143.02144   6453616.47244  23628122.7954   23628123.8124
 96  2 22  1 37  0.0000000  0  7G 5G24G 4G 9G 7G12G 2
 -11012183.66344  -8580914.71444  22887706.1644   22887705.7544
 -12442125.80644  -9695158.25144  21280373.1874   21280373.6984
  -4529856.66944  -3529754.94444  20595828.7334   20595827.7484
  -4591210.11444  -3577565.25444  21042086.7014   21042086.1884
   7601710.83244   5923411.62944  22197385.5474   22197385.8634
   8748759.052 4   6817213.266 4  22851640.390    22851638.812
   8360732.82244   6514855.27244  23643077.2524   23643078.4554
 96  2 22  1 37 30.0000000  0  7G 5G24G 4G 9G 7G12G 2
 -11093515.99744  -8644290.51744  22872229.9244   22872229.2854
 -12511720.84444  -9749388.12544  21267129.7504   21267130.1704
  -4524196.91944  -3525344.73544  20596905.5844   20596904.8804
  -4588564.49944  -3575503.73644  21042590.3164   21042589.8344
   7666485.64144   5973885.51544  22209711.6994   22209712.1534
   8837589.070 4   6886431.455 4  22868544.127    22868542.703
   8439582.78544   6576296.81444  23658083.4584   23658084.4534
 96  2 22  1 38  0.0000000  0  7G 5G24G 4G 9G 7G12G 2
 -11174798.02744  -8707627.15444  22856761.8154   22856760.7784
 -12580900.83844  -9803294.58644  21253965.0304   21253965.5424
  -4517971.60744  -3520493.82944  20598090.4074   20598089.4614
  -4585363.11544  -3573009.14844  21043199.5824   21043198.9634
   7731315.18244   6024402.03944  22222048.0464   22222047.8504
   8926693.730 4   6955863.652 4  22885500.224    22885498.885
   8518655.69344   6637912.02944  23673129.9024   23673128.6994
 96  2 22  1 38 30.0000000  0  7G 5G24G 4G 9G 7G12G 2
 -11256031.87144  -8770926.22544  22841303.2004   22841303.7444
 -12649670.87844  -9856881.60144  21240878.2804   21240879.1474
  -4511181.33644  -3515202.69744  20599382.7644   20599381.7414
  -4581600.08444  -3570076.91444  21043915.5644   21043915.0494
   7796196.42844   6074958.85744  22234394.7244   22234394.2614
   9016071.617 4   7025508.751 4  22902508.393    22902506.912
   8597943.57344   6699694.79744  23688217.6344   23688217.7454
 96  2 22  1 39  0.0000000  0  7G 5G24G 4G 9G 7G12G 2
 -11337213.99844  -8834184.98344  22825854.8404   22825855.0854
 -12718006.58444  -9910130.18044  21227874.5254   21227875.1714
  -4503817.77144  -3509464.83844  20600783.9954   20600782.9054
  -4577262.95944  -3566697.33344  21044741.0134   21044740.4124
   7861137.66144   6125562.42644  22246753.1264   22246752.5784
   9105732.420 4   7095374.302 4  22919570.447    22919568.774
   8677449.17044   6761647.17944  23703347.5394   23703348.1494
 96  2 22  1 39 30.0000000  0  7G 5G24G 4G 9G 7G12G 2
 -11418350.58144  -8897408.27144  22810414.9124   22810415.1314
 -12785901.05744  -9963034.94044  21214954.5334   21214955.0144
  -4495876.77744  -3503277.03844  20602295.1224   20602294.0974
  -4572370.89844  -3562885.33744  21045671.6474   21045671.2274
   7926142.84944   6176215.83844  22259122.9754   22259123.2794
   9195673.687 4   7165458.404 4  22936685.764    22936684.078
   8757169.72644   6823767.10144  23718516.6164   23718519.8344
 96  2 22  1 40  0.0000000  0  7G 5G24G 4G 9G 7G12G 2
 -11499436.73044  -8960592.26344  22794984.8164   22794985.1944
 -12853342.86644 -10015586.97644  21202120.9624   21202121.4674
  -4487357.45044  -3496638.59144  20603916.3574   20603915.3144
  -4566925.21544  -3558641.94744  21046708.3614   21046707.6254
   7991212.12744   6226919.18444  22271505.4254   22271505.0094
   9285898.650 4   7235763.560 4  22953855.103    22953853.218
   8837102.50544   6886052.37244  23733727.4314
 96  2 22  1 40 30.0000000  0  7G 5G24G 4G 9G 7G12G 2
 -11580438.61644  -9023710.59344  22779570.8354   22779570.4104
 -12920300.79044 -10067761.96244  21189379.2644   21189379.7244
  -4478240.84044  -3489534.72844  20605650.9234   20605650.1154
  -4560906.73844  -3553952.22144  21047853.4324   21047852.8304
   8056357.28544   6277681.64944  22283901.9844   22283901.6634
   9376430.186 4   7306307.609 4  22971082.491    22971080.652
   8917276.75344   6948525.81744  23748984.4794   23748980.5024
 96  2 22  1 41  0.0000000  0  7G 5G24G 4G 9G 7G12G 2
 -11661332.34744  -9086744.64844  22764178.0414   22764176.7654
 -12986757.35644 -10119546.28144  21176733.2574   21176733.6534
  -4468502.10444  -3481946.08844  20607504.2064   20607503.2944
  -4554319.08444  -3548818.98744  21049107.1544   21049106.5614
   8121597.25444   6328518.00544  22296316.4354   22296315.3694
   9467274.308 4   7377095.226 4  22988369.455    22988367.865
   8997700.35944   7011193.55744  23764289.0294
 96  2 22  1 41 30.0000000  0  7G 5G24G 4G 9G 7G12G 2
 -11742174.60344  -9149738.58944  22748794.9474   22748793.8884
 -13052781.26244 -10170993.45744  21164169.1904   21164169.5684
  -4458195.71444  -3473915.12544  20609465.5684   20609464.4614
  -4547228.12944  -3543293.56244  21050456.2074   21050455.8864
   8186878.10744   6379386.21444  22308739.2064   22308739.4724
   9558368.192 4   7448077.465 4  23005703.984    23005702.718
   9078309.14944                  23779628.7754
 96  2 22  1 42  0.0000000  0  7G 5G24G 4G 9G 7G12G 2
 -11822956.12744  -9212685.20844  22733422.1264   22733421.9194
 -13118359.92244 -10222093.69544  21151690.0974   21151690.5774
  -4447313.05644  -3465435.11644  20611536.1294   20611535.0484
  -4539598.92144  -3537348.72544  21051908.1204   21051907.5004
   8252211.70844   6430295.51944  22321171.7824   22321171.7824
   9649726.074 4   7519265.416 4  23023088.810    23023087.539
   9159128.23144                  23795008.4804
 96  2 22  1 42 30.0000000  0  7G 5G24G 4G 9G 7G12G 2
 -11903703.90544  -9275605.51844  22718055.9904   22718056.0164
 -13183543.55244 -10272886.11244  21139286.1614   21139286.4104
  -4435869.63744  -3456518.15244  20613713.9834   20613712.8924
  -4531441.25944  -3530992.10444  21053460.4584   21053459.9774
   8317571.85744   6481225.51244  22333609.1464   22333609.2064
   9741317.362 4   7590635.242 4  23040518.125    23040516.596
   9240147.98944                  23810423.7524
 96  2 22  1 43  0.0000000  0  7G 5G24G 4G 9G 7G12G 2
 -11984424.81244  -9338504.90744  22702695.3224   22702694.3714
 -13248337.48844 -10323374.87344  21126955.9884   21126956.4534
  -4423851.02844  -3447152.98844  20616000.8084   20615999.9564
  -4522727.15044  -3524201.89044  21055118.7104   21055118.2334
   8382972.04944   6532186.70844  22346055.5784   22346055.1594
   9833148.204 4   7662191.729 4  23057993.066    23057991.494
   9321373.38844                  23825880.1144
 96  2 22  1 43 30.0000000  0  8G 5G24G 4G 9G 7G12G 2G20
 -12065105.07544  -9401372.63544  22687341.8414   22687341.6534
 -13312713.24244 -10373537.78344  21114705.8864   21114706.1304
  -4411262.04644  -3437343.38344  20618396.7144   20618395.6104
  -4513423.55544  -3516952.33644  21056889.1144   21056888.6324
   8448423.39844   6583187.77344  22358509.8454   22358510.0964
   9925237.719 4   7733949.774 4  23075517.118    23075515.580
   9402828.78844                  23841382.6544
        -0.24954         0.46754  25200707.6314   25200712.5954
 96  2 22  1 44  0.0000000  0  8G 5G24G 4G 9G 7G12G 2G20
 -12145706.55044  -9464178.95044  22672003.9154   22672002.8594
 -13376643.77744 -10423353.76444  21102540.0724   21102540.5304
  -4398085.74444  -3427076.12244  20620904.0484   20620902.9784
  -4503497.74144  -3509217.93644  21058777.9894   21058777.6374
   8513941.86844   6634241.12044  22370977.3774   22370977.7554
  10017612.371 4   7805930.016 4  23093095.438    23093093.632
   9484544.07644                  23856932.4024
    -95485.98044                  25182535.7294
 96  2 22  1 44 30.0000000  0  8G 5G24G 4G 9G 7G12G 2G20
 -12226190.33744  -9526893.55544  22656688.8534   22656688.2654
 -13440098.53944 -10472799.01344  21090465.2134   21090465.5014
  -4384297.01444  -3416331.64544  20623527.8554   20623526.7434
  -4492949.22644  -3500998.31544  21060785.3584   21060784.6664
   8579547.53444   6685362.41144  22383461.7754   22383461.5854
  10110300.847 4   7878154.795 4  23110733.476    23110731.787
   9566540.14544                  23872535.3284
   -190990.13544                  25164361.7254
 96  2 22  1 45  0.0000000  0  8G 5G24G 4G 9G 7G12G 2G20
 -12306569.05144  -9589526.29944  22641392.9834   22641392.0764
 -13503068.94644 -10521866.84544  21078482.1554   21078482.3214
  -4369926.44044  -3405133.77944  20626262.4974   20626261.4954
  -4481824.48544  -3492329.68544  21062902.2164   21062901.8464
   8645220.52944   6736536.17944  22395959.2394   22395959.2054
  10203286.528 4   7950611.151 4  23128428.054    23128426.482
   9648795.82044                  23888185.8584
   -286536.63544                  25146179.0454
 96  2 22  1 45 30.0000000  0  8G 5G24G 4G 9G 7G12G 2G20
 -12386778.98144  -9652027.51544  22626129.3054   22626128.5184
 -13565504.15244 -10570517.63644  21066600.7394   21066601.3414
  -4354930.87344  -3393448.91044  20629116.0664   20629115.2204
  -4470095.71344  -3483190.38644  21065134.2004   21065133.6724
   8711008.43544   6787799.49044  22408477.9624   22408478.2094
  10296613.677 4   8023333.595 4  23146187.594    23146186.134
   9731351.57044                  23903898.4224
   -382081.24144                  25128000.7684
 96  2 22  1 46  0.0000000  0  7G 5G24G 4G 9G 7G12G20
 -12466840.51444  -9714413.09344  22610893.8524   22610893.5124
 -13627437.13744 -10618777.08444  21054815.5124   21054816.0584
  -4339320.68244  -3381285.11144  20632086.3584   20632085.6744
  -4457784.99444  -3473597.62644  21067476.6814   21067476.3714
   8776894.06144   6839138.94544  22421016.0524   22421015.3514
  10390261.820 4   8096306.169 4  23164008.198    23164006.529
   -477626.62244                  25109819.1204
 96  2 22  1 46 30.0000000  0  7G 5G24G 4G 9G 7G12G20
 -12546796.19144  -9776716.18444  22595678.7444   22595678.4584
 -13688879.80844 -10666654.47344  21043123.2964   21043123.7604
  -4323118.45144  -3368659.98444  20635169.5664   20635168.3324
  -4444917.35344  -3463570.89644  21069925.3234   21069924.7644
   8842857.14444   6890538.76244  22433568.2034   22433568.1504
  10484198.744 4   8169503.761 4  23181883.722    23181882.201
   -573191.03344                  25091632.1674
 96  2 22  1 47  0.0000000  0  7G 5G24G 4G 9G 7G12G 2
 -12626650.05244  -9838939.93644  22580482.8744   22580482.6064
 -13749838.15344 -10714154.46244  21031523.1974   21031523.6294
  -4306340.32144  -3355586.10444  20638362.2894   20638361.2074
  -4431473.48144  -3453095.16044  21072483.7544   21072483.2944
   8908899.95344   6942000.69044  22446135.2094   22446136.1104
  10578410.284 4   8242915.337 4  23199811.596    23199810.083
        -0.43654                  23951336.9134
 96  2 22  1 47 30.0000000  0  7G 5G24G 4G 9G 7G12G20
 -12706421.67444  -9901099.62444  22565303.2694   22565303.3484
 -13810329.80444 -10761290.79344  21020012.2134   21020012.4984
  -4289013.21644  -3342084.45044  20641659.6664   20641658.7404
  -4417456.37044  -3442172.73844  21075151.3154   21075150.8754
   8974994.38144   6993502.84544  22458712.7104   22458712.3124
  10672875.531 4   8316524.612 4  23217787.646    23217786.293
         0.22854         0.57154  25055243.0524   25055242.5234
 96  2 22  1 48  0.0000000  0  7G 5G24G 4G 9G 7G12G20
 -12786129.93744  -9963209.93544  22550135.0504   22550134.7514
 -13870353.79544 -10808062.71644  21008590.1414   21008590.5874
  -4271152.05944  -3328166.65244  20645058.4814   20645057.4864
  -4402871.61844  -3430808.00344  21077926.5114   21077925.9664
   9041124.10744   7045032.50944  22471296.8704   22471297.2294
  10767583.434 4   8390322.972 4  23235810.048    23235808.716
    -95693.69244    -74566.11844  25037033.4484   25037030.8944
 96  2 22  1 48 30.0000000  0  7G 5G24G 4G 9G 7G12G20
 -12865756.01744 -10025256.19144  22534983.1784   22534982.2394
 -13929880.39544 -10854447.06644  20997262.6124   20997262.9244
  -4252733.50744  -3313814.52344  20648563.3554   20648562.4254
  -4387708.27244  -3418992.41144  21080811.7304   21080811.5034
   9107298.00844   7096596.58144  22483888.9724   22483889.2044
  10862550.543 4   8464323.307 4  23253881.909    23253880.263
   -191432.44944   -149167.74044  25018815.5874
 96  2 22  1 49  0.0000000  0  7G 9G 5G 7G12G24G 4G20
  -4372040.68944  -3406783.90744  21083793.1594   21083792.8544
 -12945353.07344 -10087279.84344  22519836.4834   22519835.7574
   9173453.17144   7148146.07444  22496478.6344   22496478.1274
  10957721.615 4   8538482.569 4  23271992.118    23271990.719
 -13988978.41844 -10900497.45244  20986016.4294   20986016.4634
  -4233807.42944  -3299066.92044  20652164.9524   20652163.9374
   -287289.14944                  25000574.6364
 96  2 22  1 49 30.0000000  0  7G 9G 5G 7G12G24G 4G20
  -4355909.64144  -3394214.26644  21086863.0954   21086862.6234
 -13024963.45144 -10149313.87944  22504686.7814   22504686.1664
   9239561.17244   7199658.80344  22509058.2624   22509058.2524
  11053071.492 4   8612781.174 4  23290136.544    23290135.325
 -14047669.48644 -10946230.73244  20974848.0584   20974848.2854
  -4214376.21944  -3283925.70744  20655862.5544   20655861.3524
   -383296.29344                  24982302.6864
 96  2 22  1 50  0.0000000  0  7G 9G 5G 7G12G20G24G 4
  -4339261.47444  -3381241.66944  21090031.1104   21090030.6124
 -13104525.54144 -10211310.28644  22489546.6374   22489545.8894
   9305691.86344   7251189.21644  22521642.3144   22521642.2344
  11148652.188 4   8687259.624 4  23308325.287    23308323.762
   -479384.85444   -373546.02244  24964019.3144   24964017.7314
 -14105912.11144 -10991614.57944  20963764.9964   20963765.0874
  -4194369.10444  -3268335.73744  20659669.7184   20659668.6424
 96  2 22  1 50 30.0000000  0  7G 9G 5G 7G12G24G 4G20
  -4322037.06844  -3367820.05944  21093309.0534   21093308.5154
 -13183954.41444 -10273202.89044  22474431.9324   22474431.4044
   9371918.95044   7302794.74644  22534245.2234   22534244.5854
  11244529.511 4   8761969.215 4  23326569.839    23326568.674
 -14163654.32444 -11036608.49644  20952776.7524   20952776.9124
  -4173710.27044  -3252237.93744  20663601.1714   20663600.0684
   -575483.93544   -448428.31744  24945735.0364
 96  2 22  1 51  0.0000000  0  7G 9G 5G 7G24G 4G12G20
  -4304226.01744  -3353941.32444  21096698.0574   21096697.5844
 -13263234.73444 -10334979.74044  22459345.0134   22459344.7354
   9438254.74244   7354484.96544  22546868.2734   22546868.7494
 -14220894.40444 -11081211.13544  20941884.5034   20941884.5514
  -4152401.28744  -3235633.52544  20667656.0814   20667654.7324
  11340704.362 4   8836910.659 4  23344871.287    23344870.136
   -671587.19044                  24927450.4294
 96  2 22  1 51 30.0000000  0  7G 9G 5G 7G12G24G 4G20
  -4285879.12944  -3339645.04944  21100189.3014   21100188.6714
 -13342411.32144 -10396675.75144  22444278.2304   22444278.2614
   9504638.43844   7406212.52944  22559500.5734   22559499.7994
  11437105.658 4   8912028.555 4  23363215.959    23363214.614
 -14277691.18844 -11125468.35344  20931076.2534   20931076.6384
  -4130530.70644  -3218591.49644  20671817.8174   20671816.9474
   -767746.62344                  24909149.0364
 96  2 22  1 52  0.0000000  0  7G 9G 5G 7G12G20G24G 4
  -4266939.74744  -3324887.08944  21103793.4674   21103792.9464
 -13421405.17044 -10458229.38044  22429246.5454   22429246.2254
   9571128.95644   7458023.32944  22572153.4354   22572153.2364
  11533788.184 4   8987365.569 4  23381614.334    23381612.727
   -863903.44844   -673170.61244  24890848.5984   24890845.4444
 -14333984.88844 -11169333.55744  20920363.6804   20920364.1144
  -4108065.02744  -3201085.76044  20676093.0504   20676091.8804
 96  2 22  1 52 30.0000000  0  7G 9G 5G 7G12G24G 4G20
  -4247408.04144  -3309667.58144  21107510.1144   21107509.8224
 -13500234.77244 -10519655.02144  22414245.6404   22414244.8544
   9637718.43244   7509911.24244  22584824.9384   22584824.7354
  11630748.524 4   9062919.065 4  23400065.116    23400063.671
 -14389760.08344 -11212794.73144  20909750.2544   20909750.4654
  -4085013.22344  -3183123.30144  20680479.3864   20680478.5854
   -960075.70144   -748109.95044  24872546.4904   24872544.2014
 96  2 22  1 53  0.0000000  0  7G 9G 5G 7G12G20G24G 4
  -4227309.85544  -3294006.66444  21111334.9614   21111334.3474
 -13578951.63144 -10580992.80644  22399266.5704   22399265.9744
   9704366.92044   7561845.12844  22597508.1164   22597507.9894
  11727946.567 4   9138657.799 4  23418561.252    23418559.643
  -1056294.16444   -823085.32444  24854235.9634   24854236.0914
 -14445038.55644 -11255868.84344  20899230.5814   20899230.9874
  -4061427.23744  -3164744.60044  20684967.5104   20684966.7134
 96  2 22  1 53 30.0000000  0  7G 9G 5G 7G12G24G 4G20
  -4206644.06644  -3277903.45644  21115267.6604   21115267.0024
 -13657557.13844 -10642243.81644  22384308.4284   22384307.9244
   9771082.69144   7613831.45944  22610203.4444   22610203.0594
  11825391.017 4   9214588.521 4  23437104.356    23437102.738
 -14499804.76644 -11298543.79644  20888809.2004   20888809.5124
  -4037301.62044  -3145945.40244  20689558.6844   20689557.6514
  -1152547.02244   -898087.46344  24835919.6824   24835917.7654
 96  2 22  1 54  0.0000000  0  7G 9G 5G 7G12G20G24G 4
  -4185424.35144  -3261368.61944  21119305.4314   21119304.8634
 -13736076.01244 -10703427.32944  22369366.4364   22369365.3874
   9837861.35244   7665866.77844  22622910.4394   22622911.0684
  11923076.057 4   9290706.718 4  23455693.180    23455691.679
  -1248848.80544   -973127.76644  24817593.0534   24817589.0234
 -14554070.76844 -11340828.97444  20878482.6484   20878483.0134
  -4012629.81244  -3126720.60744  20694253.4524   20694252.4564
 96  2 22  1 54 30.0000000  0  7G 9G 5G 7G24G 4G12G20
  -4163656.48244  -3244406.64244  21123447.5314   21123447.0564
 -13814528.57244 -10764559.16544  22354437.1554   22354436.8294
   9904689.81344   7717940.90544  22635627.5744   22635627.5884
 -14607849.26244 -11382734.27444  20868248.9264   20868249.1644
  -3987418.52044  -3107075.43044  20699051.1524   20699050.2184
  12020991.816 4   9367004.707 4  23474325.883    23474324.478
  -1345214.57844  -1048217.97844  24799254.1024   24799255.1974
 96  2 22  1 55  0.0000000  0  7G 9G 5G 7G12G20G24G 4
  -4141345.50844  -3227021.47044  21127693.4344   21127693.0314
 -13892894.62144 -10825623.59944  22339524.6694   22339524.0614
   9971556.47944   7770044.79044  22648352.3684   22648352.3554
  12119137.143 4   9443481.567 4  23493002.237    23493000.847
  -1441641.60644  -1123355.80744  24780905.2954   24780906.2454
 -14661137.96644 -11424257.92244  20858108.3714   20858108.8444
  -3961671.42544  -3087012.74544  20703950.3794   20703949.4574
 96  2 22  1 55 30.0000000  0  7G 9G 5G 7G12G20G24G 4
  -4118500.16044  -3209219.90044  21132040.4434   21132040.0494
 -13971166.23144 -10886614.43044  22324630.2814   22324629.8854
  10038461.46744   7822178.54544  22661084.4174   22661083.0334
  12217508.391 4   9520134.473 4  23511721.916    23511720.497
  -1538141.05844  -1198550.04144  24762543.3864   24762543.5144
 -14713942.01544 -11465403.91244  20848060.3764   20848060.8074
  -3935374.57444  -3066521.68044  20708954.7774   20708953.6114
 96  2 22  1 56  0.0000000  0  7G 9G 5G 7G12G20G24G 4
  -4095114.01444  -3190996.93244  21136490.4074   21136489.9444
 -14049330.38744 -10947521.53444  22309756.0594   22309755.6544
  10105399.50344   7874338.07244  22673821.9274   22673820.8504
  12316101.387 4   9596960.174 4  23530483.540    23530482.014
  -1634716.84444  -1273803.82544  24744164.1104   24744166.5854
 -14766265.11244 -11506175.14144  20838103.6944   20838103.9384
  -3908521.55144  -3045597.23544  20714064.6044   20714063.5504
 96  2 22  1 56 30.0000000  0  7G 9G 5G 7G12G20G24G 4
  -4071186.85244  -3172352.39444  21141044.0844   21141043.5224
 -14127381.10244 -11008340.25644  22294903.1174   22294902.6344
  10172350.63744   7926507.79944  22686562.0954   22686561.3334
  12414908.781 4   9673952.933 4  23549286.054    23549284.419
  -1731356.69044  -1349107.59544  24725772.5414   24725774.8654
 -14818105.32944 -11546570.09744  20828238.5874   20828238.9154
  -3881113.89544  -3024240.60744  20719280.2464   20719278.8764
 96  2 22  1 57  0.0000000  0  7G 9G 5G 7G12G20G24G 4
  -4046702.40144  -3153273.60544  21145703.4474   21145702.9944
 -14205288.24344 -11069047.11044  22280077.3574   22280077.0514
  10239340.55144   7978707.72644  22699310.0004   22699309.7954
  12513948.336 4   9751126.594 4  23568132.712    23568130.962
  -1828018.84244  -1424428.68744  24707377.7384   24707377.2774
 -14869437.85744 -11586569.45144  20818470.5234   20818470.8844
  -3853121.67044  -3002428.46844  20724606.8204   20724605.7434
 96  2 22  1 57 30.0000000  0  7G 9G 5G 7G12G20G24G 4
  -4021666.89844  -3133765.42644  21150467.4374   21150467.0134
 -14283059.16944 -11129647.82044  22265278.5074   22265277.5304
  10306381.18744   8030947.18744  22712066.8594   22712067.2934
  12613211.580 4   9828474.561 4  23587021.856    23587020.121
  -1924700.82244  -1499765.26844  24688978.9804   24688981.8834
 -14920282.38944 -11626188.55144  20808794.9944   20808795.2284
  -3824557.18844  -2980170.42244  20730042.3304   20730041.5004
 96  2 22  1 58  0.0000000  0  7G 9G 5G 7G12G20G24G 4
  -3996058.77744  -3113811.05444  21155340.3884   21155339.7314
 -14360681.07344 -11190132.39744  22250508.0464   22250507.4804
  10373481.55144   8083233.19044  22724836.4594   22724834.9374
  12712718.365 4   9906012.308 4  23605957.306    23605955.830
  -2021367.34444  -1575089.77844  24670583.4904
 -14970616.77944 -11665410.13344  20799216.5854   20799216.9074
  -3795416.09544  -2957463.06144  20735587.6294   20735586.3694
 96  2 22  1 58 30.0000000  0  7G 9G 5G 7G12G20G24G 4
  -3969906.59544  -3093432.73444  21160317.1724   21160316.6604
 -14438190.34244 -11250529.20444  22235758.3544   22235757.5084
  10440616.86344   8135546.41444  22737611.9664   22737611.9344
  12812438.668 4   9983716.434 4  23624933.543    23624931.938
  -2118034.52244  -1650414.77844  24652189.1204   24652191.3144
 -15020472.53244 -11704258.75244  20789729.5314   20789729.7604
  -3765738.10944  -2934337.34744  20741235.2194   20741234.1564
 96  2 22  1 59  0.0000000  0  7G 5G 9G 7G12G20G24G 4
 -14515607.00444 -11310853.86044  22221026.7304   22221025.6164
  -3943224.99644  -3072641.87544  21165394.7864   21165394.4194
  10507784.18844   8187884.59544  22750393.0084   22750392.6144
  12912350.330 4  10061569.662 4  23643945.916    23643944.459
  -2214732.85144  -1725764.03544  24633789.0974   24633788.9084
 -15069869.39644 -11742749.79644  20780329.5704   20780329.7374
  -3735560.89844  -2910822.62744  20746977.7844   20746976.7154
 96  2 22  1 59 30.0000000  0  7G 5G 9G 7G12G20G24G 4
 -14592852.09844 -11371044.82444  22206327.0964   22206326.6124
  -3915915.11144  -3051361.45244  21170591.1394   21170590.6054
  10575062.60144   8240309.33044  22763195.7174   22763195.0654
  13012541.819 4  10139640.940 4  23663011.631    23663010.221
  -2311384.30244  -1801076.83744  24615397.4024   24615396.7964
 -15118715.90544 -11780811.99044  20771034.2644   20771034.7164
  -3704796.48744  -2886850.34744  20752832.0994   20752830.8824
 96  2 22  2  0  0.0000000  0  7G 5G 9G 7G12G20G24G 4
 -14669998.53144 -11431158.91444  22191646.7244   22191646.3184
  -3888040.40244  -3029640.90044  21175895.7884   21175895.2154
  10642377.57444   8292762.55244  22776005.7224   22776004.4334
  13112947.835 4  10217879.389 4  23682118.328    23682116.971
  -2408065.12944  -1876412.50544  24597000.4534   24596999.2514
 -15167058.99044 -11818481.90544  20761834.8314   20761835.2424
  -3673505.36944  -2862467.64744  20758786.7614   20758785.5024
 96  2 22  2  0 30.0000000  0  7G 5G 9G 7G12G20G24G 4
 -14747054.34144 -11491202.39544  22176983.0014   22176982.9474
  -3859627.20044  -3007500.74744  21181302.8784   21181302.2574
  10709712.68644   8345231.49144  22788818.3354   22788818.0924
  13213546.241 4  10296267.750 4  23701261.666    23701260.173
  -2504810.87844  -1951798.73844  24578589.7654   24578588.6374
 -15214911.93544 -11855769.89544  20752728.6824   20752728.9464
  -3641701.66844  -2837685.53244  20764838.5624   20764837.2944
 96  2 22  2  1  0.0000000  0  7G 5G 9G 7G12G20G24G 4
 -14824024.26944 -11551178.94344  22162336.9644   22162336.5944
  -3830696.87344  -2984957.63844  21186807.8234   21186807.2424
  10777052.02544   8397703.71244  22801632.3654   22801632.4994
  13314333.953 4  10374803.612 4  23720440.866    23720439.272
  -2601631.14044  -2027243.00044  24560166.2414   24560163.1064
 -15262268.97244 -11892671.46244  20743717.2824   20743717.4084
  -3609381.11644  -2812500.67644  20770989.0674   20770988.0594
 96  2 22  2  1 30.0000000  0  7G 5G 9G 7G12G20G24G 4
 -14900898.17844 -11611080.66644  22147707.8354   22147707.2404
  -3801271.00644  -2962028.39644  21192407.1454   21192406.6534
  10844385.77944   8450171.56744  22814446.0884   22814446.4074
  13415315.537 4  10453490.546 4  23739657.020    23739655.680
  -2698519.92344  -2102740.69544  24541728.9704   24541727.5864
 -15309122.13144 -11929180.39744  20734801.4364   20734801.5314
  -3576532.93144  -2786904.68644  20777239.7814   20777238.5364
 96  2 22  2  2  0.0000000  0  7G 5G 9G 7G12G20G24G 4
 -14977647.09244 -11670885.00244  22133102.7154   22133102.0764
  -3771353.22944  -2938715.84844  21198100.7074   21198100.0804
  10911730.60444   8502648.05844  22827261.2024   22827261.1244
  13516495.632 4  10532332.168 4  23758910.955    23758909.546
  -2795461.03744  -2178279.15044  24523279.9004   24523282.4944
 -15355474.63644 -11965299.21044  20725980.7234   20725980.9974
  -3543159.60644  -2760899.48744  20783590.5794   20783589.3794
 96  2 22  2  2 30.0000000  0  7G 5G 9G 7G12G24G 4G20
 -15054231.12544 -11730560.86644  22118529.5124   22118528.3674
  -3740913.32544  -2914996.44644  21203893.2924   21203892.7144
  10979118.95844   8555158.45144  22840085.3164   22840084.6944
  13617898.704 4  10611347.538 4  23778207.429    23778205.917
 -15401315.34444 -12001019.22544  20717257.6234   20717257.7144
  -3509242.14044  -2734470.28744  20790045.0304   20790044.0774
  -2892405.99444  -2253820.74344  24504832.5734
 96  2 22  2  3  0.0000000  0  7G 5G 9G 7G12G20G24G 4
 -15130644.85444 -11790104.02544  22103988.4944   22103987.6984
  -3709949.32744  -2890868.65944  21209784.9564   21209784.6234
  11046554.61344   8607705.71344  22852917.4374   22852917.0594
  13719516.595 4  10690530.300 4  23797544.663    23797543.120
  -2989347.22244  -2329359.26644  24486386.1544   24486383.1134
 -15446645.65144 -12036341.52444  20708631.4384   20708631.6814
  -3474792.82244  -2707626.65744  20796600.4914   20796599.3214
 96  2 22  2  3 30.0000000  0  7G 5G 9G 7G12G24G 4G20
 -15206880.59444 -11849508.48344  22089481.4334   22089481.0524
  -3678447.98444  -2866322.15744  21215779.6234   21215779.2024
  11114054.12644   8660302.73244  22865762.5724   22865763.4214
  13821335.838 4  10769869.958 4  23816920.181    23816918.756
 -15491476.11744 -12071274.33944  20700100.3544   20700100.6814
  -3439830.71044  -2680383.44144  20803253.4344   20803252.3874
  -3086290.84044  -2404899.70944  24467935.0644   24467935.2574
 96  2 22  2  4  0.0000000  0  7G 5G 9G 7G12G20G24G 4
 -15282931.33144 -11908768.79244  22075009.5894   22075009.0014
  -3646388.09244  -2841340.42944  21221880.6214   21221880.0684
  11181635.42844   8712963.49644  22878622.5894   22878622.4684
  13923359.264 4  10849368.721 4  23836334.467    23836333.222
  -3183220.48244  -2480429.20544  24449491.5024   24449492.0974
 -15535794.99744 -12105808.51744  20691666.8754   20691666.9714
  -3404345.51044  -2652732.62744  20810005.8994   20810005.0304
 96  2 22  2  4 30.0000000  0  7G 5G 9G 7G12G24G 4G20
 -15358812.98144 -11967897.34144  22060569.5124   22060569.0484
  -3613773.02944  -2815926.10144  21228086.9454   21228086.4404
  11249294.12844   8765684.57144  22891497.7524   22891497.3364
  14025574.568 4  10929017.001 4  23855785.732    23855783.805
 -15579593.50344 -12139937.20344  20683332.2874   20683332.6784
  -3368339.44644  -2624675.94544  20816857.7634   20816856.6064
  -3280152.37244  -2555960.56144  24431043.7104   24431044.9264
 96  2 22  2  5  0.0000000  0  7G 5G 9G 7G12G20G24G 4
 -15434565.99444 -12026925.65544  22046154.0304   22046153.5584
  -3580641.85344  -2790109.60744  21234391.7634   21234391.2744
  11316999.18144   8818441.75644  22904381.0384   22904380.1354
  14127948.737 4  11008789.070 4  23875266.840    23875264.886
  -3377130.07044  -2631527.53644  24412588.4824   24412591.3014
 -15622897.64344 -12173680.67044  20675091.5454   20675091.8744
  -3331825.30144  -2596223.35744  20823806.0684   20823805.2794
 96  2 22  2  5 30.0000000  0  7G 5G 9G 7G12G24G 4G20
 -15510204.86644 -12085865.02144  22031760.6194   22031759.6844
  -3547003.36244  -2763897.80644  21240792.9494   21240792.3924
  11384740.08344   8871226.88544  22917271.7704   22917271.1364
  14230484.416 4  11088686.986 4  23894778.983    23894776.861
 -15665719.68944 -12207048.47644  20666942.7664   20666942.6784
  -3294793.03744  -2567367.03744  20830853.1884   20830851.8664
  -3474156.31844  -2707132.40544  24394124.0934   24394129.2074
 96  2 22  2  6  0.0000000  0  7G 5G 9G 7G12G20G24G 4
 -15585737.22544 -12144721.39744  22017387.4454   22017387.1294
  -3512872.81544  -2737302.57944  21247287.7804   21247287.2524
  11452488.10744   8924017.54344  22930163.6294   22930163.4024
  14333180.346 4  11168709.768 4  23914321.168    23914319.455
  -3571235.91844  -2782778.78144  24375651.8044   24375655.9574
 -15708055.87644 -12240037.69144  20658886.3814   20658886.6464
  -3257233.33844  -2538099.73044  20838000.5784   20837999.5124
 96  2 22  2  6 30.0000000  0  7G 5G 9G 7G12G24G 4G20
 -15661131.46644 -12203470.15044  22003040.0734   22003039.5334
  -3478222.86844  -2710302.62344  21253881.4994   21253880.9074
  11520258.82744   8976825.90644  22943060.0044   22943059.7274
  14436066.107 4  11248880.483 4  23933899.474    23933898.003
 -15749879.02044 -12272627.13844  20650927.7974   20650927.9584
  -3219120.29644  -2508401.24644  20845253.0614   20845251.9434
  -3668347.48844  -2858450.16544  24357172.1234   24357174.1084
 96  2 22  2  7  0.0000000  0  7G 5G 9G 7G12G20G24G 4
 -15736393.20644 -12262115.66144  21988717.6544   21988717.4854
  -3443073.04144  -2682913.15644  21260570.3084   21260569.7654
  11588024.73244   9029630.51044  22955955.6514   22955955.4544
  14539136.437 4  11329195.027 4  23953513.159    23953511.729
  -3765490.43744  -2934145.96344  24338687.8654   24338690.0804
 -15791192.63644 -12304819.54944  20643066.0244   20643066.0984
  -3180474.47844  -2478287.61044  20852607.2484   20852606.2104
 96  2 22  2  7 30.0000000  0  7G 5G 9G 7G12G24G 4G20
 -15811482.28644 -12320626.62044  21974429.2604   21974429.1204
  -3407400.92144  -2655116.70344  21267358.5054   21267357.9394
  11655805.33044   9082446.56944  22968854.0404   22968853.8994
  14642415.662 4  11409672.346 4  23973166.590    23973165.184
 -15831950.75544 -12336579.11044  20635309.8154   20635309.7594
  -3141298.63844  -2447760.97444  20860062.1544   20860060.9654
  -3862631.63244  -3009840.41344  24320204.0434   24320205.4864
 96  2 22  2  8  0.0000000  0  7G 5G 9G 7G12G20G24G 4
 -15886384.42944 -12378991.91444  21960176.0784   21960175.6704
  -3371182.89644  -2626894.87544  21274250.7004   21274250.1054
  11723618.10444   9135287.66644  22981758.0904   22981757.3914
  14745908.534 4  11490316.130 4  23992860.596    23992859.047
  -3959754.88344  -3085520.85444  24301721.8294   24301722.3944
 -15872128.59444 -12367886.50344  20627664.5424   20627664.5764
  -3101592.20244  -2416820.88244  20867617.8704   20867616.7994
 96  2 22  2  8 30.0000000  0  7G 5G 9G 7G12G24G 4G20
 -15961093.84344 -12437207.03544  21945959.2694   21945958.5474
  -3334408.74244  -2598239.69344  21281248.5044   21281248.0134
  11791490.23244   9188175.04244  22994673.9374   22994674.4124
  14849622.642 4  11571132.300 4  24012596.845    24012595.338
 -15911718.14644 -12398735.49044  20620130.7744   20620130.8694
  -3061356.36544  -2385468.27544  20875274.7154   20875273.3954
  -4056841.35744  -3161172.61644  24283247.4504   24283245.4174
 96  2 22  2  9  0.0000000  0  7G 5G 9G 7G12G20G24G 4
 -16035619.86444 -12495279.25844  21931777.6334   21931776.7144
  -3297092.40844  -2569162.03844  21288349.2214   21288348.8494
  11859418.37544   9241106.07444  23007600.4814   23007600.5614
  14953546.123 4  11652111.612 4  24032372.705    24032371.300
  -4153892.00444  -3236796.49644  24264778.9224   24264778.6014
 -15950722.72644 -12429128.65344  20612708.5874   20612708.5884
  -3020605.14044  -2353714.06844  20883029.4174   20883028.3634
 96  2 22  2  9 30.0000000  0  7G 5G 9G 7G12G24G 4G20
 -16109973.17244 -12553216.89544  21917628.2364   21917627.7554
  -3259239.78744  -2539666.49544  21295552.7194   21295552.1234
  11927401.05244   9294079.58044  23020536.2704   23020535.4834
  15057658.507 4  11733238.137 4  24052184.587    24052183.172
 -15989176.76744 -12459092.82644  20605390.9234   20605391.2614
  -2979347.84544  -2321565.51944  20890880.3874   20890879.3534
  -4250918.07144  -3312401.17644  24246315.9364   24246315.8454
 96  2 22  2 10  0.0000000  0  7G 5G 9G 7G12G20G24G 4
 -16184160.05444 -12611024.84544  21903510.9454   21903510.4204
  -3220863.62744  -2509763.00244  21302855.3434   21302854.5654
  11995427.06944   9347086.86944  23033482.0044   23033482.5004
  15161944.443 4  11814499.907 4  24072029.538    24072028.279
  -4347928.37044  -3387993.59544  24227855.3944   24227854.1664
 -16027120.81044 -12488659.59844  20598170.2934   20598170.5124
  -2937577.84944  -2289017.46444  20898829.2144   20898827.9254
 96  2 22  2 10 30.0000000  0  7G 5G 9G 7G24G 4G12G20
 -16258188.62044 -12668709.43644  21889423.7514   21889423.2274
  -3182004.68644  -2479483.31044  21310250.0784   21310249.4574
  12063472.75044   9400109.46244  23046429.9244   23046429.7814
 -16064585.92444 -12517853.17944  20591040.8884   20591041.0564
  -2895323.69544  -2256092.14244  20906869.6374   20906868.4544
  15266383.358 4  11895880.888 4  24091903.455    24091902.237
  -4444937.75844  -3463585.27344  24209394.2464   24209392.1544
 96  2 22  2 11  0.0000000  0  7G 5G 9G 7G12G24G 4G20
 -16332033.85444 -12726251.16444  21875371.5654   21875371.3394
  -3142660.87444  -2448825.79644  21317736.6104   21317736.3444
  12131545.11844   9453152.84744  23059383.6264   23059383.2534
  15370982.187 4  11977386.475 4  24111808.245    24111806.723
 -16101572.60944 -12546673.95544  20584002.4274   20584002.6944
  -2852578.21144  -2222783.97044  20915003.7994   20915002.6014
  -4541928.81044  -3539162.65644  24190936.9664   24190935.2524
 96  2 22  2 11 30.0000000  0  7G 5G 9G 7G24G 4G12G20
 -16405699.54644 -12783652.99344  21861353.5934   21861353.0004
  -3102823.70644  -2417783.85544  21325317.8524   21325317.3314
  12199651.73144   9506222.95944  23072344.9354   23072343.3564
 -16138089.75344 -12575128.85544  20577053.4664   20577053.5184
  -2809337.04744  -2189089.55344  20923232.1984   20923230.8454
  15475740.017 4  12059015.938 4  24131742.961    24131741.458
  -4638905.91444  -3614729.18844  24172483.0574   24172481.6264
 96  2 22  2 12  0.0000000  0  7G 5G 9G 7G12G24G 4G20
 -16479193.58144 -12840921.06644  21847368.3224   21847367.5044
  -3062488.41344  -2386353.76144  21332993.0084   21332992.5234
  12267793.95044   9559320.80544  23085311.4244   23085311.2154
  15580663.124 4  12140774.180 4  24151709.422    24151707.789
 -16174113.93644 -12603199.63044  20570198.3564   20570198.3854
  -2765597.09744  -2155006.46744  20931555.7324   20931554.4314
  -4735870.97044  -3690286.35144  24154029.2074   24154028.8694
 96  2 22  2 12 30.0000000  0  7G 5G 9G 7G24G 4G12G20
 -16552514.66244 -12898054.36644  21833415.4834   21833415.1344
  -3021633.54544  -2354518.80144  21340767.6044   21340767.1014
  12335986.39144   9612457.77644  23098287.8424   23098287.8764
 -16209609.23544 -12630858.29144  20563443.9044   20563444.0704
  -2721352.46444  -2120530.12444  20939974.8974   20939973.8624
  15685763.899 4  12222670.864 4  24171709.507    24171708.004
  -4832818.88144  -3765830.11944  24135581.8274   24135582.2744
 96  2 22  2 13  0.0000000  0  7G 5G 9G 7G12G24G 4G20
 -16625678.84344 -12955065.40844  21819492.7124   21819492.3884
  -2980251.19044  -2322272.81244  21348642.5634   21348641.8684
  12404217.33344   9665624.71644  23111271.6754   23111272.0004
  15791029.310 4  12304695.843 4  24191740.722    24191739.271
 -16244576.36344 -12658105.38944  20556789.5854   20556789.8824
  -2676605.67444  -2085662.49444  20948490.1944   20948489.0424
  -4929767.38444  -3841374.30644  24117132.5034   24117133.7694
 96  2 22  2 13 30.0000000  0  7G 5G 9G 7G12G24G 4G20
 -16698717.90044 -13011978.95044  21805594.0094   21805593.5524
  -2938366.24044  -2289635.19844  21356612.7384   21356612.3574
  12472441.73644   9718786.59544  23124254.9854   23124254.1144
  15896425.462 4  12386822.704 4  24211796.900    24211795.286
 -16279035.53144 -12684956.67544  20550232.5014   20550232.7954
  -2631390.05244  -2050429.53644  20957094.2954   20957093.1444
  -5026763.64744  -3916955.76644  24098675.8134   24098675.6604
 96  2 22  2 14  0.0000000  0  7G 5G 9G 7G24G 4G12G20
 -16771566.31244 -13068743.93644  21791731.3624   21791730.6114
  -2895950.46644  -2256583.94844  21364684.4194   21364683.6254
  12540688.28744   9771965.72644  23137241.2774   23137241.9964
 -16312942.30144 -12711377.52444  20543780.1444   20543780.2854
  -2585673.68344  -2014806.39044  20965793.8604   20965792.8264
  16001989.760 4  12469080.595 4  24231885.045    24231883.579
  -5123760.83344  -3992537.91144  24080217.6854   24080219.7344
 96  2 22  2 14 30.0000000  0  7G 5G 9G 7G12G24G 4G20
 -16844220.59044 -13125357.65344  21777905.7574   21777905.0244
  -2853042.44044  -2223149.12444  21372849.3174   21372848.7904
  12608934.23944   9825144.36244  23150228.4054   23150228.9324
  16107694.470 4  12551447.897 4  24252000.071    24251998.382
 -16346323.80344 -12737389.07444  20537428.1844   20537428.2954
  -2539483.93044  -1978814.37244  20974583.3244   20974582.1994
  -5220763.37744  -4068124.24844  24061759.4224   24061760.1324
 96  2 22  2 15  0.0000000  0  7G 5G24G 4G 9G 7G12G20
 -16916648.70144 -13181795.13044  21764122.8544   21764122.3494
 -16379174.97444 -12762987.37244  20531176.6934   20531176.7844
  -2492810.71844  -1942445.63144  20983465.2404   20983463.9804
  -2809634.92644  -2189325.09644  21381109.4594   21381109.0664
  12677203.79944   9878341.43144  23163219.7404   23163218.7014
  16213555.849 4  12633937.278 4  24272144.556    24272143.153
  -5317747.89244  -4143696.52844  24043303.3744   24043303.2904
 96  2 22  2 15 30.0000000  0  7G 5G24G 4G 9G 7G12G20
 -16988843.88144 -13238051.10544  21750384.5814   21750383.9664
 -16411502.44444 -12788177.59044  20525024.9884   20525025.2574
  -2445653.32044  -1905699.60344  20992439.0444   20992437.7754
  -2765736.24844  -2155118.33844  21389463.1234   21389462.8054
  12745511.32644   9931568.07144  23176218.1594   23176216.7734
  16319576.313 4  12716550.634 4  24292319.706    24292318.101
  -5414703.29444  -4219246.14244  24024853.4124   24024856.0344
 96  2 22  2 16  0.0000000  0  7G 5G24G 4G 9G 7G12G20
 -17060815.79444 -13294133.10544  21736689.1304   21736688.1114
 -16443297.89044 -12812953.24844  20518974.3094   20518974.2654
  -2398002.10644  -1868568.77944  21001506.8204   21001505.4564
  -2721343.53844  -2120526.62044  21397911.1934   21397910.8304
  12813884.75644   9984846.06544  23189229.1504   23189227.7084
  16425759.287 4  12799290.610 4  24312525.675    24312524.153
  -5511609.15344  -4294757.10744  24006411.8114   24006414.9954
 96  2 22  2 16 30.0000000  0  7G 5G24G 4G 9G 7G12G20
 -17132587.21944 -13350058.88744  21723031.4214   21723030.3524
 -16474560.42844 -12837313.65344  20513025.2154   20513025.2424
  -2349854.84444  -1831051.43144  21010668.6084   21010667.5064
  -2676448.36044  -2085543.37244  21406454.1314   21406453.5924
  12882336.39944  10038184.99744  23202254.9654   23202255.2464
  16532102.486 4  12882155.441 4  24332762.081    24332760.547
  -5608467.82944  -4370231.34044  23987979.9174   23987978.2454
 96  2 22  2 17  0.0000000  0  7G 5G24G 4G 9G 7G12G20
 -17204187.05844 -13405850.95444  21709406.4694   21709406.0814
 -16505295.27144 -12861262.86544  20507176.4954   20507176.5274
  -2301216.04544  -1793151.06444  21019924.1594   21019923.1144
  -2631042.28844  -2050162.02544  21415094.5294   21415094.0034
  12950855.61844  10091576.62544  23215294.2404   23215295.1124
  16638596.797 4  12965138.012 4  24353027.351    24353025.583
  -5705305.97144  -4445689.61744  23969552.4014   23969554.6734
 96  2 22  2 17 30.0000000  0  7G 5G24G 4G 9G 7G12G20
 -17275643.26744 -13461531.09544  21695808.2564   21695807.7954
 -16535495.81744 -12884795.74744  20501429.6984   20501429.6614
  -2252096.95844  -1754876.44544  21029271.5304   21029270.4934
  -2585142.21944  -2014395.73944  21423828.9534   21423828.2874
  13019414.98544  10144999.50844  23228340.1384   23228341.3154
  16745224.951 4  13048224.873 4  24373317.964    24373316.298
  -5802127.36944  -4521134.78044  23951127.8354   23951127.2954
 96  2 22  2 18  0.0000000  0  7G 5G24G 4G 9G 7G12G20
 -17346960.02844 -13517102.57744  21682237.7734   21682236.8934
 -16565156.18244 -12907907.70744  20495785.4834   20495785.7034
  -2202511.62344  -1716238.51444  21038707.5594   21038706.3864
  -2538762.18244  -1978255.45944  21432654.8684   21432654.4564
  13087975.46344  10198423.23344  23241386.9014   23241385.7734
  16851971.250 4  13131403.792 4  24393631.166    24393629.622
  -5898943.78544  -4596576.09544  23932705.2134   23932704.8604
 96  2 22  2 18 30.0000000  0  7G 5G24G 4G 9G 7G12G20
 -17418128.40244 -13572558.44744  21668694.8284   21668693.8574
 -16594294.62844 -12930612.97544  20490240.7554   20490240.6734
  -2152481.15244  -1677253.73244  21048227.7474   21048226.5814
  -2491921.24344  -1941756.03344  21441568.6974   21441568.3874
  13156504.04544  10251822.12244  23254427.2244   23254426.6684
  16958823.805 4  13214665.495 4  24413964.531    24413962.857
  -5995768.66544  -4672024.01344  23914280.0184   23914278.9554
 96  2 22  2 19  0.0000000  0  7G 5G24G 4G 9G 7G12G20
 -17489118.61344 -13627875.48544  21655185.9394   21655185.4774
 -16622901.50144 -12952904.03444  20484796.9524   20484797.1004
  -2101992.83744  -1637912.18044  21057835.5584   21057834.3174
  -2444614.57544  -1904893.69744  21450570.4414   21450570.2674
  13225003.91444  10305198.63144  23267463.0834   23267463.6084
  17065790.966 4  13298016.508 4  24434319.901    24434318.302
  -6092584.76744  -4747465.06344  23895856.1454   23895856.0174
 96  2 22  2 19 30.0000000  0  7G 5G24G 4G 9G 7G12G20
 -17559891.65744 -13683023.29444  21641717.6324   21641717.3094
 -16650965.98044 -12974772.44844  20479456.3934   20479456.5324
  -2051028.65644  -1598199.82244  21067533.5084   21067532.2364
  -2396836.05844  -1867663.68944  21459662.5814   21459662.3914
  13293496.03244  10358569.10744  23280495.7084   23280496.1774
  17172892.422 4  13381472.160 4  24454700.679    24454699.137
  -6189350.83944  -4822867.17244  23877441.5494   23877442.6854
 96  2 22  2 20  0.0000000  0  7G 5G24G 4G 9G 7G12G20
 -17630434.51744 -13737991.72644  21628293.8424   21628293.3884
 -16678506.10144 -12996232.25744  20474215.5064   20474215.5354
  -1999591.69044  -1558119.06044  21077321.3264   21077320.5064
  -2348580.26944  -1830061.77444  21468844.9414   21468844.9744
  13362003.57444  10411951.60644  23293533.1794   23293531.6374
  17280130.221 4  13465034.078 4  24475107.387    24475105.724
  -6286077.94044  -4898238.88444  23859034.9784   23859034.0784
 96  2 22  2 20 30.0000000  0  6G 5G 4G 9G24G 7G12
 -17700751.69544 -13792784.31844  21614912.6964   21614911.7654
  -1947683.00744  -1517670.72344  21087199.3684   21087197.9774
  -2299844.52344  -1792085.87544  21478119.3454   21478119.0504
 -16705522.50344 -13017283.98344  20469074.1954   20469074.7564
  13430561.28244  10465373.16344  23306578.9054   23306576.6434
  17387506.030 4  13548703.522 4  24495540.457    24495538.546
 96  2 22  2 21  0.0000000  0  6G 5G 4G24G 9G 7G12
 -17770845.19544 -13847402.62044  21601574.2604   21601573.4924
  -1895290.99744  -1476845.77744  21097169.3104   21097168.2984
 -16731995.34744 -13037912.16544  20464036.6504   20464036.9474
  -2250619.01844  -1753728.33944  21487486.4104   21487485.8174
  13499180.66844  10518842.83544  23319636.1204   23319635.2914
  17495023.920 4  13632483.675 4  24516000.678    24515998.597
 96  2 22  2 21 30.0000000  0  6G 5G24G 4G 9G 7G12
 -17840693.48444 -13901829.84644  21588282.8314   21588282.2154
 -16757888.36544 -13058088.53244  20459109.4484   20459109.6504
  -1842395.71444  -1435628.66344  21107234.9794   21107233.6704
  -2200884.02444  -1714973.80444  21496950.7744   21496950.5724
  13567897.11744  10572388.11144  23332712.9494   23332713.1704
  17602712.592 4  13716396.909 4  24536492.964    24536490.955
 96  2 22  2 22  0.0000000  0  7G 5G24G 4G 9G 7G12G20
 -17910311.13844 -13956077.36744  21575035.3204   21575034.6884
 -16783215.39044 -13077823.87244  20454289.9054   20454290.0644
  -1789020.85344  -1394037.87244  21117392.1014   21117390.6984
  -2150657.48844  -1675836.25944  21506508.8644   21506508.2674
  13636695.06244  10625996.96044  23345804.7734   23345804.1214
  17710549.705 4  13800425.812 4  24557013.755    24557011.690
        -0.18854        -0.03354  23785490.2124   23785491.6684
 96  2 22  2 22 30.0000000  0  7G 5G24G 4G 9G 7G12G20
 -17979728.79444 -14010169.04144  21561825.4594   21561824.7824
 -16808014.26244 -13097147.66244  20449571.0864   20449570.9664
  -1735207.38044  -1352105.29144  21127632.3114   21127631.2554
  -2099983.49044  -1636350.03544  21516151.9614   21516151.1534
  13705501.42444  10679612.28244  23358897.5274   23358897.8434
  17818487.720 4  13884533.335 4  24577553.722    24577551.678
    -96542.74544    -75228.00544  23767118.5024   23767119.1494
 96  2 22  2 23  0.0000000  0  7G 5G24G 4G 9G 7G12G20
 -18048956.43344 -14064112.64844  21548651.8144   21548651.2804
 -16832321.46644 -13116088.33144  20444945.4884   20444945.4744
  -1680979.36344  -1309849.69444  21137951.5564   21137950.4424
  -2048882.52444  -1596531.10744  21525875.9224   21525875.6004
  13774275.12344  10733202.15944  23371984.9734   23371985.6944
  17926504.096 4  13968701.945 4  24598108.345    24598106.407
   -193080.44144   -150452.14944  23748748.5394   23748747.7794
 96  2 22  2 23 30.0000000  0  7G 5G24G 4G 9G 7G12G20
 -18117948.65144 -14117872.81144  21535523.1014   21535522.5044
 -16856114.34544 -13134628.22944  20440417.9334   20440417.8934
  -1626313.40844  -1267252.84444  21148353.8564   21148352.7214
  -1997316.30644  -1556349.65044  21535688.5794   21535688.1384
  13843070.78844  10786809.13444  23385076.2164   23385076.7094
  18034634.080 4  14052959.072 4  24618685.045    24618682.874
   -289564.96844   -225634.84844  23730388.6184   23730388.2224
 96  2 22  2 24  0.0000000  0  7G 5G24G 4G 9G 7G12G20
 -18186679.20144 -14171429.07544  21522444.3784   21522443.7764
 -16879379.58644 -13152756.97844  20435990.7194   20435990.8014
  -1571194.65944  -1224303.16844  21158843.0114   21158841.5404
  -1945249.37844  -1515778.02544  21545596.8794   21545596.2394
  13911905.03144  10840446.21544  23398175.4834   23398176.5844
  18142891.321 4  14137315.368 4  24639285.296    24639283.633
   -385963.94944   -300750.92044  23712044.4174   23712044.0564
 96  2 22  2 24 30.0000000  0  7G 5G24G 4G 9G 7G12G20
 -18255170.71544 -14224799.08344  21509410.8064   21509410.1804
 -16902121.79144 -13170478.16544  20431663.0294   20431663.0364
  -1515633.29144  -1181008.59344  21169415.7824   21169414.6464
  -1892691.57844  -1474823.90944  21555598.1424   21555597.7584
  13980764.22944  10894102.69944  23411279.1474   23411278.8614
  18251260.993 4  14221759.256 4  24659907.443    24659905.456
   -482294.71344   -375813.82344  23693713.2474   23693712.7414
 96  2 22  2 25  0.0000000  0  6G 5G24G 4G 9G 7G20
 -18323459.92344 -14278011.44244  21496415.3574   21496414.8864
 -16924357.96244 -13187805.04044  20427431.3964   20427431.3404
  -1459643.66544  -1137380.30644  21180070.5434   21180069.3294
  -1839662.39944  -1433502.47744  21565689.1704   21565688.6264
  14049663.38344  10947790.33144  23424390.5614   23424388.3904
   -578585.62344   -450845.66244  23675389.4944   23675388.8014
 96  2 22  2 25 30.0000000  0  6G 5G24G 4G 9G 7G20
 -18391555.43344 -14331072.87744  21483457.7414   21483456.8654
 -16946095.39344 -13204743.29044  20423295.0044   20423294.9524
  -1403230.92044  -1093422.32344  21190805.2414   21190804.1544
  -1786184.05244  -1391831.04644  21575865.9634   21575865.4694
  14118599.86844  11001507.06744  23437508.1034   23437506.2884
   -674858.94244   -525863.82044  23657069.0164   23657069.6534
 96  2 22  2 26  0.0000000  0  6G 5G24G 4G 9G 7G20
 -18459416.96244 -14383951.99544  21470544.0074   21470542.9494
 -16967285.57944 -13221255.11044  20419262.7634   20419262.6374
  -1346343.97444  -1049094.83044  21201630.7254   21201629.2724
  -1732233.09144  -1349791.34544  21586132.4864   21586131.8894
  14187572.08344  11055251.65144  23450633.7994   23450633.6384
   -771088.91644   -600848.21144  23638756.7924   23638755.6804
 96  2 22  2 26 30.0000000  0  6G 5G 4G24G 9G 7G20
 -18527095.75944 -14436688.71544  21457665.1384   21457664.0364
  -1289015.86144  -1004423.57244  21212539.8094   21212538.5674
 -16987971.37544 -13237373.90244  20415326.2454   20415326.1534
  -1677862.92944  -1307424.99444  21596478.9274   21596478.0304
  14256534.90844  11108988.91944  23463756.4454   23463756.0814
   -867319.90944   -675833.38544  23620444.8224   23620443.5794
 96  2 22  2 27  0.0000000  0  6G 5G24G 4G 9G 7G20
 -18594577.65644 -14489272.01544  21444823.7734   21444822.9274
 -17008168.96244 -13253112.27144  20411482.8624   20411482.8804
  -1231259.33644   -959418.48844  21223530.3844   21223529.1024
  -1623082.47044  -1264738.92844  21606903.2224   21606902.5984
  14325486.47144  11162717.39444  23476876.8914   23476876.0214
   -963540.15144   -750810.18544  23602134.4464   23602134.7854
 96  2 22  2 27 30.0000000  0  6G 5G24G 4G 9G 7G20
 -18661796.88644 -14541650.63244  21432032.0234   21432031.5134
 -17027833.32244 -13268435.14444  20407740.7944   20407740.5774
  -1173049.90844   -914060.48644  21234607.5054   21234606.1844
  -1567864.93644  -1221712.29444  21617410.7484   21617410.2284
  14394444.14344  11216450.63544  23489998.2314   23489997.6864
  -1059695.65644   -825736.54344  23583837.4864   23583837.2204
 96  2 22  2 28  0.0000000  0  6G 5G 4G24G 9G 7G20
 -18728770.46644 -14593837.83644  21419287.9044   21419287.1564
  -1114410.66844   -868367.57444  21245766.0794   21245764.8174
 -17046958.42544 -13283337.81344  20404101.4764   20404101.4674
  -1512213.94944  -1178347.89344  21628000.5984   21628000.1144
  14463411.88044  11270191.70544  23503123.1854   23503123.0584
  -1155784.72944   -900611.10644  23565552.1224   23565552.0134
 96  2 22  2 28 30.0000000  0  6G 5G 4G24G 9G 7G20
 -18795485.97844 -14645823.95044  21406592.2824   21406591.6614
  -1055343.52744   -822341.23044  21257006.1814   21257004.7214
 -17065535.02644 -13297813.07944  20400566.2194   20400566.2314
  -1456109.18844  -1134629.90844  21638677.0654   21638676.4234
  14532445.46744  11323984.08544  23516260.6664   23516260.2864
  -1251782.99844   -975414.92444  23547282.7904   23547282.1994
 96  2 22  2 29  0.0000000  0  6G 5G 4G24G 9G 7G20
 -18861926.43344 -14697595.72844  21393948.8714   21393948.0474
   -995868.94044   -775997.38944  21268323.8344   21268322.5414
 -17083556.82044 -13311856.02644  20397137.0684   20397137.1154
  -1399558.29744  -1090564.28544  21649438.5974   21649438.1394
  14601551.94644  11377833.29544  23529411.4054   23529410.2644
  -1347675.16144  -1050136.06844  23529036.7864   23529036.0304
 96  2 22  2 29 30.0000000  0  6G 5G 4G24G 9G 7G20
 -18928128.17944 -14749181.49544  21381350.7964   21381350.0964
   -936003.20244   -729348.76144  21279715.9594   21279715.0384
 -17101029.00544 -13325470.70844  20393812.2624   20393812.0144
  -1342580.36744  -1046165.91144  21660280.8924   21660280.8384
  14670714.77444  11431726.38744  23542571.6794   23542572.3484
  -1443475.98844  -1124786.04044  23510806.5234   23510807.0504
 96  2 22  2 30  0.0000000  0  6G 5G 4G24G 9G 7G20
 -18994105.55644 -14800592.43144  21368795.9524   21368795.4524
   -875745.38844   -682394.62344  21291182.4614   21291181.3164
 -17117955.15844 -13338659.91044  20390591.2354   20390591.1694
  -1285157.92444  -1001421.16344  21671207.7254   21671207.3454
  14739947.84644  11485674.23444  23555746.8144   23555747.2534
  -1539191.22444  -1199369.33844  23492592.2754   23492590.6844
 96  2 22  2 30 30.0000000  0  6G 5G24G 4G 9G 7G20
 -19059852.24844 -14851823.60944  21356284.7654   21356284.1454
 -17134356.94144 -13351440.51144  20387470.0594   20387470.0784
   -815098.84644   -635137.57444  21302722.6654   21302721.7394
  -1227303.10144   -956339.49644  21682217.6554   21682217.2994
  14809207.40144  11539642.70044  23568926.5454   23568926.6994
  -1634835.60644  -1273897.36644  23474391.9024   23474393.5294
 96  2 22  2 31  0.0000000  0  6G 5G24G 4G 9G 7G20
 -19125363.46144 -14902871.30444  21343818.4594   21343817.7474
 -17150244.62744 -13363820.51544  20384446.7364   20384446.7384
   -754057.16544   -587572.62344  21314338.7664   21314338.1454
  -1169027.13844   -910929.66744  21693306.9324   21693306.1334
  14878452.77444  11593600.12244  23582103.6754   23582104.0294
  -1730419.70844  -1348378.44944  23456203.1184   23456202.6154
 96  2 22  2 31 30.0000000  0  7G 5G24G 4G 9G 7G16G20
 -19190647.11344 -14953741.68144  21331395.1514   21331394.7974
 -17165616.85644 -13375798.86444  20381521.3884   20381521.3374
   -692607.28944   -539689.60944  21326032.4624   21326031.4834
  -1110334.57344   -865195.21144  21704475.6904   21704474.8694
  14947667.31344  11647533.51644  23595274.5944   23595273.1204
        -0.22454                  24668414.5794
  -1825966.09144  -1422830.19044  23438020.6124   23438019.6254
 96  2 22  2 32  0.0000000  0  7G 5G24G 4G 9G 7G16G20
 -19255684.95044 -15004420.50444  21319018.9714   21319018.7134
 -17180474.50344 -13387376.24044  20378694.0704   20378694.0914
   -630747.03344   -491486.80844  21337803.8644   21337802.8244
  -1051223.40744   -819134.57344  21715724.1504   21715723.4094
  15016846.77944  11701439.56744  23608439.3054   23608438.9624
    -92451.43744                  24650820.6954
  -1921477.28244  -1497254.45544  23419843.9634   23419846.0534
 96  2 22  2 32 30.0000000  0  7G 5G24G 4G 9G 7G16G20
 -19320461.25044 -15054895.53644  21306692.3704   21306691.4124
 -17194809.44444 -13398546.31344  20375966.0554   20375965.9194
   -568465.83844   -442956.00444  21349656.0624   21349654.6544
   -991698.29844   -772751.38244  21727051.5574   21727051.0364
  15085980.66244  11755310.13444  23621594.4094   23621593.9464
   -185009.51144                  24633206.4404
  -2016939.21344  -1571640.33844  23401678.6584   23401679.0174
 96  2 22  2 33  0.0000000  0  6G 5G24G 4G 9G 7G20
 -19384972.82444 -15105164.28744  21294416.6124   21294415.6814
 -17208601.67944 -13409293.50044  20373341.6994   20373341.5464
   -505753.85644   -394089.52544  21361589.1094   21361588.3544
   -931745.66844   -726035.05544  21738460.2654   21738459.4384
  15155117.26244  11809182.83944  23634751.2484   23634750.7694
  -2112323.57844  -1645965.80644  23383528.2714   23383528.7584
 96  2 22  2 33 30.0000000  0  6G 5G 4G24G 9G 7G20
 -19449232.90344 -15155237.06644  21282187.9564   21282187.3804
   -442638.99744   -344909.12244  21373599.5484   21373598.7964
 -17221854.13344 -13419620.07644  20370819.7444   20370819.6074
   -871373.24744   -678991.61544  21749948.6584   21749948.0264
  15224279.17844  11863075.19144  23647912.4634   23647914.2394
  -2207630.74444  -1720231.10644  23365392.0074   23365392.0254
 96  2 22  2 34  0.0000000  0  6G 5G24G 4G 9G 7G20
 -19513212.65444 -15205091.40844  21270013.0794   21270012.6394
 -17234549.88544 -13429512.86044  20368403.7254   20368403.6704
   -379110.86644   -295406.68244  21385688.4734   21385687.4434
   -810562.58744   -631606.69444  21761520.3854   21761520.3834
  15293497.61344  11917011.60444  23661084.7804   23661085.6784
  -2302822.72244  -1794406.63744  23347277.6814   23347277.2724
 96  2 22  2 34 30.0000000  0  6G 5G24G 4G 9G 7G20
 -19576900.80244 -15254718.53144  21257893.9914   21257893.4174
 -17246682.45144 -13438966.79544  20366095.1634   20366095.0244
   -315160.35744   -245575.11544  21397858.0544   21397856.9864
   -749316.73944   -583882.66344  21773175.2964   21773174.7094
  15362791.33144  11971006.65244  23674269.7934   23674270.7734
  -2397891.60144  -1868486.26944  23329186.2254   23329185.8384
 96  2 22  2 35  0.0000000  0  6G 5G24G 4G 9G 7G20
 -19640320.47244 -15304136.44144  21245825.4734   21245824.9224
 -17258271.55844 -13447997.25944  20363889.8564   20363889.5914
   -250815.46444   -195436.24244  21410102.8934   21410101.6614
   -687654.37544   -535834.07944  21784909.3294   21784908.8224
  15432159.86144  12025060.06744  23687470.2794   23687470.3734
  -2492859.70244  -1942487.35244  23311115.6564   23311115.9604
 96  2 22  2 35 30.0000000  0  7G 5G24G 4G 9G 7G 6G20
 -19703455.75444 -15353332.75444  21233811.1884   21233810.4814
 -17269323.79944 -13456609.38144  20361786.3864   20361786.4704
   -186072.94644   -144987.52344  21422422.9694   21422421.7914
   -625576.61744   -487461.80944  21796721.7804   21796722.1554
  15501577.39444  12079151.63644  23700679.9974   23700678.4264
         0.12654                  25219795.2194
  -2587733.52344  -2016414.97744  23293060.6094   23293061.0654
 96  2 22  2 36  0.0000000  0  7G 5G24G 4G 9G 7G 6G20
 -19766306.80344 -15402307.58944  21221850.6304   21221849.9324
 -17279849.16344 -13464810.95444  20359783.7154   20359783.3814
   -120920.25244    -94219.18844  21434820.6324   21434819.6074
   -563082.57244   -438765.16344  21808614.2054   21808613.8814
  15571020.95944  12133263.46944  23713895.8324   23713895.2924
    -72505.72144                  25205994.9834
  -2682517.10344  -2090272.27144  23275024.2314   23275024.4554
 96  2 22  2 36 30.0000000  0  7G 5G24G 4G 9G 7G 6G20
 -19828894.82444 -15451077.46544  21209940.6994   21209939.9414
 -17289874.73144 -13472623.07244  20357875.8304   20357875.6454
    -55384.80544    -43152.60644  21447291.6434   21447290.9194
   -500183.20644   -389752.68144  21820584.0234   21820583.7154
  15640466.32944  12187376.75944  23727109.5184   23727109.6914
   -144989.39644                  25192200.8974
  -2777243.68044  -2164085.19444  23256998.1684   23256997.8514
 96  2 22  2 37  0.0000000  0  7G 5G24G 4G 9G 7G 6G20
 -19891203.57744 -15499629.73944  21198083.8244   21198082.8984
 -17299384.48344 -13480033.25944  20356066.3124   20356066.0794
     10535.73144      8214.04744  21459836.4914   21459834.9664
   -436864.54544   -340413.47244  21832633.0044   21832632.6464
  15709919.19644  12241495.87044  23740326.4684   23740327.2594
   -217444.10644                  25178411.0794
  -2871893.28544  -2237838.12644  23238986.4884   23238986.6344
 96  2 22  2 37 30.0000000  0  7G 5G24G 4G 9G 7G 6G20
 -19953230.42444 -15547962.33644  21186280.7424   21186280.1574
 -17308376.67844 -13487040.15644  20354355.0544   20354354.9714
     76842.40944     59881.58844  21472454.0244   21472452.6724
   -373145.23844   -290762.07344  21844758.4324   21844757.9604
  15779367.87944  12295611.69844  23753542.8234   23753543.9084
   -289857.83744                  25164636.6324
  -2966466.78244  -2311531.69944  23220989.5014   23220990.2644
 96  2 22  2 38  0.0000000  0  7G 5G24G 4G 9G 7G 6G20
 -20014977.90444 -15596077.24544  21174530.1474   21174529.3564
 -17316829.48444 -13493626.74844  20352746.4524   20352746.2544
    143532.75544    111848.09244  21485144.6154   21485143.2524
   -309023.37544   -240796.99444  21856960.2774   21856959.8174
  15848840.98144  12349746.54344  23766762.3834   23766762.6444
   -362224.95944                  25150867.4884
  -3060948.37344  -2385153.69344  23203011.1274   23203009.9944
 96  2 22  2 38 30.0000000  0  7G 5G24G 4G 9G 7G 6G20
 -20076423.33944 -15643956.80344  21162837.5334   21162836.6684
 -17324715.81244 -13499771.92844  20351245.8194   20351245.8044
    210615.59444    164120.43344  21497910.0764   21497909.0904
   -244494.84744   -190515.03244  21869240.1684   21869239.4034
  15918366.11944  12403921.94744  23779992.7014   23779994.7464
   -434528.56844                  25137108.0064
  -3155306.16644  -2458679.22844  23185055.9364   23185055.1374
 96  2 22  2 39  0.0000000  0  7G 5G24G 4G 9G 7G 6G20
 -20137605.24644 -15691631.01344  21151194.9704   21151194.0794
 -17332073.95444 -13505505.53444  20349845.6094   20349845.3224
    278064.71044    216678.18844  21510745.1884   21510744.1944
   -179607.85244   -139953.74344  21881587.7164   21881587.1044
  15987905.03644  12458108.07244  23793225.3904   23793226.1204
   -506799.00444                  25123352.5124
  -3249558.82644  -2532122.85944  23167119.3224   23167118.6264
 96  2 22  2 39 30.0000000  0  7G 5G24G 4G 9G 7G 6G20
 -20198496.08344 -15739078.40744  21139607.9574   21139607.2384
 -17338882.56044 -13510810.93144  20348549.9864   20348549.7404
    345911.53044    269545.83944  21523656.1874   21523654.9014
   -114325.01944    -89084.01244  21894009.9474   21894009.5074
  16057485.69044  12512326.74644  23806465.9414   23806468.6154
   -579002.34444                  25109614.4374
  -3343670.13044  -2605456.29844  23149210.7154   23149211.4004
 96  2 22  2 40  0.0000000  0  8G 5G24G 4G 9G 7G 6G16G20
 -20259091.38444 -15786295.51644  21128077.0424   21128076.4734
 -17345152.34944 -13515696.47244  20347356.7974   20347356.6284
    414146.78544    322716.17044  21536640.9604   21536639.6284
    -48634.39544    -37896.52544  21906510.2914   21906510.1564
  16127106.73344  12566576.93644  23819713.9864   23819712.3624
   -651161.05244                  25095884.2354
        -0.63254                  24367593.6144
  -3437635.38144  -2678675.92744  23131329.6824   23131328.7994
 96  2 22  2 40 30.0000000  0  7G 5G24G 4G 9G 7G16G20
 -20319389.47644 -15833281.04244  21116602.9544   21116602.0154
 -17350911.57444 -13520184.17044  20346260.9524   20346260.8734
    482761.12744    376181.90144  21549697.5544   21549696.3464
     17449.22044     13597.18844  21919086.2244   21919086.4244
  16196749.20044  12620843.82244  23832967.6444   23832965.9874
    -93533.01744    -72882.24644  24349794.4394
  -3531476.81544  -2751799.10844  23113472.3554   23113471.6904
 96  2 22  2 41  0.0000000  0  7G 5G24G 4G 9G 7G16G20
 -20379406.00044 -15880047.16444  21105181.9834   21105181.2154
 -17356184.05144 -13524292.58244  20345257.4514   20345257.2714
    551731.96544    429925.41244  21562822.0354   21562821.0124
     83916.55444     65389.90544  21931734.7784   21931734.3284
  16266402.13044  12675118.89244  23846221.6554   23846221.7094
   -187140.84844   -145822.99844  24331980.9174   24331979.5164
  -3625221.38144  -2824846.80744  23095633.2984   23095632.7774
 96  2 22  2 41 30.0000000  0  7G 5G24G 4G 9G 7G16G20
 -20439127.75744 -15926583.59244  21093817.2804   21093816.6604
 -17360958.43744 -13528012.87644  20344348.8874   20344348.8884
    621050.64944    483939.96644  21576013.1204   21576011.7754
    150770.89944    117484.18344  21944456.6994   21944456.3754
  16336077.69444  12729411.77444  23859481.4854   23859479.7824
   -280827.32044                  24314152.1914
  -3718875.91844  -2897824.32644  23077811.6194   23077810.6974
 96  2 22  2 42  0.0000000  0  7G 5G24G 4G 9G 7G16G20
 -20498550.15644 -15972886.75744  21082509.3434   21082508.8714
 -17365234.47644 -13531344.84544  20343535.1164   20343535.2214
    690713.62044    538222.81044  21589269.6844   21589268.5584
    217998.62244    169869.40844  21957249.2784   21957248.9744
  16405785.90744  12783729.08144  23872745.3684   23872744.4114
   -374583.51044                  24296311.9634
  -3812440.77244  -2970731.98444  23060006.1034   23060006.5024
 96  2 22  2 42 30.0000000  0  8G 5G24G 4G 9G 7G 6G16G20
 -20557657.47644 -16018944.40344  21071261.8344   21071261.1354
 -17368996.74544 -13534276.47544  20342819.3484   20342819.1664
    760742.85744    592791.04644  21602595.8944   21602594.8744
    285611.82644    222555.00644  21970115.8624   21970115.4954
  16475549.94644  12838088.98144  23886021.6734
         0.02554                  25027309.8394
   -468361.21544   -364956.13044  24278466.0774
  -3905892.98644  -3043551.86044  23042223.1214   23042221.3524
 96  2 22  2 43  0.0000000  0  8G 5G24G 4G 9G 7G 6G16G20
 -20616489.69144 -16064787.68644  21060066.4564   21060065.5684
 -17372266.37444 -13536824.23044  20342197.1314   20342197.0854
    831108.50344    647621.41344  21615986.1104   21615984.9454
    353582.61944    275519.24744  21983050.1194   21983049.8844
  16545333.94344  12892466.10744  23899300.4194
    -71924.06144                  25013624.1054
   -562169.55244   -438053.49244  24260615.7924   24260619.1534
  -3999244.06244  -3116292.94844  23024458.5494   23024456.7354
 96  2 22  2 43 30.0000000  0  8G 5G24G 4G 9G 7G 6G16G20
 -20675045.46644 -16110415.55744  21048923.4914   21048922.8284
 -17375028.25944 -13538976.34044  20341671.5114   20341671.3824
    901814.55944    702717.04944  21629440.7464   21629439.2874
    421898.91144    328752.70744  21996049.8604   21996049.9394
  16615131.08644  12946853.50444  23912583.1034   23912583.0764
   -143794.70844                  24999949.8724
   -656004.96644   -511171.99744  24242758.2104   24242757.6344
  -4092476.66844  -3188941.71744  23006717.5764   23006718.7334
 96  2 22  2 44  0.0000000  0  8G 5G24G 4G 9G 7G 6G16G20
 -20733316.23644 -16155821.35444  21037835.0204   21037834.3814
 -17377268.28444 -13540721.80544  20341245.3204   20341245.1854
    972878.92244    758091.88044  21642963.7324   21642962.9154
    490575.30044    382266.76444  22009118.9214   22009118.5564
  16684945.10344  13001254.04644  23925867.8764   23925869.8374
   -215593.51144   -167995.50444  24986286.6014
   -749840.39944   -584290.49544  24224901.4854   24224900.3644
  -4185564.77644  -3261477.87944  22989003.0844   22989004.5674
 96  2 22  2 44 30.0000000  0  8G 5G24G 4G 9G 7G 6G16G20
 -20791315.91844 -16201015.90944  21026798.2034   21026797.5464
 -17378990.61344 -13542063.87444  20340917.6014   20340917.4184
   1044286.63144    813734.25244  21656552.3524   21656551.2404
    559607.05744    436057.73644  22022255.8144   22022254.9574
  16754749.71644  13055647.30444  23939150.9914   23939151.5824
   -287355.06644   -223913.54944  24972630.6774
   -843699.51544   -657427.42344  24207040.8024   24207042.7644
  -4278531.63344  -3333919.58444  22971312.2934   22971312.0184
 96  2 22  2 45  0.0000000  0  8G 5G24G 4G 9G 7G 6G16G20
 -20849023.37244 -16245982.75044  21015817.0264   21015816.3164
 -17380174.83044 -13542986.63144  20340692.2434   20340692.2814
   1116032.27144    869639.94644  21670205.0174   21670203.8614
    628990.03344    490122.38244  22035458.2144   22035457.9454
  16824545.50444  13110034.08944  23952433.5204   23952434.0964
   -359096.22744                  24958977.6904
   -937595.67644   -730593.25344  24189173.6864   24189175.6204
  -4371380.87644  -3406269.62944  22953643.5104   22953643.0704
 96  2 22  2 45 30.0000000  0  7G 5G24G 4G 9G 7G16G20
 -20906425.41744 -16290711.61044  21004893.6964   21004892.7604
 -17380831.77844 -13543498.53144  20340567.2174   20340566.9634
   1188104.90344    925800.43544  21683920.0504   21683918.8984
    698720.42544    544457.73644  22048727.3844   22048727.0214
  16894335.71744  13164416.45044  23965713.5804   23965712.1654
  -1031535.64444   -803793.20944  24171297.2494   24171297.7564
  -4464138.29844  -3478548.12944  22935991.7484   22935991.3524
 96  2 22  2 46  0.0000000  0  7G 5G24G 4G 9G 7G16G20
 -20963512.06744 -16335194.71544  20994030.2034   20994029.5964
 -17380986.89444 -13543619.39544  20340537.6364   20340537.4084
   1260496.20344    982209.23944  21697695.1744   21697694.5424
    768800.60444    599065.65344  22062063.3654   22062063.3594
  16964119.89244  13218792.76344  23978993.6454   23978992.4464
  -1125511.19844   -877020.88344  24153414.3654   24153413.9944
  -4556817.35844  -3550765.56044  22918356.6344   22918356.3034
 96  2 22  2 46 30.0000000  0  7G 5G24G 4G 9G 7G16G20
 -21020252.44244 -16379407.99144  20983233.1924   20983232.3394
 -17380634.13844 -13543344.51444  20340604.7004   20340604.7724
   1333214.04344   1038872.49344  21711533.1754   21711532.3154
    839233.13744    653948.13644  22075466.9764   22075466.0214
  17033920.51744  13273182.85144  23992275.9014   23992276.3394
  -1219512.32444   -950268.49044  24135526.7704   24135527.2984
  -4649400.68444  -3622908.40144  22900738.2914   22900738.8324
 96  2 22  2 47  0.0000000  0  8G 5G24G 4G 9G 7G 6G16G20
 -21076596.77844 -16423312.67044  20972511.0294   20972510.1104
 -17379739.29544 -13542647.22744  20340774.9114   20340774.7994
   1406303.37344   1095825.21744  21725442.1564   21725440.9914
    910055.01144    709134.00244  22088943.9244   22088943.4744
  17103792.44544  13327628.50444  24005570.9724   24005574.7164
        -0.38554                  24904417.2314
  -1313484.66744  -1023493.66344  24117643.9964   24117645.4314
  -4741817.53344  -3694921.52044  22883151.4844   22883151.1194
 96  2 22  2 47 30.0000000  0  8G 5G24G 4G 9G 7G 6G16G20
 -21132573.47344 -16466930.86544  20961859.2334   20961858.5664
 -17378337.08744 -13541554.58944  20341041.9014   20341041.7034
   1479748.67744   1153055.32244  21739418.2264   21739417.2294
    981251.53344    764611.79244  22102491.5144   22102491.7344
  17173721.97044  13382119.00744  24018879.1634   24018880.6864
    -71491.74944                  24890814.0624
  -1407438.41544  -1096704.34244  24099766.1124   24099768.2084
  -4834067.42444  -3766804.54744  22865596.3764   22865596.1494
 96  2 22  2 48  0.0000000  0  8G 5G24G 4G 9G 7G 6G16G20
 -21188203.69644 -16510279.08144  20951272.6444   20951271.9004
 -17376441.99744 -13540077.88544  20341402.3304   20341402.3794
   1553525.32644   1210543.61944  21753457.1754   21753455.7584
   1052797.45744    820361.84244  22116106.3934   22116106.4044
  17243685.05544  13436635.66844  24032193.1584   24032191.3614
   -142901.35144                  24877225.4874
  -1501398.68344  -1169920.08644  24081885.9914   24081885.3784
  -4926149.58544  -3838556.86644  22848074.7034   22848074.4494
 96  2 22  2 48 30.0000000  0  8G 5G24G 4G 9G 7G 6G16G20
 -21243492.88744 -16553361.56044  20940751.7104   20940751.1104
 -17374042.90344 -13538208.45444  20341859.0184   20341858.8454
   1627642.81044   1268297.49944  21767561.0194   21767559.7884
   1124697.94844    876388.18344  22129788.2604   22129787.5224
  17313681.57944  13491178.39244  24045511.9724   24045512.0134
   -214226.70944                  24863654.9024
  -1595381.79444  -1243153.65044  24064000.7674   24064001.1374
  -5018064.88144  -3910179.16444  22830583.2114   22830583.5444
 96  2 22  2 49  0.0000000  0  8G 5G24G 4G 9G 7G 6G16G20
 -21298451.62344 -16596186.54444  20930293.1624   20930292.5874
 -17371132.47544 -13535940.58244  20342412.8214   20342412.5894
   1702096.04444   1326313.00744  21781729.5544   21781728.1814
   1196955.60944    932692.84244  22143538.8664   22143537.7184
  17383698.49044  13545737.01244  24058836.6624   24058836.9564
   -285475.53744   -222448.23944  24850093.6814   24850097.9374
  -1689373.81744  -1316394.16544  24046114.3784   24046113.9544
  -5109826.73944  -3981681.90044  22813121.4024   22813121.9504
 96  2 22  2 49 30.0000000  0  8G 5G24G 4G 9G 7G 6G16G20
 -21353081.72744 -16638755.45744  20919897.5764   20919896.7574
 -17367702.28844 -13533267.70044  20343065.5114   20343065.2194
   1776880.40044   1384586.53244  21795960.3144   21795959.2774
   1269558.50144    989266.51844  22157355.0374   22157354.4454
  17453737.18044  13600312.60244  24072163.5894   24072165.5304
   -356676.07744   -277929.11544  24836544.5184   24836545.3504
  -1783356.60144  -1389627.46544  24028229.7184   24028230.0544
  -5201453.07444  -4053079.03144  22795686.6374   22795686.9284
 96  2 22  2 50  0.0000000  0  8G 5G24G 4G 9G 7G 6G16G20
 -21407391.07944 -16681074.42944  20909563.0234   20909562.3524
 -17363753.37744 -13530190.61944  20343817.0124   20343816.8764
   1851983.96944   1443108.78944  21810252.1064   21810250.7964
   1342482.27444   1046090.22644  22171231.8114   22171231.4494
  17523784.24044  13654894.70544  24085494.3264   24085494.9764
   -427865.55844   -333401.38844  24822997.2944   24823001.9794
  -1877338.50144  -1462860.08144  24010346.4564   24010346.0304
  -5292963.26644  -4124385.67144  22778272.1714   22778271.6874
 96  2 22  2 50 30.0000000  0  8G 5G24G 4G 9G 7G 6G16G20
 -21461374.66444 -16723139.56344  20899290.2184   20899289.1354
 -17359273.10244 -13526699.48944  20344669.5094   20344669.1904
   1927416.66944   1501887.51444  21824606.3404   21824605.2114
   1415716.53744   1103155.87744  22185167.7264   22185167.5674
  17593858.62444  13709498.09744  24098829.6294   24098829.6264
   -499038.99744   -388861.17944  24809452.3134
  -1971302.85644  -1536079.07144  23992465.5074   23992466.1054
  -5384347.33144  -4195594.02144  22760882.3084   22760881.7734
 96  2 22  2 51  0.0000000  0  8G 5G24G 4G 9G 7G 6G16G20
 -21515040.71044 -16764957.26744  20889077.8854   20889077.3644
 -17354267.62344 -13522799.10544  20345622.2404   20345621.9414
   2003158.81044   1560907.35944  21839019.9684   21839018.5884
   1489251.29044   1160455.66944  22199160.1394   22199160.6584
  17663971.79844  13764131.65844  24112170.5814   24112172.0174
   -570210.47544   -444319.34844  24795906.4924
  -2065228.76144  -1609268.06444  23974591.0394   23974591.9964
  -5475592.09244  -4266693.81144  22743519.3624   22743518.9944
 96  2 22  2 51 30.0000000  0  8G 5G24G 4G 9G 7G 6G16G20
 -21568389.85044 -16806528.01944  20878926.0784   20878925.3264
 -17348760.29044 -13518507.67144  20346670.1884   20346670.0964
   2079208.56444   1620166.91544  21853491.5474   21853489.8654
   1563086.61844   1217989.67344  22213210.6094   22213210.5164
  17734136.21644  13818805.20344  24125522.5344   24125523.0244
   -641376.35344   -499773.20644  24782366.3404   24782368.3284
  -2159131.94644  -1682439.39544  23956722.4724   23956722.6064
  -5566685.07144  -4337675.33744  22726184.1284   22726183.8964
 96  2 22  2 52  0.0000000  0  8G 5G24G 4G 9G 7G 6G16G20
 -21621413.94844 -16847845.49944  20868835.5824   20868834.7164
 -17342758.91744 -13513831.26944  20347812.0234   20347811.9284
   2155575.21444   1679673.39344  21868023.5664   21868022.6694
   1637255.75744   1275783.80244  22227325.1394   22227324.7284
  17804349.89744  13873517.09044  24138883.9674   24138884.3214
   -712507.42544   -555200.02944  24768830.8764   24768831.5164
  -2253023.91844  -1755601.97044  23938855.1164   23938854.9904
  -5657609.00444  -4408525.15244  22708882.4644   22708882.5924
 96  2 22  2 52 30.0000000  0  8G 5G24G 4G 9G 7G 6G16G20
 -21674128.68644 -16888921.92044  20858804.5784   20858803.5774
 -17336275.03344 -13508778.88144  20349045.7654   20349045.6364
   2232250.77444   1739420.57544  21882614.4764   21882613.2754
   1711775.65844   1333851.25544  22241505.9974   22241506.2184
  17874603.26044  13928259.97744  24152252.4914   24152250.1734
   -783597.26944   -610594.62644  24755301.7504
  -2346894.60344  -1828747.96744  23920992.6864   23920992.3014
  -5748365.68344  -4479244.60944  22691611.4414   22691612.9594
 96  2 22  2 53  0.0000000  0  8G 5G24G 4G 9G 7G 6G16G20
 -21726527.22444 -16929751.94844  20848833.2894   20848832.4874
 -17329327.07844 -13503364.88244  20350368.0774   20350368.0384
   2309225.03344   1799400.51644  21897262.0694   21897260.4944
   1786667.93244   1392208.86244  22255757.1024   22255756.8044
  17944873.49344  13983016.00444  24165625.1014   24165624.5884
   -854636.52844                  24741782.0674
  -2440738.09044  -1901872.76344  23903135.4744   23903135.2294
  -5838952.78344  -4549831.94344  22674373.7794   22674373.7904
 96  2 22  2 53 30.0000000  0  8G 5G24G 4G 9G 7G 6G16G20
 -21778590.08544 -16970320.41244  20838925.8994   20838925.3134
 -17321898.67844 -13497576.51144  20351781.3644   20351781.2684
   2386509.12044   1859621.88244  21911968.7984   21911967.3814
   1861927.96944   1450853.04044  22270079.0344   22270078.5344
  18015148.28744  14037775.55744  24178998.4974   24178997.2664
   -925596.80144   -721243.56144  24728279.9104   24728279.6074
  -2534550.69644  -1974973.47444  23885282.9344   23885283.4474
  -5929366.00844  -4620283.78544  22657168.8454   22657169.2914
 96  2 22  2 54  0.0000000  0  8G 5G24G 4G 9G 7G 6G16G20
 -21830328.54544 -17010636.09844  20829080.5904   20829079.6754
 -17313972.51544 -13491400.27444  20353289.9504   20353289.8464
   2464083.71444   1920069.62044  21926730.6094   21926729.5774
   1937510.91144   1509748.83944  22284462.3784   22284461.5894
  18085405.66044  14092521.58844  24192367.9364   24192369.9794
   -996501.80244   -776494.19544  24714789.3374   24714788.8544
  -2628331.95344  -2048049.78544  23867437.3674   23867439.1824
  -6019629.24244  -4690618.74144  22639991.9444   22639992.3904
 96  2 22  2 54 30.0000000  0  8G 5G24G 4G 9G 7G 6G16G20
 -21881735.52044 -17050693.48444  20819298.2814   20819297.2144
 -17305548.21844 -13484835.88144  20354892.8894   20354892.8224
   2541928.10544   1980727.58844  21941544.1224   21941542.6424
   2013370.03944   1568859.84444  22298897.1494   22298896.1774
  18155642.88944  14147251.90644  24205732.6974   24205731.2194
  -1067372.12644   -831717.81644  24701302.4004   24701303.1184
  -2722090.40744  -2121108.30844  23849595.4784   23849595.9744
  -6109740.04844  -4760834.93344  22622844.0184   22622844.5484
 96  2 22  2 55  0.0000000  0  8G 5G24G 4G 9G 7G 6G16G20
 -21932773.97044 -17090463.70444  20809585.7814   20809584.8084
 -17296603.41744 -13477865.89744  20356595.3264   20356595.1544
   2620061.12644   2041610.46344  21956412.5564   21956411.4094
   2089504.00944   1628185.01044  22313384.5574   22313384.1004
  18225885.84844  14201986.66544  24219099.7214   24219099.1394
  -1138189.03544   -886899.80144  24687826.8084
  -2815823.16544  -2194146.82244  23831758.7694   23831759.8834
  -6199668.66644  -4830909.17144  22605731.6254   22605731.0044
 96  2 22  2 55 30.0000000  0  8G 5G24G 4G 9G 7G 6G16G20
 -21983446.90244 -17129949.10544  20799942.9754   20799942.3674
 -17287120.33244 -13470476.47344  20358399.7014   20358399.4024
   2698491.54144   2102725.07344  21971336.8624   21971335.8844
   2165897.32744   1687712.26044  22327921.5124   22327921.8104
  18296158.04644  14256744.15844  24232470.6174   24232473.5914
  -1208967.40344   -942051.64944  24674357.7104
  -2909534.93444  -2267168.94944  23813926.4504   23813927.3724
  -6289410.49144  -4900837.85744  22588654.8644   22588654.3944
 96  2 22  2 56  0.0000000  0  8G 5G24G 4G 9G 7G 6G16G20
 -22033742.29344 -17169140.31744  20790372.3814   20790371.4134
 -17277098.98544 -13462667.62144  20360306.7844   20360306.7874
   2777231.06944   2164080.54844  21986320.4114   21986319.2804
   2242577.98744   1747463.40544  22342514.4874   22342514.1304
  18366476.53444  14311537.70744  24245852.4194   24245851.8184
  -1279714.04344   -997179.02744  24660895.2944   24660893.1854
  -3003220.41144  -2340170.61044  23796097.8814   23796097.8034
  -6378940.07544  -4970601.16044  22571618.6664   22571617.8714
 96  2 22  2 56 30.0000000  0  8G 5G24G 4G 9G 7G 6G16G20
 -22083681.19844 -17208053.75444  20780869.3224   20780868.4214
 -17266585.41144 -13454475.21744  20362307.4724   20362307.1744
   2856256.30944   2225658.65244  22001358.7454   22001357.8804
   2319555.07844   1807445.54644  22357163.2864   22357162.8454
  18436824.57944  14366354.32044  24259239.8144   24259238.6754
  -1350433.92344  -1052285.39244  24647436.8294   24647436.1164
  -3096904.74844  -2413171.38344  23778270.6904   23778271.0414
  -6468260.95644  -5040201.84144  22554620.7044   22554620.4014
 96  2 22  2 57  0.0000000  0  8G 5G24G 4G 9G 7G 6G16G20
 -22133295.79844 -17246714.48344  20771427.8174   20771427.2104
 -17255602.01044 -13445916.71644  20364397.5754   20364397.3264
   2935549.40744   2287445.47244  22016447.9394   22016446.3854
   2396818.55444   1867650.84444  22371865.7524   22371865.2824
  18507173.38544  14421171.49744  24272627.8694   24272628.6264
  -1421151.40644  -1107389.88744  24633980.1954   24633977.1774
  -3190582.20444  -2486166.78644  23760444.2264   23760442.5344
  -6557411.80744  -5109670.02644  22537655.3614   22537655.6324
 96  2 22  2 57 30.0000000  0  8G 5G24G 4G 9G 7G 6G16G20
 -22182555.73244 -17285098.84844  20762053.9094   20762053.1704
 -17244131.38544 -13436978.56044  20366579.9784   20366580.0384
   3015125.05044   2349452.47144  22031590.7684   22031589.3214
   2474390.54144   1928096.54544  22386626.9204   22386626.6134
  18577550.44544  14476010.76344  24286019.3974   24286020.5574
  -1491840.99144  -1162472.56644  24620528.1084   24620528.6074
  -3284210.95444  -2559124.23244  23742627.4394   23742630.4914
  -6646386.02944  -5179000.59044  22520723.6064   22520723.6554
 96  2 22  2 58  0.0000000  0  8G 5G24G 4G 9G 7G 6G16G20
 -22231432.16044 -17323184.37744  20752753.2584   20752752.5774
 -17232166.66244 -13427655.39144  20368857.1044   20368856.9564
   3094984.62444   2411680.70644  22046787.0524   22046785.7754
   2552289.38744   1988796.93844  22401450.3024   22401450.1064
  18647976.75244  14530888.40344  24299421.0784
  -1562476.60144  -1217513.27144  24607086.5444   24607085.9224
  -3377759.78544  -2632019.41644  23724825.0624   23724824.7564
  -6735176.20144  -5248187.72044  22503827.5824   22503827.7764
 96  2 22  2 58 30.0000000  0  8G 5G24G 4G 9G 7G 6G16G20
 -22279924.80844 -17360970.85444  20743525.4304   20743524.4764
 -17219717.58444 -13417954.80744  20371225.9154   20371225.6784
   3175116.16444   2474120.86744  22062035.9714   22062034.8334
   2630486.53744   2049729.77044  22416330.5194   22416330.4954
  18718447.68944                  24312831.1134
  -1633060.61344  -1272513.75444  24593655.0604   24593654.4544
  -3471215.35544  -2704841.93144  23707041.3224   23707042.1844
  -6823795.83544  -5317241.96944  22486964.0124   22486963.9474
 96  2 22  2 59  0.0000000  0  8G 5G24G 4G 9G 7G 6G16G20
 -22328054.29144 -17398474.35344  20734366.4604   20734365.5114
 -17206823.03344 -13407907.09844  20373679.8354   20373679.6444
   3255477.53944   2536740.11244  22077327.7394   22077326.6344
   2708933.70244   2110857.41744  22431258.5094   22431258.7904
  18788929.45844                  24326241.9324
  -1703631.14444  -1327503.76844  24580226.6244   24580224.1044
  -3564610.47144  -2777617.33544  23689268.9024   23689269.3884
  -6912290.31244  -5386198.69044  22470124.0104   22470123.7824
 96  2 22  2 59 30.0000000  0  8G 5G24G 4G 9G 7G 6G16G20
 -22375791.42244 -17435672.11644  20725282.6764   20725282.1124
 -17193477.02844 -13397507.60844  20376219.3384   20376219.1914
   3336073.68044   2599542.29544  22092665.1674   22092664.3194
   2787653.46644   2172197.48044  22446238.3704   22446238.7504
  18859447.92344  14695671.07944  24339661.1824
  -1774162.73944  -1382463.41944  24566804.2564   24566803.7144
  -3657945.04144  -2850345.54144  23671507.7294   23671509.2694
  -7000627.09544  -5455032.53544  22453314.7924   22453314.0814
 96  2 22  3  0  0.0000000  0  8G 5G24G 4G 9G 7G 6G16G20
 -22423098.07944 -17472534.44444  20716280.3014   20716279.6844
 -17179636.39144 -13386722.69144  20378853.1184   20378852.9164
   3416943.18344   2662557.49344  22108053.8394   22108053.1564
   2866688.96244   2233783.57244  22461278.6264   22461278.9374
  18930029.53744  14750669.62544  24353095.3444   24353091.0634
  -1844623.48944  -1437367.85144  24553395.0004   24553394.2994
  -3751176.14944  -2922993.15144  23653766.9124   23653768.7814
  -7088740.21444  -5523692.10944  22436547.8824   22436547.4294
 96  2 22  3  0 30.0000000  0  8G 5G24G 4G 9G 7G 6G16G20
 -22469967.93344 -17509056.41144  20707361.3264   20707360.3794
 -17165287.12444 -13375541.43944  20381583.5644   20381583.2444
   3498108.82544   2725803.44444  22123499.1224   22123498.1904
   2946045.29144   2295619.65744  22476380.0094   22476380.0804
  19000664.94744  14805710.17644  24366535.5824   24366538.4804
  -1914996.53244  -1492203.99044  24540003.5924   24540004.8774
  -3844289.59144  -2995549.05044  23636047.8594   23636049.4634
  -7176626.92144  -5592175.25044  22419822.4834   22419822.7824
 96  2 22  3  1  0.0000000  0  8G 5G24G 4G 9G 7G 6G16G20
 -22516448.01744 -17545274.66044  20698516.2504   20698515.4894
 -17150464.03844 -13363990.97744  20384404.4574   20384404.2614
   3579525.51644   2789245.02744  22138992.1404   22138991.0654
   3025687.16344   2357678.24144  22491535.2874   22491534.7284
  19071318.34544  14860764.72644  24379981.6934
  -1985320.92244  -1547002.18544  24526620.9014   24526624.1524
  -3937330.51244  -3068048.46944  23618342.8414   23618343.7394
  -7264344.53744  -5660526.62644  22403130.0164   22403130.4144
 96  2 22  3  1 30.0000000  0  8G 5G24G 4G 9G 7G 6G16G20
 -22562538.16544 -17581189.05944  20689745.6934   20689744.8224
 -17135144.87044 -13352053.95744  20387319.6604   20387319.5144
   3661224.15044   2852906.30044  22154538.9074   22154537.2794
   3105616.44744   2419960.79444  22506745.4954   22506745.0884
  19142002.12644                  24393431.7964
  -2055595.30944  -1601761.35944  24513248.6824   24513250.7384
  -4030272.63544  -3140470.88944  23600656.1704   23600658.0684
  -7351870.47844  -5728728.66244  22386474.6104   22386474.1604
 96  2 22  3  2  0.0000000  0  8G 5G24G 4G 9G 7G 6G16G20
 -22608241.99744 -17616802.44144  20681048.3444   20681047.5684
 -17119319.52444 -13339722.51344  20390331.0604   20390330.8214
   3743231.08244   2916807.80844  22170144.2084   22170143.2434
   3185810.46844   2482449.64544  22522005.5054   22522004.8644
  19212712.24044                  24406885.7814
  -2125812.75644  -1656476.24444  24499886.9154   24499887.8924
  -4123102.63044  -3212805.93844  23582990.8544   23582991.6314
  -7439203.58344  -5796780.43444  22369855.8644   22369854.8794
 96  2 22  3  2 30.0000000  0  8G 5G24G 4G 9G 7G 6G16G20
 -22653590.00944 -17652138.55544  20672419.2034   20672418.5534
 -17103024.36044 -13327024.97644  20393432.0414   20393431.7414
   3825524.63844   2980932.64844  22185804.3854   22185802.7694
   3266238.20844   2545120.60444  22537310.1544   22537309.7354
  19283426.84444                  24420342.5724
  -2195994.27044  -1711163.15344  24486531.9574   24486531.7924
  -4215855.53044  -3285080.92544  23565340.5254   23565340.8464
  -7526377.13244  -5864707.86244  22353267.4084   22353267.5564
 96  2 22  3  3  0.0000000  0  7G 5G24G 4G 9G 6G16G20
 -22698584.78744 -17687199.41744  20663856.8934   20663856.1654
 -17086268.94744 -13313968.80744  20396620.4914   20396620.1874
   3908089.04044   3045268.54844  22201515.7994   22201515.1744
   3346885.34544   2607962.51244  22552656.4914   22552656.7864
  -2266156.19944  -1765834.76844  24473179.1684   24473177.7994
  -4308546.44244  -3357307.58144  23547702.2204   23547702.9814
  -7613366.32844  -5932491.63144  22336713.9204   22336714.2254
 96  2 22  3  3 30.0000000  0  7G 5G24G 4G 9G 6G16G20
 -22743221.35844 -17721981.16244  20655362.9214   20655362.0434
 -17069057.18844 -13300557.04044  20399895.8334   20399895.4814
   3990920.67344   3109812.67844  22217278.0994   22217277.5024
   3427741.63744   2670967.39944  22568043.0174   22568043.3504
  -2336305.50744  -1820496.52944  24459830.9114   24459832.3404
  -4401179.03444  -3429488.81744  23530075.3434   23530076.6534
  -7700142.06444  -6000109.07944  22320200.9004   22320200.2424
 96  2 22  3  4  0.0000000  0  7G 5G24G 4G 9G 6G16G20
 -22787499.95344 -17756483.96444  20646936.6644   20646936.1544
 -17051384.35144 -13286785.99244  20403258.8444   20403258.4294
   4073986.33444   3174539.16144  22233084.5904   22233083.6624
   3508822.19244   2734147.04544  22583472.7344   22583473.3144
  -2406438.02944  -1875145.23744  24446484.8584   24446486.9234
  -4493762.00744  -3501631.36444  23512457.7084   23512459.0054
  -7786700.39744  -6067557.13744  22303729.4684   22303729.2044
 96  2 22  3  4 30.0000000  0  7G 5G24G 4G 9G 6G16G20
 -22831401.25844 -17790692.77344  20638582.8244   20638582.2054
 -17033232.02044 -13272641.31344  20406713.1024   20406712.8074
   4157283.92044   3239446.37044  22248936.5384   22248935.7834
   3590165.68444   2797531.56944  22598951.8924   22598951.7754
  -2476542.38444  -1929771.96244  24433144.2014   24433143.6224
  -4586280.14844  -3573723.42644  23494851.3634   23494852.4144
  -7873020.12644  -6134819.25944  22287303.2524   22287303.1424
 96  2 22  3  5  0.0000000  0  8G 5G24G 4G 9G 7G 6G16G20
 -22874925.30544 -17824607.61444  20630300.4754   20630299.6514
 -17014597.45944 -13258120.87044  20410259.2424   20410258.9224
   4240807.77844   3304529.89444  22264830.2414   22264828.7804
   3671770.50944   2861119.73244  22614481.2884   22614481.7064
        -0.40454                  24487658.1524
  -2546619.59444  -1984377.56344  24419810.3844   24419809.8624
  -4678719.38944  -3645753.98244  23477260.8394   23477261.3374
  -7959090.06244  -6201886.73844  22270925.0624   22270925.2194
 96  2 22  3  5 30.0000000  0  8G 5G24G 4G 9G 7G 6G16G20
 -22918082.60244 -17858236.67044  20622087.8864   20622087.1954
 -16995486.60844 -13243229.29344  20413895.7874   20413895.6794
   4324549.25344   3369782.99144  22280765.3184   22280764.4104
   3753649.96144   2924921.88744  22630061.9024   22630061.7524
     70885.90344                  24501145.7484
  -2616669.32044  -2038961.80544  24406479.4084   24406478.6544
  -4771068.54944  -3717714.36444  23459687.6714   23459689.0374
  -8044919.39144  -6268766.73244  22254592.3624   22254592.2454
 96  2 22  3  6  0.0000000  0  8G 5G24G 4G 9G 7G 6G16G20
 -22960842.68544 -17891556.21544  20613950.9004   20613950.2034
 -16975881.13844 -13227952.29444  20417626.6464   20417626.3204
   4408529.95744   3435222.49144  22296746.7284   22296745.1704
   3835828.48444   2988957.07944  22645699.4794   22645699.0124
    141851.18144                  24514650.7614
  -2686666.64644  -2093505.14544  24393159.5594   24393161.5624
  -4863298.13044  -3789581.56744  23442136.8264   23442138.2444
  -8130501.76444  -6335454.29644  22238306.4534   22238305.8424
 96  2 22  3  6 30.0000000  0  8G 5G24G 4G 9G 7G 6G16G20
 -23003191.88444 -17924555.58944  20605892.2574   20605891.4554
 -16955802.72644 -13212306.77344  20421447.3614   20421447.2154
   4492756.06544   3500853.23144  22312774.1184   22312772.8124
   3918281.16344   3053205.91144  22661389.6304   22661388.7684
    212867.03544                  24528164.2464
  -2756615.53444  -2148010.74644  24379849.7364   24379850.1254
  -4955401.52944  -3861350.44544  23424609.7364   23424609.5044
  -8215849.58644  -6401959.09044  22222065.2854   22222064.9194
 96  2 22  3  7  0.0000000  0  8G 5G24G 4G 9G 7G 6G16G20
 -23045123.43344 -17957229.52544  20597912.9194   20597912.3124
 -16935254.77344 -13196295.37644  20425357.4204   20425357.3274
   4577210.13244   3566661.58944  22328845.0994   22328844.5074
   4000990.02244   3117654.37244  22677128.6344   22677128.5194
    283899.77644                  24541682.1914
  -2826519.96244  -2202481.74544  24366546.8314   24366549.7044
  -5047375.81744  -3933018.69644  23407107.6784   23407107.9064
  -8300961.79944  -6468280.29544  22205868.6314   22205868.7124
 96  2 22  3  7 30.0000000  0  8G 5G24G 4G 9G 7G 6G16G20
 -23086627.82144 -17989570.60844  20590014.5994   20590014.1834
 -16914245.08144 -13179924.18144  20429355.7244   20429355.4824
   4661881.97644   3632639.64244  22344958.0904   22344957.0434
   4083935.72044   3182287.36244  22692912.8884   22692912.6094
    354914.50244                  24555195.9134
  -2896382.00344  -2256919.67044  24353252.5074   24353251.5724
  -5139234.10144  -4004596.55444  23389627.8994   23389629.0374
  -8385857.33744  -6534432.66744  22189713.8534   22189713.6244
 96  2 22  3  8  0.0000000  0  8G 5G24G 4G 9G 7G 6G16G20
 -23127716.94544 -18021588.11244  20582196.0734   20582194.9784
 -16892803.86644 -13163216.73744  20433435.3644   20433435.2874
   4746761.51244   3698779.54644  22361109.7214   22361108.9214
   4167076.25744   3247072.18644  22708734.8494   22708733.8304
    425885.76444                  24568701.5084
  -2966210.89544  -2311331.77544  24339963.2334   24339963.3524
  -5231006.63944  -4076107.61144  23372164.0704   23372164.2914
  -8470558.50944  -6600433.57844  22173595.4264   22173595.4514
 96  2 22  3  8 30.0000000  0  8G 5G24G 4G 9G 7G 6G16G20
 -23168385.21844 -18053277.67444  20574457.0134   20574456.3054
 -16870912.21444 -13146158.30144  20437601.4534   20437601.2744
   4831867.04544   3765095.54544  22377305.1174   22377304.4924
   4250420.01644   3312015.37244  22724594.8784   22724594.1854
    496838.15644                  24582202.1254
  -3035985.00744  -2365701.21544  24326687.0514   24326687.3204
  -5322682.44444  -4147543.29244  23354719.1354   23354720.6834
  -8555032.26844  -6666257.28344  22157520.8384   22157520.6724
 96  2 22  3  9  0.0000000  0  8G 5G24G 4G 9G 7G 6G16G20
 -23208638.46844 -18084643.83444  20566797.1584   20566796.3444
 -16848562.98944 -13128743.31544  20441854.3154   20441854.0984
   4917206.24444   3831593.61444  22393544.5624   22393543.7754
   4333969.55444   3377118.89944  22740493.1524   22740493.4464
    567793.45044                  24595704.8364
  -3105696.20344  -2420021.59744  24313421.3624   24313423.0944
  -5414260.17944  -4218902.55644  23337291.8324   23337291.3954
  -8639257.63644  -6731887.43244  22141493.3264   22141493.4824
 96  2 22  3  9 30.0000000  0  8G 5G24G 4G 9G 7G 6G16G20
 -23248484.35644 -18115692.58844  20559214.5094   20559213.8514
 -16825754.20344 -13110970.22944  20446194.6344   20446194.6514
   5002798.57944   3898288.92544  22409832.4014   22409831.3114
   4417728.73444   3442385.77444  22756432.2524   22756432.3024
    638767.70744                  24609211.5244
  -3175343.03744  -2474291.81844  24300168.2374   24300167.0114
  -5505735.82844  -4290182.26244  23319885.7864   23319885.9034
  -8723233.07044  -6797322.82944  22125512.3334   22125512.8564
 96  2 22  3 10  0.0000000  0  8G 5G24G 4G 9G 7G 6G16G20
 -23287918.12744 -18146420.20344  20551710.5204   20551709.8894
 -16802472.61244 -13092828.72944  20450625.0044   20450624.7274
   5088640.72644   3965178.90344  22426167.7604   22426167.0344
   4501713.50544   3507828.44044  22772413.6034   22772413.1954
    709791.13544                  24622727.7784
  -3244930.17444  -2528515.56144  24286926.2224   24286926.4844
  -5597094.11144  -4361370.50644  23302499.6824   23302499.6924
  -8806941.18944  -6862549.93344  22109583.9684   22109584.3404
 96  2 22  3 10 30.0000000  0  7G 5G24G 4G 9G 6G16G20
 -23326952.18544 -18176836.35244  20544282.8414   20544282.0244
 -16778730.83544 -13074328.63744  20455142.8194   20455142.9394
   5174687.11344   4032228.01944  22442541.7944   22442540.7294
   4585906.79244   3573433.58944  22788434.4764   22788434.4124
  -3314494.08044  -2582721.19444  24273688.4794   24273687.8794
  -5688340.71444  -4432471.75044  23285135.7444   23285137.7744
  -8890410.09444  -6927590.63144  22093700.3954   22093700.0584
 96  2 22  3 11  0.0000000  0  7G 5G24G 4G 9G 6G16G20
 -23365586.19744 -18206940.77644  20536930.6884   20536929.8814
 -16754547.01044 -13055484.09644  20459744.8244   20459744.5234
   5260919.00544   4099421.71944  22458950.7424   22458949.9804
   4670297.89444   3639192.87344  22804494.1954   22804493.3664
  -3384059.73144  -2636928.16444  24260450.5024   24260450.9354
  -5779467.70444  -4503479.78444  23267795.1324   23267796.4554
  -8973659.08144  -6992459.97344  22077859.6094   22077858.8294
 96  2 22  3 11 30.0000000  0  7G 5G24G 4G 9G 6G16G20
 -23403782.08344 -18236703.80444  20529662.3604   20529661.4774
 -16729887.63244 -13036268.99444  20464437.6724   20464437.4194
   5347370.13944   4166786.22444  22475401.6674   22475401.2454
   4754932.99144   3705142.30144  22820600.1654   22820599.5184
  -3453597.36344  -2691113.34244  24247217.6494   24247218.1744
  -5870433.32944  -4574362.09344  23250485.3184   23250485.9304
  -9056661.41244  -7057137.10444  22062064.4934   22062064.1324
 96  2 22  3 12  0.0000000  0  8G 5G24G 4G 9G 7G 6G16G20
 -23441536.66444 -18266122.96244  20522477.9774   20522477.2164
 -16704770.26844 -13016697.01744  20469217.0304   20469216.8524
   5434034.15644   4234316.62444  22491893.6094   22491892.5974
   4839804.98944   3771276.32244  22836750.7114   22836750.3164
        -0.77054                  24676871.1004
  -3523106.28844  -2745276.13144  24233990.9264   24233990.4994
  -5961236.36444  -4645117.67344  23233205.5764   23233206.0754
  -9139428.76144  -7121631.12944  22046313.9444   22046313.7324
 96  2 22  3 12 30.0000000  0  8G 5G24G 4G 9G 7G 6G16G20
 -23478870.24544 -18295214.06844  20515373.8284   20515372.9034
 -16679218.50644 -12996786.54644  20474079.4364   20474079.2574
   5520914.61144   4302015.67544  22508426.0414   22508425.1924
   4924895.17344   3837580.33744  22852942.8094   22852943.1094
     71274.54544                  24690433.4174
  -3592599.22444  -2799426.44544  24220766.2134   24220767.3024
  -6051874.48544  -4715744.77044  23215957.8844   23215959.0644
  -9221972.63244  -7185951.02344  22030606.5684   22030607.1354
 96  2 22  3 13  0.0000000  0  8G 5G24G 4G 9G 7G 6G16G20
 -23515774.68744 -18323970.77844  20508350.8914   20508350.2324
 -16653220.63444 -12976528.46144  20479026.7284   20479026.6584
   5608039.50044   4369905.19744  22525006.0454   22525004.2824
   5010212.82144   3904061.59944  22869178.6554   22869178.2694
    142606.41744                  24704007.6744
  -3662066.41744  -2853556.72244  24207547.7924   24207548.2384
  -6142329.87544  -4786229.46644  23198745.2724   23198746.2104
  -9304266.65044  -7250076.23744  22014946.6044   22014946.3024
 96  2 22  3 13 30.0000000  0  7G 5G24G 4G 9G 6G16G20
 -23552248.88944 -18352392.23644  20501410.0864   20501409.4454
 -16626771.80144 -12955918.97844  20484059.7014   20484059.6914
   5695400.83944   4437978.97144  22541630.0034   22541628.4594
   5095757.54744   3970719.81644  22885456.4154   22885455.4974
  -3731489.57044  -2907652.65344  24194336.2894   24194334.7844
  -6232607.91344  -4856575.97644  23181566.1734   23181566.4564
  -9386304.21144  -7314001.61244  21999334.8164   21999334.6564
 96  2 22  3 14  0.0000000  0  7G 5G24G 4G 9G 6G16G20
 -23588299.18644 -18380483.38544  20494549.8534   20494549.1254
 -16599890.53844 -12934972.53744  20489175.1764   20489174.8244
   5782958.98444   4506206.08644  22558291.5334   22558289.7994
   5181495.77944   4037528.81944  22901771.3644   22901771.5334
  -3800884.63444  -2961726.68844  24181131.8344   24181132.2794
  -6322717.50744  -4926791.22944  23164418.2384   23164418.9504
  -9468090.01844  -7377730.80244  21983771.4754   21983771.1234
 96  2 22  3 14 30.0000000  0  8G 5G24G 4G 9G 7G 6G16G20
 -23623907.62844 -18408230.22244  20487773.9424   20487773.2734
 -16572563.79544 -12913678.96344  20494375.1694   20494374.9384
   5870702.77044   4574577.86644  22574989.0614   22574987.4734
   5267429.05844   4104489.80144  22918124.0684   22918124.4164
        -1.14254                  24744774.0684
  -3870241.82144  -3015771.20544  24167932.7694   24167932.8934
  -6412645.53844  -4996865.01344  23147305.6654   23147305.8994
  -9549591.93944  -7441238.78444  21968262.6484   21968261.4194
 96  2 22  3 15  0.0000000  0  8G 5G24G 4G 9G 7G 6G16G20
 -23659087.96144 -18435643.46844  20481079.2414   20481078.2664
 -16544815.88744 -12892057.21644  20499655.7194   20499655.3874
   5958599.47844   4643068.81044  22591715.1354   22591714.4034
   5353532.76444   4171583.59444  22934509.8494   22934509.4524
     71425.41044                  24758366.5034
  -3939564.00744  -3069788.46444  24154739.9994   24154740.8984
  -6502431.64544  -5066828.19344  23130219.8814   23130220.7754
  -9630819.93144  -7504533.32844  21952805.0374   21952804.4734
 96  2 22  3 15 30.0000000  0  8G 5G24G 4G 9G 7G 6G16G20
 -23693845.66744 -18462727.39844  20474465.0704   20474464.3314
 -16516656.14344 -12870114.55444  20505014.2394   20505013.8844
   6046635.05644   4711667.94644  22608467.6344   22608466.3684
   5439800.21144   4238804.97944  22950925.8834   22950925.8304
    142844.87844                  24771956.4604
  -4008847.20844  -3123775.31844  24141556.9914   24141556.3894
  -6592090.14244  -5136691.93544  23113158.1514   23113158.6854
  -9711778.01044  -7567617.54544  21937399.5914   21937399.3024
 96  2 22  3 16  0.0000000  0  8G 5G24G 4G 9G 7G 6G16G20
 -23728158.50644 -18489464.67644  20467935.5904   20467934.8484
 -16488064.36944 -12847835.24744  20510454.6914   20510454.5524
   6134840.49744   4780399.45144  22625252.5884   22625251.2064
   5526256.76744   4306173.72044  22967377.7054   22967377.4554
    214277.71244                  24785550.8094
  -4078079.50144  -3177722.56644  24128383.6014   24128381.1834
  -6681598.07744  -5206438.36344  23096125.1634   23096126.8304
  -9792446.06944  -7630475.76944  21922048.9484   21922048.9874
 96  2 22  3 16 30.0000000  0  8G 5G24G 4G 9G 7G 6G16G20
 -23762046.57544 -18515870.97044  20461486.9884   20461486.0134
 -16459046.17644 -12825223.66444  20515976.7604   20515976.4164
   6223223.76244   4849269.52744  22642071.2924   22642070.7744
   5612893.24344   4373682.65244  22983864.9074   22983864.2614
    285734.78444                  24799147.1244
  -4147275.16544  -3231641.18244  24115214.9424   24115214.5774
  -6770978.31144  -5276085.31044  23079117.6694   23079119.0114
  -9872841.48044  -7693121.53944  21906749.8684   21906749.7924
 96  2 22  3 17  0.0000000  0  8G 5G24G 4G 9G 7G 6G16G20
 -23795503.28144 -18541941.13344  20455120.3074   20455119.6734
 -16429584.03244 -12802266.14544  20521583.2784   20521583.0864
   6311802.00444   4918291.51444  22658926.9904   22658925.9894
   5699730.67844   4441348.18044  23000388.9264   23000389.0184
    357235.68744                  24812754.3074
  -4216436.01844  -3285532.72244  24102054.3464   24102054.0444
  -6860217.75244  -5345622.52544  23062135.1134   23062135.5744
  -9952971.01244  -7755560.12644  21891502.0004   21891501.7014
 96  2 22  3 17 30.0000000  0  8G 5G24G 4G 9G 7G 6G16G20
 -23828515.70244 -18567665.09744  20448838.3194   20448837.4094
 -16399672.37944 -12778958.35944  20527275.4394   20527275.1394
   6400581.49044   4987470.33844  22675821.7994   22675821.2034
   5786769.81344   4509170.86344  23016951.4564   23016952.5654
    428785.96544                  24826368.5424
  -4285576.27544  -3339408.23944  24088897.6554   24088897.3054
  -6949289.89544  -5415029.37644  23045185.7554   23045185.8844
 -10032835.34144  -7817792.07044  21876304.4704   21876303.5294
 96  2 22  3 18  0.0000000  0  8G 5G24G 4G 9G 7G 6G16G20
 -23861089.00544 -18593046.89644  20442639.9904   20442639.3414
 -16369332.45244 -12755316.85244  20533049.0354   20533048.5764
   6489552.70644   5056798.56044  22692752.1994   22692750.8574
   5873985.88944   4577131.42444  23033547.5964   23033548.4024
    500378.44844                  24839992.8014
  -4354708.02744  -3393277.07644  24075742.1704   24075741.0384
  -7038200.03744  -5484309.99544  23028266.7264   23028267.2804
 -10112440.54544  -7879822.10344  21861155.6544   21861155.4514
 96  2 22  3 18 30.0000000  0  8G 5G24G 4G 9G 7G 6G16G20
 -23893199.41744 -18618067.99544  20436529.4834   20436528.7664
 -16338548.37644 -12731329.25944  20538906.7104   20538906.6724
   6578734.49344   5126290.85044  22709722.9114   22709722.1114
   5961383.67844   4645233.58044  23050179.5974   23050179.0264
    572040.49744                  24853630.9254
  -4423800.37244  -3447115.21844  24062594.2494   24062594.9124
  -7126906.08244  -5553431.57644  23011385.8734   23011386.3994
 -10191757.17644  -7941627.25744  21846062.5474   21846062.0434
 96  2 22  3 19  0.0000000  0  8G 5G24G 4G 9G 7G 6G16G20
 -23924827.94244 -18642713.60344  20430510.7384   20430509.6334
 -16307324.71644 -12706999.13444  20544848.3684   20544848.0174
   6668133.74544   5195952.61244  22726735.7334   22726734.1934
   6048957.74444   4713473.11344  23066845.1194   23066843.3954
    643765.35144                  24867278.8244
  -4492834.49544  -3500908.05344  24049456.8974   24049456.6554
  -7215373.16244  -5622366.94844  22994551.8044   22994552.1594
 -10270766.46144  -8003192.92944  21831027.4574   21831027.4434
 96  2 22  3 19 30.0000000  0  8G 5G24G 4G 9G 7G 6G16G20
 -23955989.19744 -18666995.10744  20424580.9544   20424580.0804
 -16275692.22544 -12682350.43044  20550867.8054   20550867.5364
   6757732.53244   5265769.85744  22743785.2374   22743783.4944
   6136673.69444   4781823.20944  23083536.8314   23083535.2804
    715941.07044                  24880940.4334
  -4561812.44544  -3554657.08944  24036330.7174   24036331.9784
  -7303613.09744  -5691125.31544  22977760.6214   22977760.5384
 -10349472.72144  -8064522.49144  21816050.0794   21816050.2424
 96  2 22  3 20  0.0000000  0  7G 4G 5G24G 9G 6G16G20
   6847516.51944   5335731.40544  22760870.7854   22760870.1394
 -23986693.04444 -18690920.18344  20418738.2964   20418737.2714
 -16243651.78044 -12657383.85044  20556965.1874   20556964.8854
   6224533.42044   4850285.32644  23100255.3014   23100254.7284
  -4630733.24344  -3608361.55544  24023214.4004   24023215.9844
  -7391626.11544  -5759706.87444  22961011.1994   22961012.3764
 -10427877.92444  -8125617.44444  21801130.2494   21801130.6304
 96  2 22  3 20 30.0000000  0  7G 5G24G 4G 9G 6G16G20
 -24016973.36144 -18714515.24344  20412976.0324   20412975.2184
 -16211235.96544 -12632124.76844  20563133.6474   20563133.3314
   6937436.66944   5405799.04044  22777981.8294   22777980.9564
   6312509.39844   4918838.02144  23116997.2024   23116996.7214
  -4699638.21044  -3662053.70344  24010103.2624   24010102.7544
  -7479436.47244  -5828130.52144  22944301.2404   22944301.9874
 -10506027.33344  -8186513.08644  21786258.9944   21786258.8784
 96  2 22  3 21  0.0000000  0  7G 5G24G 4G 9G 6G16G20
 -24046823.07344 -18737774.75844  20407295.8234   20407295.2764
 -16178445.61144 -12606573.83944  20569373.3384   20569373.1814
   7027489.68844   5475970.21444  22795118.6814   22795117.3344
   6400611.80344   4987489.22544  23133762.7734   23133762.4194
  -4768533.03744  -3715737.97044  23996993.4294   23996993.7344
  -7567053.91144  -5896403.83144  22927628.2694   22927629.2234
 -10583916.82844  -8247206.19644  21771437.2824   21771436.9284
 96  2 22  3 21 30.0000000  0  7G20G 5G24G 4G 9G 6G16
 -10661555.10044  -8307703.55044  21756662.9954   21756662.7234
 -24076248.63044 -18760703.76644  20401696.3104   20401695.4044
 -16145273.16944 -12580725.18444  20575685.7094   20575685.4424
   7117659.69844   5546232.55244  22812277.0094   22812275.5094
   6488856.47344   5056251.28744  23150554.1154   23150554.5304
  -4837425.59744  -3769420.48444  23983883.5934   23983883.1724
  -7654498.20744  -5964542.21944  22910988.8224   22910989.4564
 96  2 22  3 22  0.0000000  0  7G 5G24G 4G 9G 6G16G20
 -24105216.43244 -18783276.08244  20396183.9914   20396183.3364
 -16111677.14844 -12554546.45944  20582078.9904   20582078.7324
   7207963.68444   5616599.29644  22829461.2334   22829460.1394
   6577271.70444   5125146.25744  23167380.0284   23167379.0384
  -4906293.84344  -3823084.00644  23970777.9984   23970778.5714
  -7741750.44744  -6032530.96144  22894384.8764   22894385.7074
 -10738913.48644  -8367982.80944  21741941.6034   21741941.8504
 96  2 22  3 22 30.0000000  0  7G 5G24G 4G 9G 6G16G20
 -24133732.57144 -18805496.45044  20390757.5584   20390756.7894
 -16077667.05544 -12528045.08844  20588550.9344   20588550.8434
   7298398.13844   5687067.70144  22846670.1464   22846668.5394
   6665827.97444   5194151.14844  23184232.0414   23184231.7264
  -4975143.07244  -3876732.74144  23957676.7564   23957676.2884
  -7828830.08144  -6100385.18844  22877813.5834   22877814.7594
 -10815993.43644  -8428045.10544  21727274.1524   21727274.1694
 96  2 22  3 23  0.0000000  0  7G20G 5G24G 4G 9G 6G16
 -10892755.49244  -8487859.69444  21712667.0724   21712666.7964
 -24161781.88044 -18827353.06044  20385419.9424   20385419.1834
 -16043220.04944 -12501203.26344  20595105.8814   20595105.4994
   7388998.01944   5757665.00744  22863910.2374   22863909.7474
   6754545.08044   5263281.35944  23201113.6214   23201113.0484
  -5043957.42244  -3930354.29444  23944582.2894   23944583.3234
  -7915730.36744  -6168099.68444  22861277.1774   22861278.6524
 96  2 22  3 23 30.0000000  0  7G20G 5G24G 4G 9G 6G16
 -10969178.53244  -8547410.12244  21698124.0344   21698123.6484
 -24189361.53644 -18848843.70544  20380171.7384   20380171.1574
 -16008319.76344 -12474008.23444  20601747.2664   20601747.1104
   7479772.47344   5828398.33944  22881184.8804   22881183.0834
   6843423.31744   5332537.11844  23218026.3104   23218026.8014
  -5112729.32144  -3983942.76044  23931495.0124   23931495.8674
  -8002444.58344  -6235669.17544  22844776.6794   22844777.1334
 96  2 22  3 24  0.0000000  0  7G20G 5G24G 4G 9G 6G16
 -11045243.70344  -8606681.67744  21683649.4404   21683649.2394
 -24216465.85044 -18869963.95244  20375013.8714   20375013.0844
 -15972976.01844 -12446467.65144  20608472.9744   20608472.7844
   7570737.14344   5899279.90744  22898494.8894   22898493.5294
   6932443.84544   5401903.75244  23234966.8394   23234966.2864
  -5181455.20944  -4037495.38844  23918416.6264   23918416.4764
  -8088950.95844  -6303076.71544  22828314.9634   22828315.9894
 96  2 22  3 24 30.0000000  0  8G20G 5G24G 4G 9G 7G 6G16
 -11120937.70744  -8665664.01344  21669245.1084   21669245.2494
 -24243101.06744 -18890718.67144  20369945.1964   20369944.6794
 -15937202.87644 -12418592.47344  20615280.3414   20615279.9604
   7661910.02044   5970323.70944  22915844.0944   22915843.1534
   7021614.60444   5471387.46544  23251935.1494   23251935.4274
        -0.46854                  25017675.3784
  -5250132.41044  -4091010.07344  23905347.1184   23905347.6954
  -8175233.69644  -6370310.01244  22811895.8694   22811896.2684
 96  2 22  3 25  0.0000000  0  8G20G 5G24G 4G 9G 7G 6G16
 -11196306.02644  -8724392.57444  21654903.0674   21654902.8734
 -24269311.69744 -18911142.54544  20364957.6264   20364956.8264
 -15901048.56644 -12390420.28244  20622160.0974   20622160.1264
   7753237.11844   6041487.68144  22933223.4494   22933222.9704
   7110910.13544   5540968.37544  23268926.9684   23268927.5524
     72088.42544                  25031393.1784
  -5318803.03244  -4144519.59944  23892280.9954   23892281.4114
  -8261329.91544  -6437397.94944  22795511.8824   22795512.7874
 96  2 22  3 25 30.0000000  0  7G20G 5G24G 4G 9G 6G16
 -11271343.84044  -8782863.60044  21640623.9624   21640623.4254
 -24295076.51844 -18931219.03044  20360054.7724   20360054.0374
 -15864489.77244 -12361932.91044  20629117.2524   20629116.7404
   7844716.64644   6112770.41844  22950631.4534   22950629.5714
   7200339.40144   5610653.50044  23285945.1584   23285944.9144
  -5387437.39944  -4198000.90844  23879219.7874   23879219.5704
  -8347202.93344  -6504311.98644  22779171.5154   22779171.8804
 96  2 22  3 26  0.0000000  0  7G20G 5G24G 4G 9G 6G16
 -11346090.18544  -8841107.50944  21626400.1674   21626400.1534
 -24320416.78944 -18950964.69444  20355232.4274   20355231.8864
 -15827567.31144 -12333162.15344  20636143.3654   20636142.9214
   7936313.30944   6184144.44444  22968061.8534   22968060.1614
   7289884.14644   5680428.62644  23302985.2504   23302984.7624
  -5456058.47244  -4251471.89144  23866161.7424   23866162.4614
  -8432864.17444  -6571060.99344  22762870.5554   22762870.6964
 96  2 22  3 26 30.0000000  0  7G20G 5G24G 4G 9G 6G16
 -11420528.97844  -8899111.75444  21612235.0864   21612234.7984
 -24345303.68144 -18970357.08644  20350496.8924   20350496.1194
 -15790254.23044 -12304087.02844  20643243.7604   20643243.5394
   8028036.67844   6255617.20244  22985516.5264   22985515.1104
   7379584.12744   5750324.72344  23320054.4524   23320054.0174
  -5524641.81744  -4304913.42544  23853109.7404   23853112.5054
  -8518295.15444  -6637630.56844  22746613.5194   22746614.6364
 96  2 22  3 27  0.0000000  0  7G20G 5G24G 4G 9G 6G16
 -11494665.14344  -8956880.18944  21598127.4624   21598127.2794
 -24369712.06744 -18989376.61044  20345852.0464   20345851.5294
 -15752542.10944 -12274700.95844  20650420.1584   20650419.6744
   8119870.10744   6327175.71844  23002991.1454   23002989.3134
   7469418.50844   5820325.51444  23337148.7434   23337149.2344
  -5593190.77144  -4358328.16044  23840066.2184   23840066.3114
  -8603490.64544  -6704016.66244  22730400.8884   22730401.3634
 96  2 22  3 27 30.0000000  0  7G20G 5G24G 4G 9G 6G16
 -11568503.50344  -9014416.57144  21584076.1764   21584075.8194
 -24393624.10244 -19008009.36944  20341301.8104   20341300.8384
 -15714443.21444 -12245013.50144  20657669.9264   20657669.6084
   8211816.47344   6398822.22044  23020488.1814   23020486.9334
   7559363.73744   5890412.70344  23354264.4694   23354265.1674
  -5661711.81444  -4411721.18044  23827026.7684   23827027.5424
  -8688436.45044  -6770208.19044  22714236.7654   22714237.4624
 96  2 22  3 28  0.0000000  0  7G20G 5G24G 4G 9G 6G16
 -11642019.03744  -9071701.40944  21570086.7094   21570086.3654
 -24417016.24844 -19026237.01744  20336850.6084   20336849.8424
 -15675965.73644 -12215031.05144  20664991.9274   20664991.7674
   8303888.38844   6470566.56944  23038009.5204   23038008.2474
   7649427.43444   5960592.19344  23371403.8944   23371403.1494
  -5730199.79344  -4465088.41444  23813994.3014   23813995.6374
  -8773121.62144  -6836196.62744  22698122.0254   22698122.4484
 96  2 22  3 28 30.0000000  0  7G20G 5G24G 4G 9G 6G16
 -11715211.34344  -9128734.37144  21556158.7364   21556158.3764
 -24439871.06944 -19044045.96944  20332501.2894   20332500.4804
 -15637106.80644 -12184751.36444  20672386.5924   20672386.2894
   8396083.92044   6542407.25244  23055552.6574   23055552.7094
   7739585.46044   6030845.21044  23388560.5814   23388560.0404
  -5798657.23244  -4518431.81344  23800966.3984   23800966.9584
  -8857545.06144  -6901981.12344  22682056.3234   22682057.2204
 96  2 22  3 29  0.0000000  0  7G20G 5G24G 4G 9G 6G16
 -11788094.80644  -9185526.66844  21542289.4004   21542289.0934
 -24462204.87244 -19061448.93644  20328251.3414   20328250.4624
 -15597885.42244 -12154189.24744  20679850.2984   20679849.8514
   8488397.12944   6614339.60144  23073119.4224   23073119.1024
   7829809.36844   6101149.54344  23405729.7524   23405730.0044
  -5867096.77444  -4571761.33444  23787942.9834   23787944.5204
  -8941712.83544  -6967566.39444  22666039.6364   22666040.0324
 96  2 22  3 29 30.0000000  0  7G20G 5G24G 4G 9G 6G16
 -11860639.17944  -9242054.74544  21528484.8644   21528484.7494
 -24484016.21944 -19078444.79144  20324100.8724   20324099.8944
 -15558279.44144 -12123327.43944  20687387.0854   20687386.7704
   8580867.05344   6686394.08344  23090715.9324   23090715.0384
   7920141.53844   6171538.24244  23422918.7584   23422918.4674
  -5935477.37644  -4625044.88944  23774930.9554   23774931.7374
  -9025600.91744  -7032933.72544  22650076.1764   22650076.2884
 96  2 22  3 30  0.0000000  0  7G20G 5G24G 4G 9G 6G16
 -11932837.25144  -9298312.98844  21514745.8134   21514745.8044
 -24505322.39344 -19095047.01044  20320046.4114   20320045.5654
 -15518284.85744 -12092162.82744  20694997.7414   20694997.3854
   8673485.42544   6758564.23744  23108340.6804   23108338.9064
   8010581.93844   6242011.26644  23440128.7174   23440128.3624
  -6003805.86544  -4678287.86544  23761928.1814   23761928.2194
  -9109225.16244  -7098095.46844  22634163.1244   22634163.8494
 96  2 22  3 30 30.0000000  0  7G20G 5G24G 4G 9G 6G16
 -12004701.89744  -9354311.40544  21501070.0714   21501069.8654
 -24526142.97544 -19111270.84644  20316084.2474   20316083.2894
 -15477896.33744 -12060691.25044  20702683.6484   20702683.0214
   8766244.86444   6830844.31044  23125992.4794   23125990.4814
   8101124.41244   6312563.82844  23457358.6844   23457357.2904
  -6072089.37144  -4731495.76644  23748934.5854   23748933.3074
  -9192599.02344  -7163062.10444  22618297.5574   22618298.0384
 96  2 22  3 31  0.0000000  0  7G 4G 5G24G 9G 6G16G20
   8859147.70144   6903236.14644  23143671.7554   23143669.5884
 -24546505.97244 -19127138.12544  20312209.3214   20312208.3654
 -15437106.02044 -12028906.58844  20710445.4284   20710445.0514
   8191779.27944   6383203.98344  23474611.3574   23474610.6834
  -6140326.40344  -4784667.46044  23735950.1414   23735949.8124
  -9275725.98744  -7227836.34944  22602479.5514   22602479.3954
 -12076215.38044  -9410036.18844  21487461.7804   21487461.3574
 96  2 22  3 31 30.0000000  0  7G20G 4G 5G24G 9G 6G16
 -12147370.48044  -9465481.72444  21473921.4214   21473920.8374
   8952170.67544   6975721.59644  23161372.8714   23161371.9554
 -24566408.88144 -19142646.88744  20308422.0374   20308421.2664
 -15395909.76444 -11996805.60744  20718284.9654   20718284.5884
   8282547.84044   6453932.71044  23491883.1154   23491883.2414
  -6208521.46144  -4837806.46944  23722972.9414   23722971.9224
  -9358611.80444  -7292422.68544  22586706.3404   22586707.2044
 96  2 22  3 32  0.0000000  0  7G 4G 5G24G 9G 6G16G20
   9045307.22144   7048295.50144  23179096.1394   23179095.4914
 -24585833.12644 -19157782.66944  20304725.6734   20304725.0824
 -15354301.39844 -11964383.50444  20726202.3644   20726202.2284
   8373428.96944   6524749.14444  23509177.3824   23509175.8204
  -6276674.33244  -4890912.61744  23710003.0554   23710002.5994
  -9441236.87444  -7356805.85044  22570983.4474   22570983.7644
 -12218144.21444  -9520630.08344  21460453.3084   21460453.3054
 96  2 22  3 32 30.0000000  0  7G20G 4G 5G24G 9G 6G16
 -12288567.86544  -9575505.64744  21447052.8124   21447052.6614
   9138519.61544   7120928.53844  23196834.0464   23196831.6664
 -24604819.38444 -19172577.16444  20301112.9934   20301112.0964
 -15312331.54244 -11931679.71844  20734189.3354   20734188.9814
   8464377.63144   6595618.23344  23526484.2704   23526483.5554
  -6344816.60144  -4944010.43444  23697036.2554   23697036.1494
  -9523622.89244  -7421002.72344  22555305.8524   22555306.3314
 96  2 22  3 33  0.0000000  0  7G20G 4G 5G24G 9G 6G16
 -12358619.73344  -9630091.51344  21433722.3844   21433722.4084
   9231829.07044   7193637.22544  23214590.4204   23214587.7544
 -24623338.13644 -19187007.36544  20297588.8094   20297588.0194
 -15270000.49144 -11898694.48444  20742244.6494   20742244.3954
   8555403.86244   6666547.77244  23543806.0604   23543804.5804
  -6412931.18744  -4997086.71844  23684075.0144   23684075.3844
  -9605736.67644  -7484987.47244  22539680.1164   22539681.3684
 96  2 22  3 33 30.0000000  0  7G20G 4G 5G24G 9G 6G16
 -12428284.52444  -9684375.77044  21420465.0574   21420464.8204
   9325250.07244   7266432.79344  23232367.6444   23232366.6234
 -24641354.76244 -19201046.30044  20294160.2804   20294159.3254
 -15227309.66144 -11865428.89844  20750368.4434   20750368.3264
   8646525.42044   6737551.57744  23561145.1434   23561145.9294
  -6481005.26844  -5050131.43644  23671120.8704   23671121.4594
  -9687542.14344  -7548731.97744  22524113.1254   22524113.6314
 96  2 22  3 34  0.0000000  0  7G20G 4G 5G24G 9G 6G16
 -12497572.21544  -9738366.17344  21407279.9934   21407279.8574
   9418792.43044   7339322.92044  23250168.6834   23250166.7564
 -24658877.91344 -19214700.71244  20290825.6604   20290824.9614
 -15184279.92144 -11831899.22944  20758556.7364   20758556.6804
   8737724.26044   6808615.58944  23578499.7204   23578499.5704
  -6549057.97544  -5103159.50544  23658170.9784   23658170.4144
  -9769030.76744  -7612229.58544  22508606.8144   22508607.3054
 96  2 22  3 34 30.0000000  0  7G20G 4G 5G24G 9G 6G16
 -12566518.21944  -9792090.32744  21394160.1794   21394159.7164
   9512454.62844   7412306.45444  23267991.6404   23267989.4924
 -24675911.52244 -19227973.65644  20287584.3124   20287583.5544
 -15140931.01144 -11798120.86344  20766805.7084   20766805.7194
   8828990.48144   6879732.11744  23595867.4674   23595867.9834
  -6617107.04644  -5156184.71844  23645221.4524   23645220.4344
  -9850223.53744  -7675496.67044  22493155.5194   22493156.1064
 96  2 22  3 35  0.0000000  0  7G20G 4G 5G24G 9G 6G16
 -12635130.83944  -9845554.70444  21381103.9524   21381103.4884
   9606233.95744   7485381.27944  23285837.0914   23285835.2794
 -24692452.42244 -19240862.67244  20284436.8114   20284436.0254
 -15097252.61644 -11764085.74644  20775117.5884   20775117.1954
   8920326.79444   6950903.26244  23613248.7844   23613249.1584
  -6685153.61944  -5209207.97144  23632272.1074   23632272.2554
  -9931130.09344  -7738540.72044  22477759.6944   22477759.6214
 96  2 22  3 35 30.0000000  0  7G20G 4G 5G24G 9G 6G16
 -12703399.14344  -9898750.77744  21368112.4774   21368112.1584
   9700126.78744   7558544.50344  23303703.9904   23303702.1174
 -24708493.96744 -19253362.57944  20281384.3774   20281383.3914
 -15053230.52644 -11729782.81944  20783494.6444   20783494.4674
   9011733.98744   7022129.63444  23630641.9334   23630641.9194
  -6753193.48244  -5262225.87144  23619324.2284   23619323.8634
 -10011756.51244  -7801366.48644  22462417.5004   22462417.7464
 96  2 22  3 36  0.0000000  0  7G20G 4G 5G24G 9G 6G16
 -12771334.84044  -9951687.69244  21355185.2654   21355184.9904
   9794120.37944   7631786.25644  23321591.2364   23321590.5534
 -24724043.11144 -19265478.80544  20278425.3374   20278424.6204
 -15008866.19044 -11695213.20244  20791936.9144   20791936.7894
   9103189.56344   7093393.70844  23648046.1934   23648046.0114
  -6821231.31944  -5315243.64744  23606377.5154   23606377.9904
 -10092134.85944  -7863998.95144  22447121.7834   22447122.4694
 96  2 22  3 36 30.0000000  0  7G20G 4G 5G24G 9G 6G16
 -12838931.64844 -10004360.52644  21342321.6544   21342321.8714
   9888201.20444   7705095.98444  23339493.5064   23339492.0634
 -24739094.78644 -19277207.38644  20275561.0864   20275560.4214
 -14964153.07844 -11660371.81544  20800445.4834   20800445.1754
   9194691.21944   7164693.69044  23665458.4914   23665458.0984
  -6889246.12944  -5368242.09844  23593434.9114   23593434.7474
 -10172272.79444  -7926444.07544  22431872.0554   22431872.6354
 96  2 22  3 37  0.0000000  0  7G20G 4G 5G24G 9G 6G16
 -12906146.06444 -10056735.39344  21329531.1184   21329530.6694
   9982377.03944   7778479.76444  23357414.4584   23357412.7254
 -24753633.31044 -19288536.11244  20272794.4214   20272793.5284
 -14919066.09444 -11625239.09744  20809025.3064   20809025.0834
   9286253.29244   7236040.75544  23682881.0114   23682879.7784
  -6957211.46344  -5421202.05644  23580501.0974   23580501.7384
 -10252134.98944  -7988674.34344  22416674.6524   22416675.4414
 96  2 22  3 37 30.0000000  0  7G20G 4G 5G24G 9G 6G16
 -12972972.03044 -10108807.58144  21316814.9784   21316814.5764
  10076641.98444   7851932.94744  23375352.4194   23375351.3334
 -24767653.88744 -19299461.23844  20270126.7544   20270125.7734
 -14873613.48044 -11589821.47544  20817674.7714   20817674.4484
   9377871.91444   7307431.90344  23700315.5664   23700314.8304
  -7025130.64744  -5474126.09144  23567577.1404   23567576.4024
 -10331715.77344  -8050685.32944  22401530.7614   22401531.3804
 96  2 22  3 38  0.0000000  0  7G20G 4G 5G24G 9G 6G16
 -13039425.87244 -10160589.79644  21304169.2244   21304169.0954
  10170981.98644   7925444.61244  23393304.7494   23393303.8064
 -24781172.86044 -19309995.51144  20267553.9514   20267552.9674
 -14827806.01244 -11554127.34344  20826391.4214   20826391.1884
   9469543.86444   7378864.58444  23717760.3834   23717760.7074
  -7093006.96444  -5527016.69344  23554660.8104   23554660.4624
 -10411008.60844  -8112471.94144  22386442.2774   22386442.5944
 96  2 22  3 38 30.0000000  0  7G16G 5G24G 4G 9G 6G20
 -10489983.50644  -8174010.80244  22371412.9654   22371413.4704
 -24794177.01344 -19320128.62244  20265079.3284   20265078.5114
 -14781633.75444 -11518148.95644  20835177.7314   20835177.4244
  10265398.35844   7999015.80444  23411271.2864   23411269.7754
   9561289.37244   7450354.56844  23735219.8084   23735220.2794
  -7160826.75644  -5579863.25844  23541754.8014   23541754.3774
 -13105491.80044 -10212069.73544  21291596.7944   21291596.7204
 96  2 22  3 39  0.0000000  0  7G20G 4G 5G24G 9G 6G16
 -13171178.54344 -10263254.21844  21279097.4594   21279096.6784
  10359870.51444   8072630.45444  23429248.9194   23429247.1944
 -24806678.31644 -19329869.90444  20262700.2514   20262699.1874
 -14735103.94044 -11481891.95544  20844032.3214   20844032.0614
   9653101.90044   7521896.80244  23752691.6174   23752690.4214
  -7228609.53844  -5632680.98444  23528855.4394   23528855.4144
 -10568646.31144  -8235306.48844  22356444.2784   22356444.7634
 96  2 22  3 39 30.0000000  0  7G20G 4G 5G24G 9G 6G16
 -13236491.42644 -10314147.38244  21266668.6044   21266668.3584
  10454397.91244   8146288.15244  23447237.3934   23447236.7934
 -24818664.79144 -19339210.01844  20260419.3574   20260418.7004
 -14688217.09344 -11445356.75044  20852954.2844   20852954.3984
   9744975.55944   7593486.65844  23770173.3304   23770173.8724
  -7296360.02944  -5685473.57244  23515963.2054   23515962.8604
 -10646993.92644  -8296356.55744  22341535.2334   22341535.2964
 96  2 22  3 40  0.0000000  0  7G20G 4G 5G24G 9G 6G16
 -13301415.33944 -10364737.44044  21254314.3754   21254313.8864
  10548995.13644   8220000.26044  23465238.8834   23465239.2074
 -24830129.67744 -19348143.70244  20258237.6784   20258237.0144
 -14640961.77344 -11408534.42544  20861946.7744   20861946.5514
   9836913.91644   7665126.91944  23787668.7994   23787668.2414
  -7364068.44644  -5738233.38844  23503079.1534   23503079.3174
 -10725011.26044  -8357149.26444  22326689.2854   22326689.2294
 96  2 22  3 40 30.0000000  0  7G20G16G 5G24G 4G 9G 6
 -13365937.45744 -10415014.41844  21242035.8944   21242035.5674
 -10802696.04344  -8417682.84344  22311906.4684   22311906.6824
 -24841064.63344 -19356664.45444  20256156.9124   20256155.9914
 -14593339.31844 -11371426.01344  20871009.0604   20871009.0274
  10643667.04344   8293770.57944  23483254.0864   23483253.3474
   9928902.70344   7736806.48244  23805173.3734   23805173.2264
  -7431747.35844  -5790970.15544  23490200.0054   23490199.4974
 96  2 22  3 41  0.0000000  0  7G20G16G 5G24G 4G 9G 6
 -13430043.76544 -10464967.37744  21229836.5834   21229836.1744
 -10880032.35844  -8477944.88644  22297189.1424   22297189.4414
 -24851462.02044 -19364766.32144  20254178.2214   20254177.2694
 -14545348.85444 -11334030.84944  20880141.0934   20880141.0964
  10738440.67544   8367620.16244  23501288.6884   23501288.8464
  10020938.61544   7808522.77244  23822687.4534   23822686.8494
  -7499397.91844  -5843684.86644  23477326.1154   23477325.7134
 96  2 22  3 41 30.0000000  0  7G20G16G 5G24G 4G 9G 6
 -13493741.84844 -10514602.24244  21217716.0574   21217715.6514
 -10957031.22144  -8537943.98544  22282537.3164   22282537.6404
 -24861337.82844 -19372461.75844  20252298.9384   20252298.2454
 -14497017.14944 -11296369.77844  20889338.3744   20889338.2084
  10833319.30244   8441551.55244  23519343.8184   23519341.8784
  10113002.64744   7880260.95944  23840206.3124   23840206.6584
  -7567032.98144  -5896387.50044  23464455.8744   23464456.6244
 96  2 22  3 42  0.0000000  0  7G16G 4G 5G24G 9G 6G20
 -11033692.74244  -8597680.22744  22267949.0334   22267949.3024
  10928295.22244   8515558.73844  23537417.7134   23537416.1404
 -24870697.95044 -19379755.36444  20250517.7984   20250517.0014
 -14448343.89344 -11258442.56544  20898600.8634   20898600.8184
  10205100.68444   7952025.67644  23857733.3784   23857732.2084
  -7634643.32844  -5949070.88644  23451590.3604   23451590.7384
 -13557017.29744 -10563907.78344  21205674.5254   21205674.0364
 96  2 22  3 42 30.0000000  0  7G16G 4G 5G24G 9G 6G20
 -11110004.96044  -8657144.27844  22253427.0304   22253427.5004
  11023372.35544   8589644.83044  23555510.0544   23555509.0034
 -24879525.30544 -19386633.82844  20248838.0714   20248837.4634
 -14399319.72844 -11220241.91944  20907929.6324   20907929.4924
  10297240.07744   8023822.59844  23875266.5394   23875267.7684
  -7702209.50244  -6001719.83344  23438732.6654   23438731.6944
 -13619866.03344 -10612880.82944  21193714.5944   21193714.2494
 96  2 22  3 43  0.0000000  0  7G20G 4G 5G24G 9G 6G16
 -13682306.01344 -10661535.35444  21181832.5524   21181832.9004
  11118528.60644   8663792.55744  23573617.7234   23573614.7364
 -24887844.37544 -19393116.22144  20247254.8264   20247253.9434
 -14349966.99044 -11181785.23744  20917321.3944   20917321.0494
  10389410.24144   8095643.47944  23892805.7764   23892805.2294
  -7769733.37044  -6054335.81044  23425883.0724   23425883.0454
 -11185989.50044  -8716352.99744  22238967.6804   22238967.4594
 96  2 22  3 43 30.0000000  0  7G16G 4G 9G 5G24G 6G20
 -11261661.36844  -8775318.07844  22224567.8084   22224568.2074
  11213744.34244   8737986.64944  23591736.0924   23591736.5774
  10481605.34444   8167483.83444  23910349.7444   23910349.4404
 -24895664.73044 -19399210.01044  20245766.5674   20245765.8704
 -14300280.46444 -11143068.46444  20926776.5484   20926776.2184
  -7837207.18544  -6106912.79444  23413043.4284   23413043.8594
 -13744349.94944 -10709881.27144  21170025.9794   21170025.5284
 96  2 22  3 44  0.0000000  0  7G20G16G 4G 5G24G 9G 6
 -13805990.42444 -10757912.81444  21158296.5814   21158296.1934
 -11337002.50844  -8834025.44544  22210230.7574   22210230.8394
  11309031.09944   8812236.05144  23609868.2504   23609867.0264
 -24902964.57344 -19404898.20544  20244377.7134   20244376.9894
 -14250250.67444 -11104084.21144  20936296.5274   20936296.3014
  10573831.50844   8239348.35644  23927900.1434   23927898.9344
  -7904625.30744  -6159446.39344  23400214.1994   23400214.1714
 96  2 22  3 44 30.0000000  0  7G16G 4G 9G 5G24G 6G20
 -11412005.01144  -8892468.94444  22195958.4224   22195959.0694
  11404408.47944   8886556.05544  23628018.2484   23628016.4164
  10666084.06644   8311233.45844  23945455.8154   23945456.3554
 -24909744.16144 -19410181.00844  20243087.4914   20243086.7854
 -14199893.99744 -11064845.24144  20945879.0364   20945879.1334
  -7971994.18344  -6211941.61644  23387394.4904   23387393.8474
 -13867231.75344 -10805633.32844  21146642.7674   21146642.4894
 96  2 22  3 45  0.0000000  0  7G16G 4G 5G24G 9G 6G20
 -11486674.49744  -8950652.94644  22181749.6734   22181749.9754
  11499868.84544   8960940.76444  23646184.0344   23646183.3974
 -24916018.26544 -19415069.92644  20241893.5274   20241892.6644
 -14149245.02544 -11025378.51044  20955517.3354   20955517.3194
  10758348.40044   8383127.72144  23963012.2904   23963012.2314
  -8039344.20644  -6264422.11944  23374578.1064   23374577.8974
 -13928073.90544 -10853042.79044  21135064.7054   21135064.5214
 96  2 22  3 45 30.0000000  0  7G16G 4G 9G 5G24G 6G20
 -11561006.99044  -9008574.35544  22167603.9564   22167604.3024
  11595405.10344   9035384.59844  23664363.4894   23664360.7954
  10850603.81344   8455015.04644  23980568.7274   23980570.4674
 -24921778.27444 -19419558.25144  20240797.7254   20240796.9414
 -14098321.03844 -10985697.47844  20965207.6084   20965207.4344
  -8106695.07844  -6316903.29344  23361762.5114   23361761.5544
 -13988514.73944 -10900139.54744  21123563.2514   21123562.9284
 96  2 22  3 46  0.0000000  0  7G16G 4G 9G 5G24G 6G20
 -11634969.66644  -9066207.60144  22153529.2524   22153529.6294
  11691027.09944   9109895.25344  23682560.9324   23682558.9214
  10942856.54644   8526900.30444  23998123.1054   23998121.3604
 -24926995.08544 -19423623.30344  20239804.8954   20239804.0994
 -14047125.60844 -10945804.93344  20974950.0364   20974949.7004
  -8174034.88544  -6369375.86344  23348947.9354   23348947.7294
 -14048529.28944 -10946904.12644  21112142.6994   21112143.0294
 96  2 22  3 46 30.0000000  0  7G 5G24G 4G 9G 6G16G20
 -24931684.28744 -19427277.23444  20238912.5924   20238911.9064
 -13995655.03644 -10905697.99244  20984744.5364   20984744.7174
  11786707.14744   9184451.14444  23700767.9054   23700767.2114
  11035096.48244   8598775.56944  24015675.3894   24015674.9044
  -8241353.19244  -6421831.67344  23336137.4584   23336137.5534
 -11708569.22544  -9123557.88944  22139524.1074   22139524.7684
 -14108127.66644 -10993344.41444  21100801.6824   21100801.3654
 96  2 22  3 47  0.0000000  0  7G 5G24G 4G 9G 6G16G20
 -24935862.81744 -19430533.23644  20238117.5164   20238116.8514
 -13943907.77144 -10865375.45244  20994591.7374   20994591.9264
  11882405.24844   9259021.07844  23718977.7894   23718976.6724
  11127307.67744   8670628.42144  24033222.8674   24033223.0254
  -8308664.16444  -6474281.77144  23323328.3794   23323327.1394
 -11781826.36444  -9180641.35644  22125583.2464   22125583.8644
 -14167329.09744 -11039475.40444  21089536.3184   21089535.8854
 96  2 22  3 47 30.0000000  0  7G 5G24G 4G 9G 6G16G20
 -24939503.96544 -19433370.50344  20237424.3804   20237423.6904
 -13891833.03044 -10824797.73444  21004501.1144   21004500.9394
  11978135.08244   9333615.73944  23737194.0794   23737193.1334
  11219519.20844   8742481.55544  24050770.3274   24050769.7294
  -8375921.81944  -6526690.30644  23310529.8084   23310529.4214
 -11854722.33944  -9237443.39644  22111711.9874   22111712.6574
 -14226112.91044 -11085280.97644  21078350.2694   21078349.8074
 96  2 22  3 48  0.0000000  0  7G 5G24G 4G 9G 6G16G20
 -24942620.60744 -19435799.05944  20236831.4074   20236830.5354
 -13839420.15644 -10783956.53244  21014474.9124   21014474.6004
  12073886.83444   9408227.50744  23755416.2054   23755415.9214
  11311749.72844   8814349.48644  24068321.9154   24068321.8364
  -8443126.51444  -6579057.57844  23297740.5804   23297740.2044
 -11927254.61744  -9293962.04244  22097909.6834   22097909.9564
 -14284490.51844 -11130770.01544  21067240.7904   21067240.9054
 96  2 22  3 48 30.0000000  0  7G 5G24G 4G 9G 6G16G20
 -24945237.63644 -19437838.31244  20236333.5464   20236332.8324
 -13786678.44144 -10742859.09244  21024511.3874   21024511.1714
  12169647.24144   9482845.99944  23773638.6744   23773638.7444
  11403999.58544   8886232.49244  24085874.7834   24085875.4214
  -8510301.64544  -6631401.81444  23284957.2984   23284956.9784
 -11999446.18044  -9350215.18944  22084171.8114   22084172.3604
 -14342462.59444 -11175943.05944  21056209.3704   21056208.9764
 96  2 22  3 49  0.0000000  0  7G 5G24G 4G 9G 6G16G20
 -24947328.77644 -19439467.77644  20235935.5534   20235934.6404
 -13733596.99744 -10701496.92844  21034612.2034   21034612.1044
  12265454.42144   9557500.92744  23791869.7994   23791867.6064
  11496285.15244   8958143.31244  24103437.2774   24103436.3404
  -8577444.72444  -6683721.10544  23272180.1554   23272180.5404
 -12071279.67944  -9406189.32444  22070502.8274   22070503.0874
 -14399994.26644 -11220772.93844  21045261.3314   21045261.1124
 96  2 22  3 49 30.0000000  0  7G 5G24G 4G 9G 6G16G20
 -24948908.99144 -19440699.12144  20235634.8694   20235634.1994
 -13680204.63444 -10659892.49244  21044772.6034   21044772.6234
  12361302.19744   9632187.50844  23810108.9034   23810107.4134
  11588582.26344   9030063.12644  24121001.9214   24121000.5354
  -8644569.50244  -6736026.11644  23259406.7374   23259406.4324
 -12142760.23944  -9461888.44544  22056900.3904   22056900.6234
 -14457090.79244 -11265263.73744  21034396.3254   21034395.7594
 96  2 22  3 50  0.0000000  0  7G 5G24G 4G 9G 6G16G20
 -24949989.53444 -19441541.10444  20235429.2374   20235428.5894
 -13626522.45644 -10618062.22544  21054988.0384   21054987.8824
  12457189.33944   9706904.75044  23828356.0444   23828354.0394
  11680880.61644   9101983.89644  24138565.0064   24138565.9984
  -8711689.88044  -6788327.69444  23246633.9204   23246634.5044
 -12213874.82144  -9517302.39044  22043367.5404   22043368.2204
 -14513744.37744 -11309409.39044  21023615.6474   21023615.1204
 96  2 22  3 50 30.0000000  0  7G 5G24G 4G 9G 6G16G20
 -24950552.50144 -19441979.78544  20235322.0314   20235321.3494
 -13572534.38444 -10575993.60144  21065261.6604   21065261.3314
  12553136.04944   9781668.41344  23846614.2554   23846614.0494
  11773172.34644   9173899.51944  24156127.3614   24156126.7664
  -8778781.95244  -6840607.21044  23233866.7904   23233867.5114
 -12284612.94744  -9572422.98444  22029906.6844   22029906.8694
 -14569930.64444 -11353190.89844  21012923.4824   21012923.4344
 96  2 22  3 51  0.0000000  0  7G 5G24G 4G 9G 6G16G20
 -24950575.82044 -19441997.96044  20235317.7144   20235317.1864
 -13518234.76244 -10533682.21144  21075594.4844   21075594.1144
  12649145.12744   9856480.66144  23864883.9634   23864883.6574
  11865456.44344   9245809.22844  24173688.1384   24173685.6494
  -8845821.25344  -6892845.60144  23221110.5144   23221110.8424
 -12354942.58144  -9627225.28244  22016523.1854   22016523.5914
 -14625644.59744 -11396604.37344  21002321.5684   21002321.2794
 96  2 22  3 51 30.0000000  0  7G 5G24G 4G 9G 6G16G20
 -24950082.20044 -19441613.32544  20235411.4484   20235410.9314
 -13463658.89044 -10491155.55744  21085979.9434   21085979.5714
  12745157.39044   9931295.40544  23883154.4874   23883153.8714
  11957705.56744   9317691.65144  24191242.4304   24191242.6814
  -8912838.44244  -6945066.78144  23208356.9864   23208356.3874
 -12424887.78944  -9681728.02944  22003213.2484   22003213.3174
 -14680922.46044 -11439678.03244  20991802.7874   20991802.3794
 96  2 22  3 52  0.0000000  0  7G24G 4G 9G 5G 6G16G20
 -13408795.57644 -10448404.92944  21096419.9414   21096419.9354
  12841166.46544  10006107.65944  23901424.5104   23901424.4714
  12049910.40044   9389539.54244  24208787.9744   24208790.8964
 -24949050.25344 -19440809.21544  20235607.8614   20235607.1544
  -8979839.41644  -6997275.33544  23195607.2664   23195607.1914
 -12494453.14644  -9735934.79044  21989975.0464   21989975.2484
 -14735773.68844 -11482419.24944  20981364.4734   20981364.2254
 96  2 22  3 52 30.0000000  0  7G24G 4G 9G 5G 6G16G20
 -13353628.99544 -10405417.98744  21106917.6894   21106917.7114
  12937196.53044  10080936.26644  23919697.7714   23919697.3924
  12142076.43044   9461357.23544  24226325.8104   24226328.3244
 -24947447.70444 -19439560.48544  20235912.9244   20235912.1684
  -9046805.51044  -7049456.69144  23182863.2564   23182863.9724
 -12563630.62244  -9789839.30444  21976811.0954   21976811.6054
 -14790195.83044 -11524826.11144  20971008.3564   20971007.9704
 96  2 22  3 53  0.0000000  0  7G24G 4G 9G 5G 6G16G20
 -13298168.03344 -10362201.65544  21117471.7994   21117471.7434
  13033261.20144  10155791.84544  23937978.9894   23937978.2744
  12234212.23644   9533151.38444  24243859.9384   24243859.4804
 -24945260.16944 -19437855.91644  20236329.2534   20236328.7494
  -9113728.92044  -7101604.78744  23170128.7224   23170129.9974
 -12632414.45644  -9843437.08144  21963722.1384   21963722.3164
 -14844183.77944 -11566894.64144  20960735.3894   20960735.0174
 96  2 22  3 53 30.0000000  0  7G24G 4G 9G 5G 6G16G20
 -13242391.07844 -10318739.09744  21128085.8584   21128085.6314
  13129387.02244  10230695.06844  23956271.0184   23956270.5174
  12326322.19044   9604925.36844  24261387.5144   24261386.1784
 -24942484.19444 -19435692.82344  20236857.4124   20236856.6204
  -9180604.34044  -7153715.47744  23157402.7664   23157402.7774
 -12700803.97344  -9896727.60244  21950707.9594   21950707.9784
 -14897738.07544 -11608625.26244  20950543.8764   20950543.7694
 96  2 22  3 54  0.0000000  0  7G24G 4G 9G 5G 6G16G20
 -13186313.68544 -10275042.42244  21138756.9984   21138756.5154
  13225588.80144  10305657.47244  23974577.8744   23974576.5874
  12418400.79444   9676674.91344  24278909.7894   24278910.2714
 -24939146.38044 -19433091.93644  20237492.4944   20237491.9494
  -9247422.62544  -7205781.66344  23144688.0174   23144686.9084
 -12768803.36444  -9949714.12944  21937768.0154   21937768.1214
 -14950854.80444 -11650014.92244  20940436.0724   20940435.7334
 96  2 22  3 54 30.0000000  0  7G24G 4G 9G 5G 6G16G20
 -13129952.80444 -10231124.85244  21149481.9774   21149482.0474
  13321861.81944  10380675.40544  23992898.3624   23992896.3764
  12510463.95244   9748412.43244  24296429.7394   24296430.6774
 -24935265.24244 -19430067.67744  20238231.1874   20238230.5584
  -9314173.99244  -7257795.70944  23131985.8564   23131985.2894
 -12836402.31744 -10002388.62144  21924904.5394   21924905.0114
 -15003509.56344 -11691044.61344  20930416.5824   20930416.1484
 96  2 22  3 55  0.0000000  0  7G24G 4G 9G 5G 6G16G20
 -13073322.88944 -10186997.65244  21160258.4234   21160258.4644
  13418173.66244  10455723.59644  24011225.4504   24011226.2184
  12602502.20344   9820130.57644  24313943.3724   24313944.1554
 -24930871.73244 -19426644.16744  20239067.2444   20239066.5324
  -9380881.06844  -7309775.22844  23119292.0924   23119291.7344
 -12903606.50744 -10054755.50744  21912115.6434   21912116.0994
 -15055699.02344 -11731711.73144  20920485.1464   20920484.9124
 96  2 22  3 55 30.0000000  0  7G24G 4G 9G 5G 6G16G20
 -13016430.59944 -10142665.99944  21171085.0294   21171084.5584
  13514508.65644  10530789.80344  24029557.0844   24029555.4674
  12694500.58444   9891817.58344  24331450.3694   24331450.3974
 -24925985.93444 -19422837.05944  20239996.8724   20239996.1114
  -9447559.90244  -7361732.79444  23106603.3894   23106603.8024
 -12970416.18544 -10106814.97944  21899402.4414   21899403.0374
 -15107416.90844 -11772011.38344  20910643.3304   20910643.0964
 96  2 22  3 56  0.0000000  0  7G24G 4G 9G 5G 6G16G20
 -12959297.80344 -10098146.93244  21181956.7604   21181956.5134
  13610863.53644  10605871.52544  24047892.3144   24047891.4044
  12786451.42344   9963467.59244  24348947.0914   24348947.4544
 -24920607.30844 -19418645.92944  20241020.5314   20241019.6164
  -9514208.52044  -7413666.75744  23093921.0654   23093920.3004
 -13036818.85444 -10158557.31244  21886766.0864   21886766.6714
 -15158640.95544 -11811926.22444  20900895.5724   20900895.5584
 96  2 22  3 56 30.0000000  0  7G24G 4G 9G 5G 6G16G20
 -12901911.04144 -10053429.97644  21192877.1494   21192877.0724
  13707236.45044  10680967.29144  24066231.6614   24066231.7954
  12878341.40844  10035070.17844  24366432.8134   24366432.9494
 -24914716.15744 -19414055.42844  20242141.3144   20242140.7264
  -9580842.14244  -7465589.02644  23081240.6834   23081240.2524
 -13102809.96244 -10209978.94644  21874208.5504   21874208.9624
 -15209379.26244 -11851462.56644  20891240.3364   20891240.0854
 96  2 22  3 57  0.0000000  0  7G24G 4G 5G 9G 6G16G20
 -12844264.14544 -10008510.32244  21203847.2374   21203847.0664
  13803630.37044  10756079.44944  24084575.2634   24084574.9594
 -24908301.37644 -19409056.90344  20243362.2094   20243361.6424
  12970155.01344  10106613.23744  24383904.8704   24383905.5344
  -9647464.23644  -7517502.33444  23068562.9244   23068561.9394
 -13168394.47944 -10261083.74444  21861728.4584   21861729.0584
 -15259650.15044 -11890634.69444  20881674.3544   20881674.0144
 96  2 22  3 57 30.0000000  0  7G24G 4G 5G 9G 6G16G20
 -12786352.89944  -9963384.68044  21214867.0324   21214866.6564
  13900047.23144  10831209.46444  24102922.0034   24102921.3474
 -24901344.83044 -19403636.22944  20244685.9904   20244685.3424
  13061895.28044  10178099.15944  24401362.6224   24401362.3024
  -9714071.10044  -7569403.77144  23055887.8104   23055887.2914
 -13233566.18644 -10311866.87944  21849326.6284   21849326.9244
 -15309461.33344 -11929448.60144  20872195.7994   20872195.3314
 96  2 22  3 58  0.0000000  0  7G24G 4G 9G 5G 6G16G20
 -12728182.64644  -9918057.20544  21225936.5024   21225936.0664
  13996459.52244  10906335.92944  24121269.7644   24121269.6314
  13153576.70544  10249539.22244  24418809.2154   24418809.9224
 -24893845.89544 -19397792.90644  20246113.2174   20246112.2534
  -9780664.96544  -7621295.08544  23043215.1884   23043215.5724
 -13298331.69244 -10362333.49544  21837002.4174   21837002.8314
 -15358826.28844 -11967914.80344  20862802.1644   20862801.7864
 96  2 22  3 58 30.0000000  0  7G24G 4G 5G 9G 6G16G20
 -12669727.83144  -9872507.99944  21237060.1144   21237059.6424
  14092860.37944  10981453.49344  24139613.3974   24139612.5054
 -24885779.48344 -19391507.39744  20247648.1334   20247647.4234
  13245231.33544  10320958.42544  24436250.3524   24436250.7014
  -9847225.06744  -7673160.08344  23030549.3144   23030548.4064
 -13362684.06144 -10412478.18644  21824756.1664   21824756.4734
 -15407740.69144 -12006029.91544  20853493.1674   20853493.2254
 96  2 22  3 59  0.0000000  0  7G24G 4G 5G 9G 6G16G20
 -12611003.94144  -9826749.13244  21248235.0304   21248234.5824
  14189238.33244  11056553.13444  24157954.4724   24157953.3044
 -24877155.99644 -19384787.80644  20249289.1214   20249288.2604
  13336855.65044  10392353.98644  24453685.2644   24453685.5884
  -9913741.08544  -7724990.72844  23017892.5274   23017891.8674
 -13426608.61744 -10462289.51544  21812592.2314   21812592.6044
 -15456195.42144 -12043786.84844  20844272.9954   20844272.6604
 96  2 22  3 59 30.0000000  0  7G24G 4G 5G 9G 6G16G20
 -12552017.44144  -9780785.62844  21259459.7884   21259459.2654
  14285593.63244  11131635.19144  24176290.4594   24176289.4814
 -24867993.49444 -19377648.20744  20251032.6024   20251032.0534
  13428449.54044  10463725.82744  24471115.0014   24471116.1784
  -9980199.81744  -7776776.73244  23005245.2524   23005245.0924
 -13490093.06444 -10511757.90644  21800511.1114   21800511.7684
 -15504180.07644 -12081177.49544  20835141.8564   20835141.5254
 96  2 22  4  0  0.0000000  0  7G24G 4G 5G 9G 6G16G20
 -12492775.47744  -9734623.06244  21270733.2414   21270732.8994
  14381933.30744  11206705.07444  24194623.2844   24194619.8064
 -24858295.76544 -19370091.54444  20252877.8764   20252877.0834
  13520001.17044  10535064.76444  24488537.1654   24488538.1784
 -10046580.34844  -7828501.81144  22992613.6314   22992613.3114
 -13553134.93044 -10560881.42444  21788514.2564   21788514.8794
 -15551685.51444 -12118194.71844  20826102.0184   20826101.7034
 96  2 22  4  0 30.0000000  0  7G24G 4G 5G 9G 6G16G20
 -12433286.31544  -9688267.87344  21282053.5334   21282052.9624
  14478274.20644  11281775.92944  24212955.8234   24212955.4814
 -24848062.60144 -19362117.65744  20254825.4904   20254824.9794
  13611466.04944  10606336.09844  24505941.9874   24505940.0724
 -10112900.97544  -7880180.18644  22979992.8264   22979992.6334
 -13615739.14144 -10609663.91244  21776601.1804   21776601.7294
 -15598722.79644 -12154847.14944  20817150.7994   20817150.4694
 96  2 22  4  1  0.0000000  0  7G24G 5G 4G 9G 6G16G20
 -12373550.20444  -9641720.25644  21293420.7364   21293420.3684
 -24837295.47644 -19353727.69744  20256874.1984   20256873.4754
  14574634.33444  11356861.71344  24231292.7644   24231289.8414
  13702834.22544  10677532.07144  24523329.7444   24523327.1954
 -10179162.38444  -7931812.43544  22967383.8304   22967382.2384
 -13677889.91944 -10658093.07544  21764774.5664   21764774.7264
 -15645272.17044 -12191119.38744  20808293.0144   20808292.6764
 96  2 22  4  1 30.0000000  0  7G24G 5G 4G 9G 6G16G20
 -12313566.40244  -9594979.63944  21304835.2064   21304835.2484
 -24825983.46444 -19344913.14644  20259026.6634   20259026.1914
  14671022.95944  11431969.73644  24249634.9554   24249631.8884
  13794117.19444  10748661.66444  24540699.5584   24540701.7204
 -10245374.29744  -7983406.11344  22954784.2344   22954783.3154
 -13739611.92244 -10706188.12644  21753029.2214   21753029.4924
 -15691329.20744 -12227007.99044  20799528.4824   20799528.1254
 96  2 22  4  2  0.0000000  0  7G24G 5G 4G 9G 6G16G20
 -12253342.16744  -9548051.66944  21316295.6874   21316294.7734
 -24814113.16044 -19335663.56644  20261285.6254   20261284.6804
  14767440.93344  11507100.68044  24267981.6124   24267979.2814
  13885308.26544  10819719.63444  24558054.1944   24558052.9404
 -10311569.24244  -8034986.58144  22942187.5494   22942187.2164
 -13800918.17844 -10753959.22144  21741363.0544   21741363.3904
 -15736889.22644 -12262509.30544  20790858.8064   20790858.4134
 96  2 22  4  2 30.0000000  0  7G24G 5G 4G 9G 6G16G20
 -12192882.73244  -9500940.42244  21327800.9044   21327800.1434
 -24801689.72744 -19325982.97544  20263649.7504   20263648.6864
  14863879.70744  11582247.75044  24286333.5094   24286329.0424
  13976403.51244  10890702.93844  24575387.6664   24575388.5654
 -10377772.92444  -8086573.84544  22929589.2524   22929588.5644
 -13861816.62744 -10801412.54744  21729774.4834   21729774.7924
 -15781951.58644 -12297622.83444  20782283.8014   20782283.4264
 96  2 22  4  3  0.0000000  0  7G24G 5G 4G 9G 6G16G20
 -12132187.16444  -9453645.18144  21339350.8634   21339350.5294
 -24788724.90044 -19315880.51944  20266116.9284   20266116.1064
  14960331.23044  11657404.79544  24304687.3754   24304686.7674
  14067420.45244  10961625.19444  24592708.3314   24592709.7044
 -10443969.45544  -8138155.53844  22916992.2214   22916991.8304
 -13922303.47244 -10848545.14444  21718264.2134   21718264.5344
 -15826500.42344 -12332336.21544  20773806.3434   20773805.9614
 96  2 22  4  3 30.0000000  0  7G24G 4G 5G 9G 6G16G20
 -12071235.32044  -9406150.24644  21350949.3784   21350949.3204
  15056802.93144  11732577.51444  24323044.9304   24323044.0614
 -24775202.53144 -19305343.61344  20268690.0584   20268689.4674
  14158375.76344  11032499.48244  24610017.2484   24610018.4194
 -10510151.60044  -8189726.02644  22904398.2664   22904397.8164
 -13982366.77144 -10895347.70044  21706834.5834   21706834.7854
 -15870527.64544 -12366643.14844  20765428.1844   20765428.0164
 96  2 22  4  4  0.0000000  0  7G24G 5G 4G 9G 6G16G20
 -12010022.96744  -9358452.31044  21362597.8814   21362597.4734
 -24761132.86044 -19294380.23944  20271367.5484   20271366.9314
  15153274.65844  11807750.26544  24341403.7354   24341400.2514
  14249251.56444  11103311.78344  24627309.3844   24627307.9354
 -10576310.88144  -8241278.69344  22891808.7624   22891809.1754
 -14041985.57044 -10941803.89144  21695489.0984   21695489.4814
 -15914041.32044 -12400549.91344  20757147.9154   20757147.5924
 96  2 22  4  4 30.0000000  0  7G24G 5G 4G 9G 6G16G20
 -11948557.87744  -9310557.43844  21374294.3304   21374294.0114
 -24746530.23144 -19283001.57544  20274146.4344   20274145.8934
  15249717.37344  11882900.48144  24359755.1814   24359757.0864
  14340042.23944  11174057.76144  24644585.3254   24644584.9734
 -10642433.67944  -8292802.93044  22879226.0274   22879226.1694
 -14101161.24044 -10987914.79044  21684228.6824   21684228.8154
 -15957060.29944 -12434071.20044  20748961.8234   20748961.5174
 96  2 22  4  5  0.0000000  0  7G24G 5G 4G 9G 6G16G20
 -11886832.81744  -9262459.99244  21386039.8664   21386039.8844
 -24731384.54744 -19271199.75244  20277028.5164   20277027.9824
  15346139.35144  11958034.45544  24378105.5124   24378100.4504
  14430757.77344  11244745.16244  24661849.4034   24661848.8294
 -10708496.50944  -8344280.45144  22866654.7434   22866654.4764
 -14159872.61544 -11033663.89544  21673056.4844   21673056.4084
 -15999574.95644 -12467199.50844  20740871.2444   20740870.9024
 96  2 22  4  5 30.0000000  0  7G24G 5G 4G 9G 6G16G20
 -11824857.12044  -9214167.24344  21397834.0384   21397833.9904
 -24715701.38244 -19258979.11144  20280012.9264   20280012.1774
  15442531.62144  12033145.31444  24396447.5724   24396445.2424
  14521379.88144  11315359.81044  24679093.3464   24679090.1744
 -10774508.20144  -8395718.12444  22854092.6754   22854092.5894
 -14218115.69444 -11079048.10244  21661972.8564   21661972.6584
 -16041604.42944 -12499949.75244  20732873.5434   20732873.0234
 96  2 22  4  6  0.0000000  0  7G24G 5G 4G 9G 6G16G20
 -11762639.45544  -9165685.94744  21409673.2024   21409673.2064
 -24699486.53844 -19246344.17344  20283098.5284   20283097.8394
  15538897.88344  12108235.94044  24414786.5824   24414786.2974
  14611895.87944  11385891.78444  24696317.6324   24696317.2944
 -10840456.61844  -8447106.48744  22841543.4984   22841543.7224
 -14275882.77544 -11124061.39244  21650979.9464   21650980.3194
 -16083143.64444 -12532317.97544  20724968.9254   20724968.4444
 96  2 22  4  6 30.0000000  0  8G24G 5G 4G 9G17G 6G16G20
 -11700165.43444  -9117004.89044  21421561.4264   21421561.2194
 -24682715.23744 -19233275.63344  20286289.9024   20286289.3014
  15635274.42244  12183334.50444  24433125.4454   24433125.5854
  14702330.25244  11456360.12344  24713526.6624   24713528.6334
        -0.56154                  25548847.6804
 -10906329.69244  -8498436.12644  22829008.2034   22829007.7194
 -14333148.50144 -11168684.02044  21640082.3194   21640082.7204
 -16124169.42744 -12564286.12044  20717161.6844   20717161.6124
 96  2 22  4  7  0.0000000  0  8G24G 5G 4G 9G17G 6G16G20
 -11637477.24244  -9068156.95244  21433490.6554   21433490.4164
 -24665413.47644 -19219793.75144  20289582.2854   20289581.7134
  15731644.08044  12258427.68444  24451463.9474   24451463.5014
  14792646.65644  11526736.54844  24730713.4704   24730715.1604
    -98542.91344                  25530097.0604
 -10972167.57844  -8549738.36144  22816479.8964   22816479.3054
 -14389940.12644 -11212937.22144  21629276.0624   21629276.2654
 -16164713.56844 -12595878.96044  20709446.2864   20709445.8704
 96  2 22  4  7 30.0000000  0  8G24G 5G 4G 9G17G 6G16G20
 -11574598.44944  -9019160.49444  21445456.4744   21445456.7024
 -24647584.21944 -19205900.82544  20292975.0164   20292974.4704
  15827998.57844  12333509.12944  24469800.1054   24469799.3804
  14882842.00444  11597018.64544  24747877.0674   24747877.6364
   -196973.55944                  25511365.8934
 -11037986.18244  -8601025.57344  22803955.1244   22803954.8514
 -14446274.84644 -11256834.39044  21618555.2794   21618555.5984
 -16204782.80544 -12627101.75044  20701821.8274   20701821.5034
 96  2 22  4  8  0.0000000  0  8G24G 5G 4G 9G17G 6G16G20
 -11511527.57544  -8970014.35944  21457458.1344   21457458.1394
 -24629202.79344 -19191577.64444  20296473.1734   20296472.2844
  15924353.48344  12408590.88644  24488136.0474   24488136.5024
  14972949.87144  11667232.55244  24765025.0124   24765024.6404
   -295274.82244   -230083.77544  25492661.6074
 -11103782.37344  -8652295.31444  22791434.1584   22791434.4494
 -14502134.42844 -11300361.32244  21607925.7624   21607926.1264
 -16244346.59044 -12657930.67344  20694293.2564   20694292.8374
 96  2 22  4  8 30.0000000  0  7G24G 5G 4G 9G 6G16G20
 -11448264.81344  -8920718.70244  21469497.1394   21469496.9924
 -24610252.00744 -19176810.80844  20300079.3054   20300078.5484
  16020715.73744  12483678.34644  24506473.9674   24506472.0074
  15062991.23244  11737394.64344  24782158.7334   24782158.7604
 -11169546.27444  -8703539.89044  22778919.9734   22778919.9074
 -14557516.80644 -11343516.40644  21597387.0754   21597387.4134
 -16283390.96644 -12688354.86844  20686863.2004   20686862.7884
 96  2 22  4  9  0.0000000  0  7G24G 5G 4G 9G 6G16G20
 -11384824.23844  -8871284.48944  21481569.0674   21481568.6604
 -24590755.43244 -19161618.67744  20303789.3794   20303788.5634
  16117063.37244  12558754.41144  24524807.8934   24524805.9534
  15152947.18344  11807490.20844  24799276.8874   24799277.2594
 -11235285.91444  -8754765.56944  22766410.1824   22766410.2874
 -14612438.24144 -11386312.31744  21586935.7764   21586935.8124
 -16321917.46244 -12718375.51744  20679531.7554   20679531.3954
 96  2 22  4  9 30.0000000  0  7G 5G24G 4G 9G 6G16G20
 -24570733.58244 -19146017.24244  20307599.4634   20307598.7144
 -11321191.11744  -8821700.24044  21493678.1254   21493677.7804
  16213380.83044  12633806.99844  24543136.4724   24543135.1184
  15242797.05944  11877503.11744  24816376.2264   24816375.9384
 -11301005.09844  -8805975.30544  22753904.1584   22753903.5324
 -14666897.25244 -11428747.90244  21576572.7314   21576572.7714
 -16359916.68744 -12747985.30844  20672300.6894   20672300.3034
 96  2 22  4 10  0.0000000  0  7G 5G24G 4G 9G 6G16G20
 -24550178.12644 -19130000.00944  20311511.0004   20311510.4244
 -11257323.34644  -8771933.14344  21505831.6494   21505831.4204
  16309666.12144  12708834.51544  24561458.7244   24561458.3684
  15332530.29144  11947425.10044  24833450.2574   24833450.9754
 -11366688.75644  -8857157.36044  22741404.8264   22741404.3094
 -14720882.59044 -11470814.38744  21566299.8704   21566299.6414
 -16397381.10444 -12777178.36444  20665171.2754   20665171.1404
 96  2 22  4 10 30.0000000  0  7G24G 5G 4G 9G 6G16G20
 -11193208.60044  -8721973.60544  21518032.2194   21518032.2554
 -24529086.90444 -19113565.29944  20315524.3164   20315523.6784
  16405907.27144  12783827.64244  24579772.1124   24579773.4294
  15422114.07844  12017230.62544  24850497.7844   24850494.7404
 -11432323.77844  -8908301.50444  22728914.9094   22728913.9724
 -14774407.50944 -11512522.10144  21556114.1754   21556114.1114
 -16434330.01844 -12805969.72244  20658140.1814   20658139.7434
 96  2 22  4 11  0.0000000  0  8G24G 5G 4G 9G17G 6G16G20
 -11128830.18644  -8671808.60844  21530282.8754   21530282.6874
 -24507441.95744 -19096699.11044  20319643.4944   20319642.8264
  16502104.90644  12858786.80344  24598077.0964   24598077.1294
  15511548.51244  12086919.80544  24867516.2664   24867517.0334
        -0.53354                  25380833.2734
 -11497897.69144  -8959398.04144  22716436.8054   22716435.8754
 -14827454.56244 -11553857.45444  21546019.2924   21546019.4244
 -16470768.47144 -12834363.32744  20651206.1694   20651205.8604
 96  2 22  4 11 30.0000000  0  8G24G 6G 5G 4G 9G17G16G20
 -11064205.98644  -8621452.08944  21542580.5744   21542580.7934
 -11563421.98544  -9010455.92544  22703967.8174   22703966.5954
 -24485234.87344 -19079394.89744  20323869.1734   20323868.5594
  16598234.95544  12933693.30844  24616370.1784   24616370.1974
  15600815.35444  12156478.43744  24884502.8644
    -97648.62944    -76089.68244  25362252.1434
 -14880047.21844 -11594838.73344  21536011.6184   21536011.8264
 -16506718.60844 -12862376.42144  20644365.0894   20644364.9164
 96  2 22  4 12  0.0000000  0  8G24G 6G 5G 4G 9G17G16G20
 -10999358.39744  -8570921.50444  21554920.9004   21554920.8694
 -11628892.44244  -9061471.84844  22691509.5944   22691508.6214
 -24462451.54744 -19061641.66544  20328204.8924   20328204.0214
  16694299.79744  13008549.02844  24634651.6994   24634653.2494
  15689925.85644  12225915.22344  24901460.1694   24901457.7184
   -195220.32344   -152119.59844  25343686.0024
 -14932189.32244 -11635468.93344  21526088.9124   21526088.9914
 -16542189.95244 -12890016.43644  20637615.2894   20637614.7014
 96  2 22  4 12 30.0000000  0  8G24G 6G 5G 4G 9G17G16G20
 -10934325.27244  -8520246.34444  21567296.1004   21567296.2094
 -11694310.26544  -9112446.75144  22679060.5054   22679059.8794
 -24439106.16244 -19043450.46144  20332647.2904   20332646.6514
  16790315.43244  13083366.41244  24652922.2504   24652923.1704
  15778892.42044  12295239.75244  24918389.2564
   -292700.21344   -228077.95944  25325135.7254
 -14983872.40244 -11675741.44944  21516253.7694   21516254.2924
 -16577187.40644 -12917287.18244  20630955.5964   20630955.0774
 96  2 22  4 13  0.0000000  0  8G24G 5G 4G 9G17G 6G16G20
 -10869062.59344  -8469392.32044  21579715.2774   21579715.1844
 -24415165.79844 -19024795.64044  20337202.9184   20337202.2034
  16886341.90744  13158192.22344  24671195.1044   24671194.8254
  15867778.32244  12364501.48244  24935303.9984   24935302.2684
   -390026.68044   -303916.75744  25306615.5254
 -11759627.71544  -9163343.44644  22666631.1294   22666630.7444
 -15035039.14644 -11715611.62044  21506517.2304   21506517.5444
 -16611634.75944 -12944129.27744  20624400.3564   20624400.0294
 96  2 22  4 13 30.0000000  0  8G24G 6G 5G 4G 9G17G16G20
 -10803572.76044  -8418361.28244  21592177.8264   21592177.4894
 -11824860.91344  -9214174.50044  22654217.1814   22654217.2474
 -24390654.19644 -19005695.69944  20341867.3844   20341866.8374
  16982377.78644  13233025.40244  24689470.5264   24689471.3874
  15956582.07844  12433699.22744  24952203.0324   24952200.8704
   -487181.55744   -379621.83944  25288125.0964
 -15085687.34444 -11755077.73144  21496879.3134   21496879.5774
 -16645513.86844 -12970528.58544  20617953.4994   20617953.0594
 96  2 22  4 14  0.0000000  0  8G24G 6G 5G 4G 9G17G16G20
 -10737887.08444  -8367177.63444  21604677.5044   21604677.1784
 -11890043.57944  -9264966.15744  22641813.1554   22641813.7384
 -24365622.33644 -18986190.36144  20346630.6474   20346630.2284
  17078402.60844  13307850.00844  24707743.7324   24707745.1494
  16045280.52444  12502814.92044  24969082.5724   24969082.3474
   -584182.72444                  25269661.5594
 -15135830.32344 -11794150.16944  21487337.3054   21487337.3084
 -16678850.20044 -12996504.95144  20611609.7524   20611609.4244
 96  2 22  4 14 30.0000000  0  8G24G 6G16G 5G 4G 9G17G20
 -10672010.43844  -8315845.18444  21617213.2044   21617213.1344
 -11955187.39144  -9315727.55744  22629417.1694   22629416.9714
 -15185469.99744 -11832830.42044  21477891.3304   21477891.7814
 -24340076.57444 -18966284.57844  20351492.1004   20351491.5304
  17174408.12344  13382659.44544  24726013.3364   24726013.0484
  16133869.30044  12571845.14444  24985939.2584   24985939.9084
   -681041.72544                  25251225.6874
 -16711637.11844 -13022053.20244  20605370.5184   20605370.3684
 96  2 22  4 15  0.0000000  0  7G24G 6G16G 5G 4G 9G20
 -10605947.82644  -8264367.82744  21629784.5394   21629784.4264
 -12020318.38344  -9366478.97644  22617022.8024   22617022.4304
 -15234613.12744 -11871123.75044  21468539.6024   21468540.0844
 -24314018.20944 -18945979.36444  20356450.8584   20356450.2784
  17270352.53944  13457421.26944  24744269.9574   24744269.9814
  16222325.62644  12640772.12944  25002772.8354   25002773.7624
 -16743875.46944 -13047173.99844  20599235.9034   20599235.5954
 96  2 22  4 15 30.0000000  0  7G24G 6G 5G 4G 9G16G20
 -10539701.17544  -8212747.06344  21642390.6524   21642390.3174
 -12085432.80744  -9417217.47044  22604631.8834   22604632.1034
 -24287438.22344 -18925267.69644  20361508.6544   20361507.9364
  17366235.32544  13532135.11444  24762516.2634   24762517.9084
  16310654.36844  12709599.70344  25019581.3194   25019581.8474
 -15283245.58044 -11909019.15044  21459285.0954   21459285.3654
 -16775572.56044 -13071873.03244  20593204.3394   20593203.9244
 96  2 22  4 16  0.0000000  0  8G24G 6G 5G 4G 9G17G16G20
 -10473273.66244  -8160985.36744  21655031.7144   21655031.4164
 -12150522.83344  -9467936.95744  22592246.3204   22592245.8114
 -24260317.53544 -18904134.70144  20366669.4374   20366668.8424
  17462075.56644  13606815.84344  24780752.6684   24780749.5944
  16398858.33644  12778330.06944  25036366.2944   25036367.8594
        -0.55554         1.02554  25196090.4544   25196090.4244
 -15331360.58444 -11946511.34744  21450129.0524   21450129.6064
 -16806724.02044 -13096146.90444  20587276.3204   20587275.8754
 96  2 22  4 16 30.0000000  0  8G24G 6G16G 5G 4G 9G17G20
 -10406683.56344  -8109096.97444  21667702.9814   21667702.5414
 -12215605.42944  -9518650.65444  22579861.1954   22579860.5894
 -15378975.77744 -11983614.07644  21441068.0354   21441068.2524
 -24232673.11544 -18882593.60244  20371930.2604   20371929.6254
  17557848.60244  13681444.21244  24798979.8004   24798978.7184
  16486903.22744  12846936.48744  25053120.0344   25053118.4194
    -96371.47344    -75093.21844  25177753.4164   25177750.2594
 -16837342.79344 -13120005.69144  20581449.5974   20581449.4504
 96  2 22  4 17  0.0000000  0  8G24G 6G16G 5G 4G 9G17G20
 -10339918.95044  -8057072.59744  21680408.0724   21680407.5934
 -12280662.58544  -9569344.52144  22567481.7434   22567480.8054
 -15426088.22444 -12020325.05844  21432103.2754   21432103.5274
 -24204514.59944 -18860651.90844  20377288.4994   20377287.8594
  17653552.43044  13756018.65944  24817191.4974   24817190.4844
  16574769.55044                  25069839.7084
   -192637.66244   -150105.87244  25159434.5304   25159430.3484
 -16867425.22044 -13143446.54344  20575724.9704   20575725.0844
 96  2 22  4 17 30.0000000  0  8G24G 6G16G 5G 4G 9G17G20
 -10272958.23544  -8004895.41444  21693150.0274   21693149.9014
 -12345660.14844  -9619991.95944  22555113.0264   22555112.2304
 -15472685.18544 -12056634.36344  21423235.8814   21423236.3214
 -24175829.90744 -18838300.20744  20382747.0784   20382746.5644
  17749218.96044  13830564.02644  24835396.5864   24835394.7524
  16662470.50344  12983742.13344  25086529.3544
   -288797.26144   -225035.49844  25141135.6334   25141129.1914
 -16896956.05444 -13166457.58744  20570105.4994   20570105.4104
 96  2 22  4 18  0.0000000  0  8G24G 6G16G 5G 4G 9G17G20
 -10205795.13644  -7952560.54144  21705930.8564   21705930.7854
 -12410589.17544  -9670585.98844  22542757.2054   22542756.7004
 -15518760.02244 -12092536.81944  21414468.1644   21414468.3804
 -24146603.11444 -18815526.09044  20388308.7524   20388308.2314
  17844851.76144  13905083.04544  24853594.8764   24853593.1144
  16749994.83644  13051942.92044  25103183.8254
   -384844.61044   -299877.63544  25122858.2024   25122856.7834
 -16925935.62944 -13189039.07444  20564591.2554   20564590.9854
 96  2 22  4 18 30.0000000  0  8G24G 6G16G 5G 4G 9G17G20
 -10138435.61744  -7900072.60344  21718749.1314   21718748.7804
 -12475433.70144  -9721114.17144  22530417.6614   22530417.2414
 -15564315.00544 -12128034.19544  21405799.4004   21405799.6944
 -24116832.66344 -18792328.34144  20393973.9564   20393973.4854
  17940431.05144  13979560.44444  24871783.2784   24871784.0974
  16837328.64844                  25119803.8534
   -480773.46744   -374627.40144  25104600.6454   25104599.0494
 -16954375.63544 -13211200.12344  20559178.7994   20559178.6594
 96  2 22  4 19  0.0000000  0  8G24G 6G16G 5G 4G 9G17G20
 -10070891.78944  -7847441.04844  21731602.0144   21731601.9364
 -12540196.34044  -9771578.55444  22518093.5544   22518093.6254
 -15609349.20444 -12163125.76344  21397229.5634   21397229.9104
 -24086505.19344 -18768696.55544  20399745.0724   20399744.4634
  18035966.11844  14054003.36444  24889963.5274   24889961.6414
  16924488.68544  13187912.17944  25136389.6504   25136388.2544
   -576585.51544                  25086362.6024
 -16982278.58944 -13232942.68944  20553869.1184   20553868.9694
 96  2 22  4 19 30.0000000  0  8G24G 6G16G 5G 4G 9G17G20
 -10003181.42544  -7794679.72644  21744487.1864   21744486.5714
 -12604886.98844  -9821986.83744  22505783.0944   22505782.6744
 -15653865.55444 -12197813.81644  21388758.1354   21388758.5304
 -24055604.30044 -18744617.94744  20405625.2654   20405624.6674
  18131478.67444  14128428.72444  24908137.4364
  17011494.32244  13255708.78544  25152947.2204   25152946.7734
   -672269.59544                  25068150.3004
 -17009647.02944 -13254268.75144  20548661.0874   20548660.6974
 96  2 22  4 20  0.0000000  0  8G24G 6G16G 5G 4G 9G17G20
  -9935319.44344  -7741800.25644  21757400.7814   21757400.7924
 -12669518.26044  -9872348.86344  22493484.1564   22493483.5874
 -15697870.31244 -12232103.22344  21380384.5134   21380384.9874
 -24024132.72744 -18720094.65244  20411614.3514   20411613.7984
  18226965.51044  14202834.07744  24926308.7754   24926309.0654
  17098337.51844  13323378.81844  25169471.5564   25169470.0784
   -767817.78444                  25049972.1584
 -17036482.24544 -13275179.31144  20543554.5414   20543554.5984
 96  2 22  4 20 30.0000000  0  8G24G 6G16G 5G 4G 9G17G20
  -9867324.08744  -7688816.87244  21770339.8154   21770339.9644
 -12734107.59744  -9922678.20844  22481193.1084   22481192.5564
 -15741386.98044 -12266012.29844  21372103.4994   21372103.9004
 -23992121.49344 -18695150.84244  20417705.7124   20417705.1734
  18322406.77344  14277203.88844  24944469.9064   24944471.0874
  17185014.48044  13390919.37244  25185966.2484
   -863250.11644                  25031815.0234
 -17062789.18644 -13295678.22544  20538548.4224   20538548.3844
 96  2 22  4 21  0.0000000  0  8G24G 6G16G 5G 4G 9G17G20
  -9799100.32144  -7635655.50544  21783322.2014   21783322.4774
 -12798581.39044  -9972917.51844  22468924.7764   22468923.9254
 -15784317.70944 -12299464.80244  21363934.3464   21363934.4054
 -23959488.30444 -18669722.39244  20423915.5534   20423915.0414
  18417901.63044  14351615.44144  24962642.3674   24962642.6664
  17271619.98244  13458404.12244  25202447.8464   25202447.9994
   -958476.57344                  25013695.3024
 -17088471.88444 -13315690.72144  20533661.4984   20533661.3574
 96  2 22  4 21 30.0000000  0  8G24G 6G16G 5G 4G 9G17G20
  -9730666.76944  -7582330.66444  21796344.7804   21796345.1194
 -12862971.91044 -10023091.93844  22456671.7374   22456671.0564
 -15826691.28544 -12332483.16144  21355870.7474   21355870.9764
 -23926274.64844 -18643841.63744  20430235.6184   20430235.1144
  18513399.07844                  24980812.9254
  17358091.16944  13525784.32744  25218901.6124   25218902.1074
  -1053534.30244   -820934.54944  24995609.4304   24995606.5494
 -17113571.14144 -13335248.58444  20528884.7594   20528884.5634
 96  2 22  4 22  0.0000000  0  8G24G 6G16G 5G 4G 9G17G20
  -9662125.09444  -7528921.56144  21809388.0554   21809387.5854
 -12927406.65244 -10073300.81444  22444410.5014   22444409.4574
 -15868616.35944 -12365152.03544  21347892.7024   21347893.1214
 -23892615.60844 -18617613.82444  20436641.1584   20436640.6054
  18608755.67444                  24998958.2154
  17444292.55044  13592954.21744  25235305.8604   25235304.8554
  -1148547.66844   -894970.92544  24977529.7834   24977527.2884
 -17138205.24644 -13354443.99344  20524197.4994   20524197.1654
 96  2 22  4 22 30.0000000  0  7G24G 6G16G 5G 9G17G20
  -9593397.32444  -7475367.45044  21822465.9824   21822465.6344
 -12991817.80344 -10123491.31644  22432152.8354   22432151.8994
 -15910014.71644 -12397410.48444  21340015.1254   21340015.2964
 -23858450.31244 -18590991.51844  20443142.2944   20443141.7064
  17530298.61844  13659971.93144  25251671.6354   25251671.9394
  -1243441.84144   -968914.45144  24959471.4714   24959468.7034
 -17162306.17544 -13373223.93944  20519611.0684   20519610.7554
 96  2 22  4 23  0.0000000  0  8G24G 6G16G 5G25G 9G17G20
  -9524453.61944  -7421645.09444  21835586.0914   21835585.9654
 -13056181.75144 -10173645.02644  22419904.8854   22419903.8674
 -15950848.21644 -12429228.78244  21332244.3834   21332244.7814
 -23823742.89344 -18563946.78344  20449747.0504   20449746.4874
        -0.89154                  25097978.1204
  17616136.69944  13726858.72744  25268006.0254   25268005.4734
  -1338168.08544  -1042727.09044  24941444.4244   24941445.0634
 -17185835.72844 -13391558.65744  20515133.6174   20515133.4814
 96  2 22  4 23 30.0000000  0  8G24G 6G16G 5G25G 9G17G20
  -9455299.62644  -7367758.87244  21848745.7454   21848745.3594
 -13120493.78244 -10223758.27444  22407666.7664   22407666.1804
 -15991131.41544 -12460618.27444  21324578.8464   21324578.7984
 -23788497.53644 -18536482.87644  20456453.9354   20456453.5184
    -28679.69444                  25092521.5264
  17701803.42244  13793611.99744  25284307.1004
  -1432726.57444  -1116409.02744  24923447.0864   24923451.3994
 -17208787.81344 -13409443.40144  20510765.7424   20510765.3954
 96  2 22  4 24  0.0000000  0  7G24G 6G 5G 9G17G16G20
  -9386000.59044  -7313759.63044  21861932.6394   21861932.6894
 -13184798.32944 -10273865.69344  22395429.8254   22395429.4014
 -23752764.80044 -18508639.19344  20463253.8834   20463253.2844
  17787264.01244  13860204.66344  25300570.7024
  -1527163.16044  -1189995.93544  24905473.8334
 -16030922.35744 -12491624.18944  21317007.2094   21317007.3944
 -17231195.42644 -13426903.88244  20506501.6914   20506501.6474
 96  2 22  4 24 30.0000000  0  7G24G 6G16G 5G 9G17G20
  -9316591.54644  -7259674.66044  21875140.8274   21875140.5504
 -13249091.31944 -10323964.11144  22383195.9904   22383194.5134
 -16070235.93044 -12522258.13244  21309525.9934   21309525.9984
 -23716547.34644 -18480417.80744  20470145.7594   20470145.0934
  17872509.34944  13926629.66044  25316792.2664   25316792.8344
  -1621499.23544  -1263504.44544  24887520.7524
 -17253068.76844 -13443948.04544  20502339.2464   20502339.0784
 96  2 22  4 25  0.0000000  0  7G24G 6G16G 5G 9G17G20
  -9247010.78744  -7205455.88444  21888381.5444   21888381.9234
 -13313292.31944 -10373990.84744  22370978.2644   22370977.8074
 -16108994.55344 -12552459.64444  21302150.0384   21302150.3044
 -23679754.16844 -18451747.80344  20477147.4294   20477146.8304
  17957607.92244  13992940.25044  25332985.1684   25332986.8994
  -1715681.92944                  24869601.0934
 -17274334.38744 -13460518.66644  20498292.8144   20498292.5114
 96  2 22  4 25 30.0000000  0  7G24G 6G16G 5G 9G17G20
  -9177242.53144  -7151091.00644  21901658.0824   21901657.9714
 -13377373.93744 -10423924.55644  22358783.6704   22358783.6564
 -16147182.25844 -12582216.29144  21294883.3414   21294883.4574
 -23642368.37744 -18422616.02544  20484261.7894   20484261.0444
  18042574.09144  14059147.64444  25349155.6364   25349154.5474
  -1809715.10344                  24851709.6044
 -17294986.34244 -13476611.09844  20494362.9924   20494362.6784
 96  2 22  4 26  0.0000000  0  7G24G 6G 5G 9G17G16G20
  -9107338.78944  -7096620.56344  21914960.5924   21914960.0924
 -13441384.04444 -10473802.54644  22346602.5674   22346602.3854
 -23604444.07444 -18393064.62644  20491478.4574   20491477.9744
  18127366.04044                  25365288.7474
  -1903644.85244  -1483358.32444  24833837.5504   24833837.3864
 -16184834.74744 -12611555.88244  21287718.3074   21287718.5154
 -17315081.89444 -13492269.97544  20490538.9214   20490538.6204
 96  2 22  4 26 30.0000000  0  7G24G 6G 5G 9G17G16G20
  -9037303.28444  -7042047.44044  21928287.6484   21928287.3464
 -13505339.67144 -10523638.09444  22334432.3654   22334432.6064
 -23565999.46444 -18363107.79844  20498794.2694   20498793.8294
  18211963.33544  14191139.28444  25381387.9454
  -1997478.30244  -1556475.33744  24815982.0724   24815979.9954
 -16221949.73844 -12640476.64044  21280655.3494   21280655.5964
 -17334644.08444 -13507513.24444  20486816.3494   20486816.0524
 96  2 22  4 27  0.0000000  0  7G24G 6G16G 5G 9G17G20
  -8967136.92444  -6987372.36144  21941640.0054   21941640.0944
 -13569263.39744 -10573448.77644  22322268.5684   22322268.0784
 -16258540.11244 -12668988.60544  21273692.5204   21273692.5314
 -23527052.21544 -18332759.30444  20506205.5814   20506205.0254
  18296354.58344                  25397447.7074
  -2091203.93244  -1629508.31044  24798145.9664   24798144.3274
 -17353680.14944 -13522346.54444  20483193.8084   20483193.4554
 96  2 22  4 27 30.0000000  0  8G24G 6G16G 5G25G 9G17G20
  -8896792.00744  -6932558.15144  21955026.1794   21955025.8714
 -13633102.07144 -10623193.19044  22310120.4414   22310119.7434
 -16294564.75544 -12697059.74344  21266837.0724   21266837.2674
 -23487575.03244 -18301997.87244  20513717.8024   20513717.2344
         0.25954                  25052268.1414
  18380584.31344                  25413475.2184
  -2184731.43644  -1702386.91544  24780348.0674   24780349.6264
 -17372130.21444 -13536723.22244  20479683.0034   20479682.7054
 96  2 22  4 28  0.0000000  0  8G24G 6G16G 5G25G 9G17G20
  -8826291.75844  -6877622.89444  21968442.0394   21968441.7354
 -13696863.20644 -10672877.18944  22297987.1524   22297986.4194
 -16330028.34344 -12724693.69544  21260088.8904   21260088.9364
 -23447574.56044 -18270828.68444  20521329.6864   20521328.8834
    -24209.77444    -18864.88644  25047663.9454
  18464619.13444                  25429467.3704
  -2278059.58744  -1775110.11044  24762587.0424   24762585.4734
 -17389990.99944 -13550640.72044  20476284.2374   20476284.0914
 96  2 22  4 28 30.0000000  0  8G24G 6G16G 5G25G 9G17G20
  -8755659.33144  -6822584.64344  21981882.6724   21981882.5404
 -13760555.70244 -10722507.69944  22285866.9944   22285866.0974
 -16364958.90444 -12751912.30544  21253441.4054   21253441.8574
 -23407054.04944 -18239254.27444  20529040.4674   20529039.9594
    -47972.19244    -37381.03444  25043143.4524   25043137.6194
  18548424.84244                  25445414.6164
  -2371205.52244  -1847691.33144  24744861.8154   24744862.4154
 -17407264.86744 -13564100.88244  20472997.0594   20472997.1544
 96  2 22  4 29  0.0000000  0  8G24G 6G 5G25G 9G17G16G20
  -8684912.82244  -6767457.49344  21995345.1634   21995345.6674
 -13824163.38444 -10772072.12344  22273762.7264   22273761.5364
 -23366005.89044 -18207268.70744  20536851.5694   20536850.9854
    -71268.70544    -55534.23544  25038711.3374   25038706.2474
  18632009.42844                  25461320.0784
  -2464178.41844  -1920137.73644  24727169.3304   24727172.2484
 -16399362.94344 -12778720.63644  21246894.8344   21246895.0994
 -17423940.09244 -13577094.56744  20469823.7534   20469823.6504
 96  2 22  4 29 30.0000000  0  8G24G 6G16G 5G25G 9G17G20
  -8614037.48344  -6712229.96044  22008832.8154   22008831.9714
 -13887662.35944 -10821551.83144  22261679.4554   22261678.7504
 -16433216.31844 -12805099.87444  21240452.6994   21240452.8014
 -23324408.38444 -18174855.07244  20544767.6174   20544766.9704
    -94079.81444    -73309.18444  25034370.6244   25034366.5794
  18715370.34344                  25477183.8994
  -2556994.43744  -1992461.87044  24709505.9244   24709509.0914
 -17440009.95744 -13589616.54644  20466765.6644   20466765.3654
 96  2 22  4 30  0.0000000  0  7G24G 6G16G 5G25G17G20
  -8543033.03544  -6656901.81344  22022344.4304   22022344.1794
 -13951072.72744 -10870962.50144  22249612.7144   22249611.8214
 -16466520.25344 -12831050.97944  21234115.2094   21234115.6954
 -23282257.66944 -18142010.36244  20552788.5734   20552787.9274
   -116403.39644    -90704.14744  25030122.1284   25030116.9404
  -2649701.25644  -2064700.98644  24691863.5324   24691866.5904
 -17455496.51044 -13601683.99644  20463818.9164   20463818.7504
 96  2 22  4 30 30.0000000  0  7G24G 6G16G 5G25G17G20
  -8471872.43344  -6601451.98844  22035885.3614   22035885.8064
 -14014403.20244 -10920310.91144  22237561.4124   22237560.3484
 -16499259.77844 -12856562.28344  21227885.1524   21227885.3474
 -23239552.99444 -18108733.99744  20560915.0214   20560914.3444
   -138215.06644   -107700.30144  25025969.7974   25025965.8084
  -2742292.13544  -2136849.73944  24674244.4864   24674246.0884
 -17470407.52144 -13613302.96644  20460981.6014   20460981.2634
 96  2 22  4 31  0.0000000  0  7G24G 6G16G 5G25G17G20
  -8400510.02244  -6545844.92644  22049465.1314   22049465.4444
 -14077643.49144 -10969589.04744  22225527.1894   22225526.4074
 -16531387.60044 -12881596.93644  21221771.1394   21221771.2654
 -23196287.18344 -18075020.38644  20569148.0814   20569147.6204
   -159482.70544   -124272.50144  25021921.1294
  -2834730.62044  -2208879.67044  24656653.7164   24656657.4854
 -17484729.79144 -13624463.17844  20458256.1084   20458255.8324
 96  2 22  4 31 30.0000000  0  8G24G 6G16G 5G25G 4G17G20
  -8328940.94944  -6490076.82344  22063084.2874   22063084.1394
 -14140819.77244 -11018817.30544  22213505.0864   22213504.3584
 -16562905.93844 -12906156.66644  21215773.7274   21215773.9234
 -23152486.65244 -18040890.11044  20577483.0604   20577482.4394
   -180216.74344   -140428.87044  25017972.3134
        -0.63354                  25341157.3324
  -2927004.71144  -2280781.54944  24639095.0604   24639096.0914
 -17498486.20444 -13635182.46644  20455638.1804   20455637.7494
 96  2 22  4 32  0.0000000  0  8G24G 6G16G 5G25G 4G17G20
  -8257206.63344  -6434179.95044  22076735.0844   22076735.2734
 -14203969.95644 -11068025.23144  22201487.6134   22201487.1254
 -16593852.82244 -12930271.11144  21209884.9614   21209884.8434
 -23108197.57644 -18006379.14644  20585910.8094   20585910.3434
   -200448.82944   -156194.20644  25014121.6114   25014118.1104
     93985.75544                  25359044.1694
  -3019121.06044  -2352560.51644  24621565.6684   24621569.9034
 -17511707.00744 -13645484.39444  20453122.4814   20453122.3634
 96  2 22  4 32 30.0000000  0  7G24G 6G16G25G 5G17G20
  -8185338.94944  -6378179.16444  22090411.2234   22090410.5934
 -14267104.43644 -11117220.91244  22189473.2214   22189472.6184
 -16624246.02244 -12953954.11044  21204100.9384   21204101.2784
   -220202.83244   -171586.89144  25010363.4144
 -23063438.89244 -17971502.25844  20594428.3884   20594427.8084
  -3111072.18344  -2424210.73644  24604070.5504   24604068.7824
 -17524401.30144 -13655376.05944  20450706.7064   20450706.2104
 96  2 22  4 33  0.0000000  0  7G24G 6G16G 5G25G17G20
  -8113367.71844  -6322097.68144  22104106.9144   22104105.8704
 -14330215.71944 -11166398.52244  22177463.5154   22177462.8684
 -16654098.08244 -12977215.44244  21198420.2574   21198420.0944
 -23018211.86244 -17936260.43144  20603034.5384   20603033.9094
   -239500.24344   -186623.83644  25006693.9154
  -3202850.39844  -2495726.22644  24586604.9474   24586602.2684
 -17536559.72544 -13664850.16144  20448393.1114   20448392.7684
 96  2 22  4 33 30.0000000  0  7G24G 6G16G25G 5G17G20
  -8041311.03344  -6265949.61544  22117818.8884   22117818.6434
 -14393290.93744 -11215548.03544  22165461.2314   22165460.6314
 -16683421.16944 -13000064.58944  21192840.6634   21192840.6734
   -258345.38144                  25003109.4174
 -22972485.57844 -17900629.57444  20611736.1874   20611735.7004
  -3294462.73344  -2567112.45244  24569172.2704   24569169.4294
 -17548167.42044 -13673895.12644  20446184.4764   20446184.0884
 96  2 22  4 34  0.0000000  0  7G24G 6G16G 5G25G17G20
  -7969181.58844  -6209744.84944  22131544.0094   22131544.0004
 -14456328.86644 -11264668.48544  22153465.0834   22153464.4354
 -16712215.87144 -13022502.01144  21187360.8394   21187360.9724
 -22926243.92644 -17864597.13244  20620535.5604   20620535.0524
   -276761.72744                  24999604.9754
  -3385928.66744  -2638384.63044  24551766.9704   24551767.2784
 -17559205.31044 -13682496.08344  20444083.8644   20444083.6104
 96  2 22  4 34 30.0000000  0  7G24G 6G16G25G 5G17G20
  -7896976.51644  -6153481.15844  22145284.4014   22145284.6364
 -14519327.88944 -11313758.61844  22141477.2194   22141476.5204
 -16740477.62444 -13044524.15144  21181982.9694   21181982.9064
   -294753.25344                  24996187.5224
 -22879481.90044 -17828159.20144  20629434.0504   20629433.5534
  -3477245.11544  -2709540.28844  24534390.1944   24534388.3864
 -17569653.54044 -13690637.56644  20442095.4364   20442095.1344
 96  2 22  4 35  0.0000000  0  7G24G 6G16G25G 5G17G20
  -7824696.34644  -6097158.95144  22159039.1634   22159038.9894
 -14582280.50344 -11362812.58744  22129498.1564   22129497.7974
 -16768209.77644 -13066133.60944  21176705.5704   21176705.6164
   -312319.44544                  24992841.9414
 -22832217.34544 -17791329.69144  20638428.2924   20638427.5514
  -3568431.12644  -2780594.36644  24517038.2004   24517038.1864
 -17579511.04644 -13698318.74244  20440219.8734   20440219.7194
 96  2 22  4 35 30.0000000  0  7G24G 6G16G 5G25G17G20
  -7752317.96644  -6040760.21144  22172812.3544   22172811.6764
 -14645157.97144 -11411808.01044  22117532.2654   22117531.9554
 -16795388.01044 -13087311.44844  21171533.7154   21171533.6334
 -22784445.17444 -17754104.63344  20647518.9994   20647518.5684
   -329423.54844                  24989586.0224
  -3659486.44344  -2851546.51744  24499709.1914   24499708.5204
 -17588766.31044 -13705530.64344  20438458.4774   20438458.1704
 96  2 22  4 36  0.0000000  0  7G24G 6G16G25G 5G17G20
  -7679793.81844  -5984247.89144  22186612.9484   22186612.7064
 -14707904.70844 -11460701.55644  22105592.4554   22105592.0704
 -16821960.65844 -13108017.39544  21166477.0314   21166477.1214
   -346003.31144                  24986430.8084
 -22736149.63544 -17716471.75544  20656709.4314   20656708.9064
  -3750362.68344  -2922359.15944  24482416.3334   24482418.0444
 -17597385.06344 -13712246.56144  20436818.4374   20436818.3844
 96  2 22  4 36 30.0000000  0  7G24G 6G16G25G 5G17G20
  -7607127.07144  -5927624.45644  22200441.3574   22200440.8074
 -14770513.25344 -11509487.42344  22093678.4654   22093677.3564
 -16847936.29244 -13128258.14144  21161533.6464   21161533.8814
   -362055.59644                  24983372.2614
 -22687345.95244 -17678442.92344  20665996.5354   20665995.9454
  -3841064.76044  -2993036.08044  24465156.1974   24465157.6424
 -17605394.76344 -13718487.89344  20435294.4504   20435294.0334
 96  2 22  4 37  0.0000000  0  7G24G 6G25G 5G17G16G20
  -7534327.44744  -5870897.47644  22214294.6124   22214294.2024
 -14832986.77944 -11558168.08544  22081789.6594   22081788.9604
   -377582.47244                  24980419.5724
 -22638032.63044 -17640016.96544  20675380.3964   20675379.8214
  -3931612.77944  -3063592.96044  24447924.6014   24447925.9314
 -16873319.75544 -13148037.45344  21156703.6994   21156703.7864
 -17612832.71644 -13724283.70544  20433878.8094   20433878.4994
 96  2 22  4 37 30.0000000  0  7G24G 6G25G17G 5G16G20
  -7461390.12744  -5814063.19344  22228173.8624   22228173.9354
 -14895340.53744 -11606755.41844  22069923.9524   22069923.6494
   -392582.23244                  24977565.2474
  -4021991.60044  -3134017.99444  24430726.2114   24430728.6884
 -22588194.30044 -17601181.91644  20684864.3674   20684863.7974
 -16898108.81844 -13167353.59544  21151986.4624   21151986.5444
 -17619702.35344 -13729636.67544  20432571.6814   20432571.3934
 96  2 22  4 38  0.0000000  0  7G24G 6G25G 5G17G16G20
  -7388315.33444  -5757121.79944  22242079.2954   22242079.3324
 -14957603.87144 -11655272.29344  22058075.4254   22058074.9344
   -407072.56544   -317200.03844  24974808.2484
 -22537827.92144 -17561935.40144  20694448.9954   20694448.5934
  -4112198.92744  -3204309.41644  24413560.9784   24413560.7104
 -16922322.02744 -13186221.02244  21147379.0704   21147378.6994
 -17625999.95844 -13734543.90344  20431373.2114   20431372.9954
 96  2 22  4 38 30.0000000  0  7G24G 6G25G 5G17G16G20
  -7315118.47244  -5700085.28344  22256008.3184   22256007.9534
 -15019812.02944 -11703746.17344  22046238.1284   22046237.5614
   -421082.50644   -328116.90944  24972144.4864   24972139.9154
 -22486932.80544 -17522276.87944  20704133.9004   20704133.3984
  -4202245.11544  -3274475.26844  24396425.5064   24396426.8614
 -16945968.56044 -13204646.88344  21142879.2444   21142879.0964
 -17631723.05644 -13739003.47044  20430283.9994   20430283.9914
 96  2 22  4 39  0.0000000  0  7G24G 6G25G 5G17G16G20
  -7241808.85744  -5642960.91344  22269958.8914   22269958.6904
 -15081983.20744 -11752191.22544  22034407.4944   22034406.9254
   -434612.00844   -338659.39544  24969570.1114
 -22435516.57744 -17482212.28944  20713918.0414   20713917.3694
  -4292125.08444  -3344511.57244  24379322.5124   24379322.9154
 -16969054.24744 -13222635.72444  21138486.0834   21138486.0054
 -17636851.52144 -13742999.68344  20429308.1834   20429307.9934
 96  2 22  4 39 30.0000000  0  7G24G 6G25G 5G17G16G20
  -7168377.56944  -5585741.73144  22283932.5114   22283932.1484
 -15144105.80944 -11800598.44144  22022585.8254   22022585.2414
   -447669.63244   -348834.13844  24967085.4154   24967078.9824
 -22383591.43644 -17441751.14744  20723799.2284   20723798.6674
  -4381823.02244  -3414406.05644  24362252.0814   24362252.1274
 -16991559.31444 -13240172.12744  21134203.4784   21134203.8064
 -17641348.89244 -13746504.13344  20428452.5414   20428452.2664
 96  2 22  4 40  0.0000000  0  7G24G 6G25G 5G17G16G20
  -7094853.29944  -5528450.09844  22297923.9114   22297923.6474
 -15206195.19744 -11848979.77044  22010770.1654   22010769.8704
   -460287.67144   -358666.39544  24964683.1764   24964680.3024
 -22331184.63044 -17400914.68644  20733771.7264   20733771.3604
  -4471368.05444  -3484181.43344  24345213.4644   24345214.7564
 -17013497.51344 -13257266.81744  21130028.5964   21130028.7944
 -17645237.88744 -13749534.52644  20427712.4674   20427712.0024
 96  2 22  4 40 30.0000000  0  7G24G 6G25G17G 5G16G20
  -7021209.40344  -5471065.24344  22311937.8534   22311937.4444
 -15268196.42044 -11897292.40244  21998972.0024   21998971.5524
   -472431.68444   -368129.27944  24962369.4424   24962364.3504
  -4560723.97944  -3553809.40444  24328209.5874   24328210.1934
 -22278270.39944 -17359682.82944  20743841.1724   20743840.7234
 -17034818.78144 -13273880.78144  21125971.3544   21125971.4244
 -17648499.28344 -13752075.88044  20427091.8644   20427091.6184
 96  2 22  4 41  0.0000000  0  7G24G 6G25G 5G17G16G20
  -6947443.85144  -5413585.61144  22325974.3644   22325974.7394
 -15330083.27944 -11945515.90944  21987195.6254   21987194.8134
   -484088.21544   -377212.35144  24960149.6484   24960149.3664
 -22224859.52044 -17318063.97444  20754004.6974   20754004.2784
  -4649893.08844  -3623291.78644  24311240.9194   24311241.5674
 -17055527.32644 -13290017.29744  21122030.6724   21122030.6424
 -17651140.30044 -13754133.82344  20426589.3154   20426588.9964
 96  2 22  4 41 30.0000000  0  7G24G 6G25G17G 5G16G20
  -6873572.38844  -5356023.43644  22340031.8644   22340031.4284
 -15391863.30044 -11993656.17344  21975438.9534   21975438.4214
   -495268.02644   -385923.86644  24958023.1304   24958024.0874
  -4738893.68344  -3692642.88744  24294305.9694   24294306.4294
 -22170963.87444 -17276067.37944  20764260.7144   20764260.2504
 -17075635.68644 -13305686.13944  21118204.3954   21118204.6984
 -17653198.51044 -13755737.63344  20426197.8554   20426197.5014
 96  2 22  4 42  0.0000000  0  7G24G 6G25G17G 5G16G20
  -6799595.99144  -5298379.49244  22354109.1784   22354108.7014
 -15453545.58644 -12041720.28144  21963701.3244   21963700.6014
   -505934.88344   -394235.73344  24955992.1894   24955991.4574
  -4827724.18644  -3761861.43944  24277401.3294   24277399.5024
 -22116564.09244 -17233677.94644  20774612.7924   20774612.2904
 -17095158.34244 -13320898.58544  21114489.3904   21114489.0604
 -17654680.70444 -13756892.59444  20425915.7174   20425915.3624
 96  2 22  4 42 30.0000000  0  7G24G 6G25G17G 5G16G20
  -6725524.26944  -5240661.26544  22368205.0204   22368204.4104
 -15515124.83544 -12089704.10044  21951983.0154   21951982.5964
   -516081.08344   -402141.85044  24954061.3454
  -4916386.10644  -3830948.66044  24260529.5754   24260527.5874
 -22061663.61644 -17190898.36544  20785059.7054   20785059.2324
 -17114118.13744 -13335672.44344  21110881.5484   21110881.2484
 -17655596.90844 -13757606.53044  20425741.0584   20425740.6664
 96  2 22  4 43  0.0000000  0  7G24G25G17G 6G 5G16G20
  -6651380.36244  -5182886.79444  22382314.0974   22382314.1824
   -525725.20344                  24952225.4734
  -5004896.57444  -3899917.83444  24243687.4084   24243687.3424
 -15576627.39244 -12137628.16644  21940279.5234   21940278.9364
 -22006266.66944 -17147731.92344  20795601.5814   20795601.1844
 -17132538.75744 -13350026.16144  21107375.6584   21107375.5264
 -17655955.59644 -13757886.03444  20425672.7614   20425672.5964
 96  2 22  4 43 30.0000000  0  7G24G25G17G 6G 5G16G20
  -6577175.46344  -5125064.79544  22396434.6384   22396433.8834
   -534883.79644   -416793.34844  24950479.1874   24950481.4854
  -5093254.15744  -3968767.89844  24226873.6934   24226873.9354
 -15638071.58844 -12185506.74544  21928587.2844   21928586.5984
 -21950364.33144 -17104171.67144  20806239.6644   20806239.1484
 -17150420.13844 -13363959.70044  21103973.1424   21103973.4364
 -17655762.01944 -13757735.20244  20425709.6424   20425709.3954
 96  2 22  4 44  0.0000000  0  7G24G25G17G 6G 5G16G20
  -6502864.11244  -5067159.84144  22410575.1924   22410575.5004
   -543523.34944   -423525.52244  24948837.0904   24948837.5694
  -5181405.54644  -4037457.25544  24210096.6554   24210099.8674
 -15699410.80944 -12233303.53344  21916915.0424   21916913.7094
 -21893914.49844 -17060184.80244  20816981.5344   20816981.0404
 -17167717.43444 -13377438.09944  21100681.6264   21100681.9894
 -17654962.66344 -13757112.33444  20425861.9994   20425861.6064
 96  2 22  4 44 30.0000000  0  7G24G25G17G 6G 5G16G20
  -6428431.89244  -5009160.71844  22424739.5484   22424739.3994
   -551662.58244   -429867.76044  24947288.3904   24947288.0544
  -5269332.84844  -4105971.99344  24193365.2334   24193366.7584
 -15760619.23144 -12280998.40444  21905267.2504   21905266.6634
 -21836914.15844 -17015768.96244  20827828.4704   20827827.8784
 -17184396.42344 -13390434.70844  21097507.5044   21097507.5474
 -17653539.82544 -13756003.63544  20426132.7344   20426132.2934
 96  2 22  4 45  0.0000000  0  7G24G25G17G 6G 5G16G20
  -6353916.91844  -4951097.09844  22438919.2444   22438919.1304
   -559359.38344   -435865.32244  24945827.2894   24945825.4284
  -5357084.38844  -4174349.81844  24176666.9514   24176667.5494
 -15821761.06444 -12328641.37844  21893631.9784   21893631.5804
 -21779418.75644 -16970967.36144  20838769.6984   20838769.1834
 -17200481.57544 -13402968.57944  21094446.8924   21094446.7894
 -17651522.97944 -13754432.07244  20426516.3474   20426516.0684
 96  2 22  4 45 30.0000000  0  7G24G25G17G 6G 5G16G20
  -6279311.85044  -4892963.29744  22453115.6414   22453115.5604
   -566607.70044   -441513.37644  24944450.8064   24944449.0224
  -5444673.71644  -4242601.22644  24159998.7184   24159999.6934
 -15882834.68144 -12376231.20344  21882009.7374   21882009.0814
 -21721452.93844 -16925799.20644  20849799.8274   20849799.6944
 -17215967.02844 -13415035.15744  21091500.1294   21091499.8594
 -17648920.46844 -13752404.14844  20427011.7824   20427011.3724
 96  2 22  4 46  0.0000000  0  7G24G25G17G 6G 5G16G20
  -6204610.33344  -4834754.33444  22467330.5104   22467330.3904
   -573399.25044   -446805.51444  24943158.8104   24943157.3344
  -5532098.35444  -4310724.29744  24143362.5164   24143364.3434
 -15943829.42444 -12423759.56844  21870403.5094   21870402.6814
 -21663035.16544 -16880278.87944  20860916.2104   20860915.8854
 -17230844.86544 -13426628.26644  21088668.6464   21088668.7434
 -17645730.44744 -13749918.42244  20427618.7454   20427618.4634
 96  2 22  4 46 30.0000000  0  7G24G25G17G 6G 5G16G20
  -6129830.71044  -4776484.50844  22481560.9874   22481561.3664
   -579729.09944   -451737.86344  24941954.6704   24941953.1004
  -5619375.55444  -4378732.47244  24126755.1924   24126756.7504
 -16004752.24544 -12471231.89744  21858810.2264   21858809.4064
 -21604171.91344 -16834411.42644  20872117.7554   20872117.3084
 -17245125.00944 -13437755.64544  21085951.2404   21085951.0194
 -17641961.34844 -13746981.46744  20428336.0514   20428335.7804
 96  2 22  4 47  0.0000000  0  7G24G25G17G 6G 5G16G20
  -6054977.07544  -4718156.99744  22495805.6114   22495805.5664
   -585571.79844   -456290.61144  24940839.5474   24940838.4294
  -5706499.10344  -4446620.96144  24110176.5264   24110178.1094
 -16065590.99444 -12518638.70744  21847232.8534   21847232.3484
 -21544854.09144 -16788189.76144  20883405.8884   20883405.4284
 -17258813.32444 -13448421.85644  21083346.3354   21083346.7344
 -17637605.96244 -13743587.66844  20429164.6984   20429164.6304
 96  2 22  4 47 30.0000000  0  7G24G25G17G 6G 5G16G20
  -5980050.23244  -4659772.45444  22510063.8054   22510064.0354
   -590916.28144   -460455.18444  24939824.6934   24939822.3724
  -5793443.60144  -4514369.90644  24093631.0974   24093632.0654
 -16126312.40144 -12565954.08344  21835678.0824   21835677.5514
 -21485072.43444 -16741606.66144  20894781.8034   20894781.3554
 -17271913.99444 -13458630.16344  21080853.4624   21080853.3884
 -17632674.35444 -13739744.86444  20430103.1044   20430102.8284
 96  2 22  4 48  0.0000000  0  7G24G25G17G 6G 5G16G20
  -5905078.82344  -4601353.16944  22524330.1504   22524329.7394
   -595786.64244   -464250.33444  24938896.2914   24938896.3624
  -5880210.34244  -4581980.32444  24077119.6034   24077120.7074
 -16186938.37644 -12613195.09944  21824141.7744   21824141.1564
 -21424836.16744 -16694669.32444  20906244.6064   20906244.1344
 -17284447.40744 -13468396.45044  21078468.7594   21078469.1034
 -17627176.16744 -13735460.56844  20431149.7984   20431149.3834
 96  2 22  4 48 30.0000000  0  7G24G25G17G 6G 5G16G20
  -5830042.90544  -4542883.63444  22538609.1244   22538609.3444
   -600167.39544   -467663.84644  24938061.2234   24938058.1784
  -5966781.50544  -4649438.37044  24060645.3144   24060645.1644
 -16247450.53544 -12660347.42744  21812626.4134   21812625.4174
 -21364115.99444 -16647354.91644  20917798.9994   20917798.5614
 -17296392.29644 -13477704.14644  21076195.5844   21076195.3824
 -17621082.40644 -13730712.19044  20432309.0354   20432308.8934
 96  2 22  4 49  0.0000000  0  7G24G25G17G 6G16G 5G20
  -5754920.25344  -4484346.49944  22552904.5074   22552904.0504
   -604070.15544   -470704.99244  24937319.1624   24937315.1174
  -6053149.46244  -4716738.08644  24044210.5514   24044210.2944
 -16307851.87844 -12707413.40644  21801131.8624   21801131.3284
 -17307731.31944 -13486539.74544  21074037.8144   21074037.7204
 -21302926.24044 -16599674.60444  20929442.9304   20929442.5994
 -17614386.64344 -13725494.72244  20433583.1384   20433582.9044
 96  2 22  4 49 30.0000000  0  7G24G25G17G 6G 5G16G20
  -5679697.69944  -4425731.52844  22567218.2194   22567218.6024
   -607517.01844   -473390.92044  24936661.3614   24936662.1774
  -6139323.78344  -4783886.88144  24027812.6454   24027811.6884
 -16368163.65644 -12754409.59844  21789655.1114   21789654.5594
 -21241281.67744 -16551639.89744  20941173.4944   20941173.3334
 -17318465.63644 -13494904.13744  21071995.0664   21071995.2964
 -17607101.20744 -13719817.76644  20434969.6564   20434969.3164
 96  2 22  4 50  0.0000000  0  7G24G25G17G 6G16G 5G20
  -5604366.00144  -4367031.50744  22581553.3804   22581553.6014
   -610493.56844   -475710.34044  24936095.0444   24936093.5084
  -6225306.14644  -4850886.10844  24011450.5934   24011450.7044
 -16428398.99144 -12801346.22044  21778192.7974   21778191.9644
 -17328585.29444 -13502789.57944  21070069.1254   21070069.3154
 -21179167.64944 -16503239.37044  20952993.1414   20952993.0114
 -17599194.35044 -13713656.58744  20436474.3174   20436474.1334
 96  2 22  4 50 30.0000000  0  7G24G25G17G 6G16G 5G20
  -5528935.43644  -4308254.45744  22595907.9044   22595907.5774
   -613018.69044                  24935614.3544
  -6311114.98644  -4917750.13444  23995121.6484   23995122.2134
 -16488559.28244 -12848224.36444  21766744.6794   21766743.9824
 -17338116.95344 -13510216.83544  21068255.6254   21068255.6644
 -21116586.39744 -16454474.76844  20964902.3904   20964902.0524
 -17590674.86344 -13707018.03544  20438095.6024   20438095.3334
 96  2 22  4 51  0.0000000  0  7G24G25G17G 6G 5G16G20
  -5453418.58344  -4249410.15144  22610278.3744   22610277.7884
   -615104.52344   -479303.34344  24935217.6984   24935215.7514
  -6396753.51244  -4984481.44344  23978824.1864   23978824.0954
 -16548652.74744 -12895050.43444  21755309.0614   21755308.6454
 -21053535.95144 -16405344.56344  20976900.3234   20976900.0694
 -17347078.00344 -13517199.46444  21066550.2264   21066550.4784
 -17581566.77144 -13699920.83044  20439828.8484   20439828.4624
 96  2 22  4 51 30.0000000  0  7G 5G24G25G17G 6G16G20
 -20990009.04744 -16355843.10544  20988989.4054   20988989.1824
  -5377856.76044  -4190530.80644  22624657.1944   22624657.1744
   -616748.61344   -480584.60144  24934904.5684   24934904.3844
  -6482232.30744  -5051088.30344  23962557.9064   23962557.5774
 -16608675.21544 -12941821.18044  21743887.1224   21743886.4524
 -17355500.43944 -13523762.38944  21064947.6344   21064947.7934
 -17571888.39844 -13692379.25044  20441670.5174   20441670.4694
 96  2 22  4 52  0.0000000  0  7G 5G24G25G17G 6G16G20
 -20925990.85444 -16305958.83444  21001171.7864   21001171.2724
  -5302253.21144  -4131618.95444  22639044.4874   22639044.0584
   -617918.58444   -481496.23044  24934681.6224   24934682.7254
  -6567530.12344  -5117554.11844  23946326.9234   23946326.0924
 -16668592.68944 -12988510.11644  21732485.1134   21732484.7174
 -17363375.57744 -13529898.85544  21063448.9194   21063448.9624
 -17561627.91444 -13684384.07644  20443623.1134   20443622.8144
 96  2 22  4 52 30.0000000  0  7G 5G24G25G17G 6G16G20
 -20861479.33844 -16255690.14444  21013447.6914   21013447.2894
  -5226592.35644  -4072662.45344  22653442.4364   22653442.5794
   -618606.35144   -482032.18644  24934551.2454   24934552.4614
  -6652637.68444  -5183871.70444  23930131.4924   23930131.0124
 -16728376.37344 -13035094.79444  21721108.5814   21721108.0074
 -17370689.77044 -13535598.21944  21062057.2924   21062057.3034
 -17550795.90644 -13675943.56144  20445684.2584   20445684.1734
 96  2 22  4 53  0.0000000  0  7G 5G24G25G17G 6G16G20
 -20796476.26744 -16205038.41344  21025817.2734   21025816.7744
  -5150844.02544  -4013637.78344  22667856.4054   22667855.9014
   -618771.28544   -482160.72044  24934521.2574   24934519.7934
  -6737532.05844  -5250023.12544  23913975.8354   23913976.5774
 -16788007.62244 -13081560.68644  21709761.2684   21709760.5654
 -17377402.78044 -13540829.13044  21060779.8244   21060779.7464
 -17539369.27444 -13667039.70144  20447858.5884   20447858.2794
 96  2 22  4 53 30.0000000  0  7G 5G24G25G17G 6G16G20
 -20731022.79244 -16154035.71744  21038272.8364   21038272.2984
  -5075028.38744  -3954560.66244  22682283.7064   22682283.5544
   -618430.03744   -481894.82244  24934585.3354   24934583.5954
  -6822241.18144  -5316030.22444  23897856.0004   23897858.0904
 -16847505.07144 -13127922.32944  21698439.7854   21698438.4704
 -17383523.54544 -13545598.54744  21059615.0144   21059614.9064
 -17527344.76444 -13657669.96344  20450147.0274   20450146.6794
 96  2 22  4 54  0.0000000  0  7G 5G24G25G17G 6G16G20
 -20665143.82644 -16102701.46744  21050809.1794   21050808.7084
  -4999133.44644  -3895421.74244  22696726.0724   22696724.2634
   -617604.47744   -481251.48844  24934742.1244   24934740.8304
  -6906773.58144  -5381899.61644  23881770.5724   23881772.3824
 -16906886.95244 -13174193.91844  21687139.4164   21687138.7084
 -17389048.16344 -13549903.43744  21058563.5824   21058563.3934
 -17514714.20244 -13647827.97644  20452550.3694   20452549.9664
 96  2 22  4 54 30.0000000  0  7G 5G24G25G17G 6G16G20
 -20598841.70844 -16051037.48744  21063425.9304   21063425.5594
  -4923162.30144  -3836223.44744  22711183.1564   22711182.2394
   -616314.15944   -480246.07644  24934986.5804   24934991.0024
  -6991140.50144  -5447640.07144  23865715.1254   23865717.9364
 -16966167.60144 -13220386.63244  21675858.5184   21675858.0764
 -17393961.68644 -13553732.15144  21057628.7884   21057628.7484
 -17501457.71544 -13637498.25444  20455073.1504   20455072.7984
 96  2 22  4 55  0.0000000  0  7G 5G24G25G17G 6G16G20
 -20532115.03044 -15999042.68844  21076123.4024   21076123.2404
  -4847141.30644  -3776986.31444  22725649.4154   22725648.4204
   -614565.14644   -478883.24344  24935320.4514   24935320.0044
  -7075333.75744  -5513245.17544  23849694.4124   23849695.8424
 -17025353.28344 -13266505.33944  21664595.5134   21664595.3504
 -17398256.82544 -13557079.00844  21056810.8884   21056810.9714
 -17487565.99044 -13626673.54144  20457716.4874   20457716.2114
 96  2 22  4 55 30.0000000  0  7G 5G24G25G17G 6G16G20
 -20464940.43644 -15946698.86744  21088906.7194   21088906.3254
  -4771073.14644  -3717712.42944  22740124.4474   22740124.4774
   -612365.14544   -477168.92544  24935739.1484
  -7159326.72044  -5578694.20844  23833712.5594   23833713.1174
 -17084423.28644 -13312533.90644  21653355.1894   21653354.6474
 -17401918.62844 -13559932.35444  21056114.3174   21056114.6154
 -17473034.91544 -13615350.63344  20460481.6014   20460481.3914
 96  2 22  4 56  0.0000000  0  7G 5G24G25G17G 6G16G20
 -20397316.99544 -15894005.30344  21101775.0494   21101774.8824
  -4694966.20844  -3658408.33544  22754606.4644   22754606.8964
   -609725.27444   -475111.92544  24936242.0514
  -7243116.68744  -5643985.07244  23817767.6764   23817766.3484
 -17143378.50844 -13358473.03344  21642136.5994   21642135.9934
 -17404960.51644 -13562302.65244  21055535.7554   21055535.6224
 -17457887.47644 -13603547.44444  20463364.1904   20463364.0984
 96  2 22  4 56 30.0000000  0  7G 5G24G25G17G 6G16G20
 -20329231.53244 -15840951.72044  21114731.0914   21114730.9334
  -4618825.75344  -3599078.12644  22769096.5784   22769095.6414
   -606646.26044   -472712.70844  24936828.6684   24936829.1084
  -7326688.10244  -5709105.66944  23801864.9284   23801865.6554
 -17202205.98344 -13404312.61744  21630942.2584   21630941.2584
 -17407374.21144 -13564183.44844  21055076.3234   21055076.2324
 -17442149.00444 -13591283.70944  20466359.2304   20466358.8144
 96  2 22  4 57  0.0000000  0  7G 5G24G25G17G 6G16G20
 -20260658.17844 -15787517.96544  21127780.4394   21127779.9394
  -4542617.43344  -3539695.02744  22783598.2704   22783598.7994
   -603105.50344   -469953.74944  24937502.1764
  -7410012.57844  -5774033.81744  23786007.9434   23786009.2694
 -17260869.70844 -13450024.59944  21619778.5784   21619777.9794
 -17409151.79044 -13565568.56744  21054738.0544   21054737.7684
 -17425826.10144 -13578564.56944  20469465.3934   20469465.4334
 96  2 22  4 57 30.0000000  0  7G 5G24G25G17G 6G16G20
 -20191592.65344 -15733700.69744  21140923.1944   21140922.5814
  -4466302.11144  -3480228.55144  22798120.1684   22798120.2584
   -599093.25744                  24938266.7244
  -7493097.63744  -5838775.41444  23770197.3344   23770196.2414
 -17319368.06644 -13495607.72844  21608646.6304   21608646.1324
 -17410292.43844 -13566457.37744  21054520.8254   21054520.7974
 -17408916.19644 -13565388.02744  20472683.1984   20472683.0774
 96  2 22  4 58  0.0000000  0  7G 5G24G25G17G 6G16G20
 -20122061.73944 -15679520.78844  21154154.4784   21154153.9444
  -4389897.74544  -3420692.69244  22812659.9764   22812659.4844
   -594606.74844                  24939119.7624
  -7575988.51344  -5903365.68844  23754422.6524   23754422.7144
 -17377737.16044 -13541090.13644  21597539.3724   21597538.7694
 -17410825.91844 -13566873.07244  21054419.2324   21054419.5634
 -17391441.69844 -13551771.54044  20476008.4824   20476008.5924
 96  2 22  4 58 30.0000000  0  7G 5G24G25G17G 6G16G20
 -20052105.93344 -15625009.78644  21167466.6034   21167466.1544
  -4313443.36844  -3361117.85944  22827208.7994   22827208.7704
   -589676.58944   -459489.65444  24940057.2434
  -7658738.48644  -5967846.18844  23738676.6924   23738677.3014
 -17436031.81544 -13586514.53144  21586446.8244   21586446.1864
 -17410800.67244 -13566853.39544  21054424.2394   21054424.2414
 -17373444.66244 -13537747.88344  20479433.0914   20479432.8304
 96  2 22  4 59  0.0000000  0  7G 5G24G25G17G 6G16G20
 -19981723.14344 -15570166.07044  21180859.8604   21180859.3624
  -4236935.54244  -3301501.36944  22841767.5634   22841767.4674
   -584279.86244   -455284.41844  24941085.0694
  -7741352.47244  -6032220.69244  23722956.2014   23722956.7014
 -17494260.65444 -13631887.64844  21575366.2664   21575365.4414
 -17410215.78144 -13566397.63344  21054535.7314   21054535.6204
 -17354894.14144 -13523292.93744  20482963.0954   20482962.7864
 96  2 22  4 59 30.0000000  0  7G 5G24G25G17G 6G16G20
 -19910910.19744 -15514987.16644  21194335.0764   21194334.7004
  -4160379.25044  -3241847.11644  22856335.5984   22856335.9874
   -578397.55444   -450700.82844  24942205.2014
  -7823811.24944  -6096474.25544  23707264.0974   23707264.7974
 -17552414.10644 -13677202.02344  21564299.6324   21564298.9884
 -17409058.36544 -13565495.74344  21054755.8154   21054755.7054
 -17335758.44044 -13508382.00844  20486604.4614   20486604.4834
 96  2 22  5  0  0.0000000  0  7G 5G24G25G17G 6G16G20
 -19839650.26344 -15459459.96544  21207895.3594   21207895.0544
  -4083782.19844  -3182161.10944  22870911.9024   22870911.7894
   -572022.41044   -445733.18844  24943417.3664   24943417.5334
  -7906088.23444  -6160586.17244  23691607.8294   23691608.2464
 -17610461.27244 -13722433.57344  21553253.4974   21553252.9084
 -17407331.99544 -13564150.51744  21055084.3524   21055084.1554
 -17316024.41444 -13493004.85144  20490359.7824   20490359.7184
 96  2 22  5  0 30.0000000  0  7G 5G24G25G17G 6G16G20
 -19767939.45944 -15403581.44144  21221541.7774   21221541.3504
  -4007148.53444  -3122446.56444  22885494.8854   22885494.3514
   -565174.80644   -440397.35344  24944721.1234   24944721.4624
  -7988157.60744  -6224536.32744  23675990.1474   23675990.7134
 -17668381.44244 -13767566.17044  21542231.9504   21542230.9514
 -17405030.74144 -13562357.32544  21055522.2244   21055522.1184
 -17295681.81544 -13477153.48244  20494231.1324   20494231.1594
 96  2 22  5  1  0.0000000  0  7G 5G24G25G17G 6G16G20
 -19695761.27044 -15347338.71844  21235276.8714   21235276.3484
  -3930456.09944  -3062686.23844  22900088.2404   22900088.3274
   -557835.86344   -434678.84144  24946118.3384   24946121.3234
  -8069981.87344  -6288295.45044  23660419.1364   23660420.2424
 -17726135.55844 -13812569.37644  21531241.9764   21531240.8224
 -17402113.34644 -13560084.02744  21056077.1624   21056077.5564
 -17274701.61744 -13460805.28244  20498223.3814   20498223.0834
 96  2 22  5  1 30.0000000  0  7G 5G24G25G17G 6G16G20
 -19623168.53344 -15290772.96944  21249090.7984   21249090.5914
  -3853738.88744  -3002906.59744  22914687.3584   22914686.7994
   -550059.04044   -428618.97744  24947598.4924   24947600.5234
  -8151601.27144  -6351894.96544  23644886.8824   23644889.3054
 -17783749.62344 -13857463.44444  21520278.0884   21520277.4274
 -17398629.83544 -13557369.60044  21056740.3754   21056740.3654
 -17253127.42944 -13443994.23544  20502328.7844   20502328.5314
 96  2 22  5  2  0.0000000  0  7G 5G24G25G17G 6G16G20
 -19550164.37544 -15233886.63844  21262982.7224   21262982.4204
  -3776990.45744  -2943102.63844  22929292.2124   22929291.6914
   -541850.26544   -422222.57244  24949159.7374   24949160.8364
  -8233017.81144  -6415336.38844  23629394.3784   23629396.7834
 -17841223.52644 -13902248.29344  21509341.2814   21509340.7234
 -17394566.79644 -13554203.59444  21057513.3864   21057513.0034
 -17230966.78244 -13426726.20844  20506545.6764   20506545.3994
 96  2 22  5  2 30.0000000  0  7G 5G24G25G17G 6G16G20
 -19476774.30944 -15176699.60044  21276948.3264   21276948.1344
  -3700216.47644  -2883278.75044  22943901.6064   22943900.5744
   -533224.15844   -415500.93244  24950800.8804   24950802.9244
  -8314239.59344  -6478626.09244  23613938.5284   23613940.2904
 -17898577.79244 -13946939.93044  21498427.0874   21498426.1824
 -17389897.14744 -13550564.89944  21058401.7444   21058401.8574
 -17208231.30544 -13409010.26244  20510872.0694   20510871.8294
 96  2 22  5  3  0.0000000  0  7G 5G24G25G17G 6G16G20
 -19402990.88844 -15119206.04144  21290989.1014   21290988.7934
  -3623398.88644  -2823420.90644  22958519.1564   22958519.9224
   -524174.89944   -408449.54144  24952522.6184   24952520.5404
  -8395264.52944  -6541762.34744  23598520.2354   23598521.8814
 -17955804.78844 -13991532.39644  21487536.7924   21487536.0344
 -17384604.63644 -13546440.86444  21059409.1804   21059409.3514
 -17184916.51744 -13390842.90144  20515308.9014   20515308.8274
 96  2 22  5  3 30.0000000  0  7G 5G24G25G17G 6G16G20
 -19328795.43744 -15061391.42644  21305107.8774   21305107.5274
  -3546534.06144  -2763526.26544  22973147.4104   22973147.7514
   -514698.19544   -401065.14544  24954325.9044   24954324.5184
  -8476071.61244  -6604728.89144  23583142.7104   23583143.3884
 -18012881.79744 -14036007.98244  21476675.6704   21476674.9994
 -17378687.25744 -13541829.91544  21060535.3564   21060535.4094
 -17161010.69144 -13372214.99244  20519857.8434   20519857.8004
 96  2 22  5  4  0.0000000  0  7G 5G24G25G17G 6G16G20
 -19254189.96644 -15003257.30844  21319305.0244   21319304.6494
  -3469644.13844  -2703612.05644  22987778.6744   22987778.4154
   -504807.05244   -393357.77244  24956206.6004   24956206.4884
  -8556672.53644  -6667534.81344  23567805.3964   23567804.3904
 -18069828.94844 -14080382.38644  21465839.1304   21465838.4364
 -17372144.78244 -13536731.88544  21061780.2634   21061779.9134
 -17136539.35144 -13353146.42644  20524514.8844   20524514.9814
 96  2 22  5  4 30.0000000  0  7G 5G24G25G17G 6G16G20
 -19179161.82344 -14944793.85244  21333582.8274   21333582.6324
  -3392711.07544  -2643664.21644  23002417.9764   23002417.7174
   -494473.38444   -385305.66544  24958174.1064   24958175.4934
  -8637056.15144  -6730171.35344  23552509.3764   23552508.3994
 -18126630.47644 -14124643.31544  21455029.9934   21455029.3624
 -17364967.37644 -13531139.09244  21063146.0484   21063145.7284
 -17111479.02544 -13333618.90744  20529283.5284   20529283.3204
 96  2 22  5  5  0.0000000  0  7G 5G24G25G17G 6G16G20
 -19103698.11344 -14885990.97744  21347942.9504   21347942.5134
  -3315725.74544  -2583675.65244  23017068.2924   23017066.5874
   -483672.59444   -376889.51944  24960229.8894   24960227.1944
  -8717222.84644  -6792638.90444  23537254.1014   23537254.3034
 -18183279.41744 -14168785.35244  21444249.8894   21444249.4164
 -17357181.28744 -13525072.01044  21064627.2124   21064627.2054
 -17085810.07344 -13313617.14144  20534168.3104   20534168.1184
 96  2 22  5  5 30.0000000  0  7G 5G24G25G17G 6G16G20
 -19027812.65244 -14826859.44944  21362383.2114   21362382.8184
  -3238700.75344  -2523656.19044  23031725.4264   23031724.4544
   -472403.58744   -368108.48744  24962372.9544   24962370.1724
  -8797189.46344  -6854950.53344  23522036.5604   23522036.8794
 -18239788.23644 -14212818.19144  21433496.5294   21433495.9524
 -17348800.85744 -13518541.80544  21066222.4704   21066222.1474
 -17059541.87844 -13293148.42744  20539166.9824   20539166.8134
 96  2 22  5  6  0.0000000  0  7G 5G24G25G17G 6G16G20
 -18951533.49944 -14767421.15444  21376898.6724   21376898.6454
  -3161636.64144  -2463606.23944  23046390.3224   23046390.3054
   -460662.24344                  24964606.7084
  -8876981.88044  -6917126.41744  23506852.5384   23506853.1504
 -18296179.96544 -14256759.79344  21422765.7454   21422764.9714
 -17339822.29944 -13511545.52644  21067930.6744   21067930.7794
 -17032683.88144 -13272220.13144  20544277.7864   20544277.7674
 96  2 22  5  6 30.0000000  0  7G 5G24G25G17G 6G16G20
 -18874886.01844 -14707695.86144  21391484.3984   21391484.2624
  -3084543.51644  -2403533.62744  23061060.3604   23061059.8234
   -448469.89044                  24966926.2914
  -8956614.37344  -6979177.68544  23491698.4474   23491696.9064
 -18352467.93344 -14300620.54544  21412054.7614   21412054.1334
 -17330273.15144 -13504104.62344  21069747.9774   21069747.9314
 -17005249.28344 -13250842.53144  20549498.6494   20549498.2824
 96  2 22  5  7  0.0000000  0  7G 5G24G25G17G 6G16G20
 -18797854.68944 -14647671.46644  21406142.5994   21406142.1764
  -3007415.09244  -2343433.56444  23075737.0284   23075737.5154
   -435845.29944                  24969329.6614
  -9036075.55944  -7041095.50044  23476577.6894   23476578.5654
 -18408646.74644 -14344396.23544  21401364.0634   21401363.5334
 -17320159.25544 -13496223.66444  21071672.7224   21071672.6624
 -16977243.63044 -13229019.95044  20554827.8534   20554827.6124
 96  2 22  5  7 30.0000000  0  7G 5G24G25G17G 6G16G20
 -18720411.78044 -14587326.36344  21420879.6514   21420879.3664
  -2930230.94144  -2283290.17344  23090425.0404   23090424.5344
   -422772.80544   -329437.79544  24971817.5244
  -9115334.04444  -7102855.33444  23461496.2694   23461495.5004
 -18464675.83744 -14388055.26044  21390702.0554   21390701.4454
 -17309441.92144 -13487872.48644  21073712.0974   21073712.1804
 -16948650.35844 -13206739.49344  20560268.8324   20560268.6334
 96  2 22  5  8  0.0000000  0  7G 5G24G25G17G 6G16G20
 -18642547.47144 -14526652.88244  21435696.6074   21435696.3214
  -2852980.58244  -2223095.06344  23105125.3494   23105126.0374
   -409244.09844                  24974389.4694
  -9194366.87044  -7164439.34144  23446456.0454   23446456.6264
 -18520544.28344 -14431589.11044  21380070.5934   21380069.9934
 -17298120.67544 -13479050.73444  21075866.6144   21075866.5854
 -16919456.09544 -13183990.72744  20565824.5474   20565824.2704
 96  2 22  5  8 30.0000000  0  7G 5G24G25G17G 6G16G20
 -18564259.95644 -14465649.62144  21450594.3864   21450594.4504
  -2775686.61344  -2162866.01444  23119834.2184   23119833.7474
   -395293.30044   -308028.27344  24977046.2934
  -9273173.32844  -7225846.94744  23431458.8654   23431459.6174
 -18576253.44444 -14474998.84544  21369469.2464   21369468.9274
 -17286217.31444 -13469775.38044  21078131.6034   21078131.6084
 -16889663.87744 -13160776.02444  20571493.6694   20571493.5854
 96  2 22  5  9  0.0000000  0  7G 5G24G25G17G 6G16G20
 -18485552.57144 -14404319.18844  21465572.1804   21465571.6194
  -2698368.93844  -2102618.47344  23134547.4524   23134546.9794
   -380914.43544   -296825.21544  24979783.3964   24979784.6614
  -9351756.52644  -7287080.58444  23416505.0434   23416507.0104
 -18631798.50244 -14518280.70644  21358899.7994   21358899.2534
 -17273729.46944 -13460044.58744  21080507.8174   21080507.9464
 -16859274.42744 -13137095.94444  20577276.5154   20577276.3534
 96  2 22  5  9 30.0000000  0  7G 5G24G25G17G 6G16G20
 -18406450.52044 -14342681.22044  21480624.5854   21480624.2004
  -2621054.57044  -2042373.51844  23149259.6414   23149260.2544
   -366112.46944   -285292.59044  24982599.4814
  -9430128.86344  -7348149.92744  23401591.5874   23401592.1904
 -18687193.27944 -14561445.46544  21348358.4844   21348357.6804
 -17260671.30944 -13449869.39344  21082992.9424   21082993.0594
 -16828312.91044 -13112970.09744  20583168.3154   20583168.3544
 96  2 22  5 10  0.0000000  0  7G 5G24G25G17G 6G16G20
 -18326943.25144 -14280727.50144  21495754.1074   21495754.0584
  -2543730.91544  -1982121.34344  23163973.7574   23163974.0544
   -350876.48044   -273419.87444  24985498.5604
  -9508275.23644  -7409043.21444  23386720.8694   23386721.8404
 -18742441.51244 -14604496.02944  21337845.0404   21337844.2374
 -17247025.53244 -13439236.31444  21085589.3374   21085589.5454
 -16796773.72944 -13088394.12444  20589169.9754   20589170.0234
 96  2 22  5 10 30.0000000  0  7G 5G24G25G17G 6G16G20
 -18247040.44844 -14218465.57844  21510959.3444   21510959.2244
  -2466411.05344  -1921872.10444  23178686.7154   23178686.9724
   -335209.68444   -261212.92744  24988480.3764   24988481.9014
  -9586211.74544  -7469772.93244  23371889.0824   23371889.8464
 -18797543.64144 -14647432.74944  21327359.1694   21327358.5774
 -17232793.22044 -13428146.19944  21088297.7954   21088297.6984
 -16764676.58844 -13063383.37644  20595278.0194   20595278.0624
 96  2 22  5 11  0.0000000  0  7G 5G24G25G17G 6G16G20
 -18166738.59744 -14155892.69844  21526240.3074   21526240.4464
  -2389069.29444  -1861605.80844  23193404.6494   23193405.0674
   -319086.12844   -248648.11944  24991547.3974
  -9663935.91244  -7530337.15944  23357098.3904   23357100.1974
 -18852491.69944 -14690249.41244  21316903.1004   21316902.4094
 -17217965.22844 -13416591.90844  21091119.5884   21091119.4524
 -16732031.76644 -13037945.86144  20601490.0484   20601490.0804
 96  2 22  5 11 30.0000000  0  7G 5G24G25G17G 6G16G20
 -18086050.19044 -14093018.61644  21541594.5394   21541594.1384
  -2311703.42144  -1801320.70944  23208126.6544   23208126.7204
   -302526.70744   -235744.57544  24994700.6694
  -9741459.17344  -7590744.87844  23342347.9024   23342347.4224
 -18907298.79144 -14732956.23344  21306473.8434   21306472.8954
 -17202544.90444 -13404576.06544  21094053.8564   21094053.6684
 -16698848.24544 -13012088.58044  20607804.6694   20607804.5834
 96  2 22  5 12  0.0000000  0  7G 5G24G25G17G 6G16G20
 -18004986.66744 -14029852.22344  21557020.7994   21557020.8004
  -2234315.18244  -1741018.20644  23222853.4274   23222852.3794
   -285542.04644   -222509.70544  24997931.8814   24997930.8554
  -9818793.32944  -7651005.27544  23327632.4984   23327631.8984
 -18961962.82744 -14775551.58444  21296071.5794   21296070.8844
 -17186526.45744 -13392094.15144  21097101.8134   21097102.3244
 -16665117.51544 -12985804.90444  20614223.4864   20614223.5124
 96  2 22  5 12 30.0000000  0  7G 5G24G25G17G 6G16G20
 -17923567.03644 -13966408.35544  21572514.4164   21572513.6934
  -2156914.36344  -1680705.88044  23237581.8614   23237581.6504
   -268155.62244   -208960.51944  25001240.4574   25001240.6074
  -9895953.56944  -7711130.12944  23312948.5694   23312949.0924
 -19016484.79644 -14818036.23044  21285696.2564   21285695.5814
 -17169940.75644 -13379170.21944  21100258.4624   21100258.2404
 -16630851.07044 -12959103.78744  20620744.2364   20620744.2164
 96  2 22  5 13  0.0000000  0  7G 5G24G25G17G 6G16G20
 -17841780.72344 -13902678.75544  21588077.6814   21588077.1584
  -2079494.60744  -1620378.80344  23252314.3034   23252314.7614
   -250369.47044   -195096.93344  25004623.0554   25004623.1894
  -9972925.67044  -7771108.35244  23298300.6804   23298301.8894
 -19070868.60744 -14860413.22444  21275346.9784   21275346.5004
 -17152782.50044 -13365800.14544  21103523.3284   21103523.1344
 -16596035.42344 -12931974.72244  20627369.3834   20627369.3484
 96  2 22  5 13 30.0000000  0  7G 5G24G25G17G 6G16G20
 -17759610.18444 -13838649.77444  21603714.3884   21603713.9354
  -2002052.22244  -1560034.10244  23267051.8124   23267052.3154
   -232174.33544   -180909.55644  25008087.0884   25008086.4304
 -10049686.26044  -7830921.77144  23283693.2314   23283694.8684
 -19125094.68544 -14902667.30344  21265028.1434   21265027.6564
 -17135029.84444 -13351966.89844  21106901.7044   21106901.4674
 -16560641.22844 -12904394.83544  20634104.6784   20634104.6154
 96  2 22  5 14  0.0000000  0  7G 5G24G25G17G 6G16G20
 -17677072.58944 -13774334.75444  21619420.7714   21619420.4184
  -1924607.69044  -1499687.75044  23281789.0924   23281788.4284
   -213589.58544   -166406.33444  25011624.0494   25011624.1624
 -10126251.94444  -7890583.33244  23269124.0964   23269124.3364
 -19179176.26544 -14944808.78344  21254737.1454   21254736.4024
 -17116715.33344 -13337695.84344  21110386.5824   21110386.7424
 -16524693.28044 -12876383.46044  20640944.9814   20640944.9564
 96  2 22  5 14 30.0000000  0  7G 5G24G25G17G 6G16G20
 -17594167.83444 -13709733.64444  21635197.1314   21635196.6824
  -1847156.59644  -1439336.24044  23296527.6774   23296527.1404
   -194606.13944   -151593.04444  25015238.6244   25015238.3384
 -10202628.37344  -7950097.42144  23254590.4494   23254590.9944
 -19233112.79544 -14986837.24844  21244473.6154   21244472.6124
 -17097838.03344 -13322986.24844  21113978.8484   21113978.5744
 -16488191.72644 -12847940.69844  20647891.2414   20647891.1364
 96  2 22  5 15  0.0000000  0  7G 5G24G25G17G 6G16G20
 -17510890.19144 -13644841.96944  21651043.9424   21651043.6554
  -1769698.29244  -1378979.12144  23311267.0804   23311267.2574
   -175211.97744   -136496.44444  25018928.0644   25018928.0194
 -10278810.95244  -8009460.46244  23240092.5384   23240092.5434
 -19286884.33044 -15028737.14544  21234241.0124   21234240.1644
 -17078369.88744 -13307816.25744  21117683.8044   21117683.8874
 -16451117.56944 -12819051.75544  20654946.4804   20654946.6054
